Date StartTime U_cm/s V_cm/s W_cm/s Ustd_cm/s Vstd_cm/s Wstd_cm/s Uvar_(cm/s)^2 Vvar_(cm/s)^2 Wvar_(cm/s)^2 KE_(m/s)^2 TurbulentKE_(m/s)^2 HorizWindSpeed_cm/s FrictionSpeec_cm/s DragCoef SpeedOfSound_m/s SonicTemperature_C Pressure_mb 
05/15/2014  00:00:00      -27.973      -34.259       10.317       23.224       24.082       18.997      539.345      579.934      360.884        0.177        0.074       44.229       13.369        0.091      342.258       17.541      867.558
05/15/2014  00:01:00      -59.478      -37.280        3.121       48.545       23.025       19.514     2356.637      530.132      380.814        0.410        0.163       70.196       24.451        0.121      342.466       17.894      867.557
05/15/2014  00:02:00     -127.941      -34.040       -4.712       26.961       28.080       17.401      726.915      788.465      302.806        0.968        0.091      132.392       16.201        0.015      342.542       18.024      867.541
05/15/2014  00:03:00      -96.417      -34.245        4.161       39.668       31.321       18.731     1573.538      980.994      350.846        0.670        0.145      102.318       15.155        0.022      342.402       17.788      867.551
05/15/2014  00:04:00     -110.530       -9.955       -9.313       37.504       29.018       19.551     1406.543      842.026      382.254        0.752        0.132      110.978       19.928        0.032      342.209       17.458      867.544
05/15/2014  00:05:00      -87.936      -24.977        1.163       29.512       30.230       15.964      870.930      913.844      254.843        0.520        0.102       91.414       16.372        0.032      342.144       17.350      867.544
05/15/2014  00:06:00      -88.753       -4.782       -6.357       46.704       22.976       21.472     2181.283      527.904      461.067        0.555        0.159       88.881       24.893        0.078      342.011       17.122      867.551
05/15/2014  00:07:00     -103.844       -7.021       -7.716       52.054       29.642       19.934     2709.665      878.649      397.377        0.744        0.199      104.081       23.079        0.049      341.875       16.892      867.557
05/15/2014  00:08:00     -160.622        3.028      -12.104       42.641       27.695       21.708     1818.265      767.007      471.234        1.451        0.153      160.650       22.412        0.019      342.023       17.142      867.563
05/15/2014  00:09:00     -105.290      -34.367        2.028       71.499       32.623       30.936     5112.085     1064.230      957.058        0.970        0.357      110.757       38.374        0.120      341.994       17.093      867.569
05/15/2014  00:10:00     -137.240      -52.715       -2.393       60.363       45.049       26.744     3643.709     2029.424      715.233        1.400        0.319      147.016       32.355        0.048      341.949       17.018      867.586
05/15/2014  00:11:00     -149.331      -25.478      -10.157       38.619       36.511       24.049     1491.428     1333.061      578.346        1.323        0.170      151.489       21.967        0.021      341.934       16.992      867.599
05/15/2014  00:12:00     -174.892       -5.829      -20.278       20.246       28.451       17.686      409.909      809.453      312.808        1.628        0.077      174.990       10.657        0.004      342.010       17.119      867.585
05/15/2014  00:13:00     -149.013      -45.333       -6.638       35.942       34.251       22.149     1291.831     1173.138      490.572        1.363        0.148      155.756       21.883        0.020      342.029       17.153      867.591
05/15/2014  00:14:00     -132.851      -31.571        2.371       51.053       37.382       28.608     2606.369     1397.377      818.412        1.174        0.241      136.551       26.802        0.039      342.059       17.205      867.593
05/15/2014  00:15:00     -154.492      -23.991      -14.810       41.651       31.442       26.115     1734.769      988.597      681.969        1.403        0.170      156.344       22.676        0.021      342.039       17.169      867.585
05/15/2014  00:16:00     -122.525      -11.692       -8.559       28.029       31.663       19.681      785.610     1002.568      387.350        0.870        0.109      123.081       15.772        0.016      342.003       17.107      867.587
05/15/2014  00:17:00     -121.215      -23.480       -6.100       30.720       29.946       17.859      943.701      896.763      318.936        0.872        0.108      123.468       18.700        0.023      342.029       17.153      867.578
05/15/2014  00:18:00      -81.815      -20.470       -3.873       24.256       26.966       15.942      588.344      727.178      254.135        0.435        0.078       84.337       11.985        0.020      341.955       17.027      867.573
05/15/2014  00:19:00      -84.125      -24.673       -3.568       26.074       23.399       13.790      679.878      547.496      190.176        0.456        0.071       87.669       10.443        0.014      342.008       17.118      867.560
05/15/2014  00:20:00     -109.923       13.818      -10.465       40.940       22.132       13.467     1676.072      489.834      181.358        0.736        0.117      110.788       16.178        0.021      341.962       17.039      867.559
05/15/2014  00:21:00      -94.438      -29.894       -4.856       29.092       21.773       14.027      846.362      474.070      196.746        0.568        0.076       99.056       15.735        0.025      341.937       16.997      867.548
05/15/2014  00:22:00      -72.924        3.383       -0.967       36.683       22.114       18.537     1345.658      489.040      343.606        0.375        0.109       73.003       18.911        0.067      341.868       16.879      867.543
05/15/2014  00:23:00      -96.366       -4.767       -8.838       19.746       23.853       12.794      389.915      568.968      163.685        0.525        0.056       96.484       12.133        0.016      341.932       16.988      867.543
05/15/2014  00:24:00     -138.369      -23.066      -14.272       34.275       27.133       16.065     1174.751      736.217      258.089        1.102        0.108      140.278        7.582        0.003      341.891       16.919      867.527
05/15/2014  00:25:00     -154.544        0.725      -14.517       30.348       15.978       14.232      921.002      255.286      202.552        1.274        0.069      154.546       10.854        0.005      341.981       17.071      867.510
05/15/2014  00:26:00     -190.301       21.256      -13.020       34.768       25.018       13.410     1208.784      625.902      179.826        1.942        0.101      191.484       13.480        0.005      342.032       17.157      867.516
05/15/2014  00:27:00     -178.057       20.821      -14.910       34.368       19.563       14.128     1181.153      382.707      199.609        1.706        0.088      179.270       11.794        0.004      341.984       17.075      867.510
05/15/2014  00:28:00     -181.274       23.561      -12.870       23.770       24.286       14.032      565.022      589.834      196.894        1.747        0.068      182.798        9.187        0.003      342.028       17.150      867.503
05/15/2014  00:29:00     -176.632       40.754       -9.947       30.372       25.009       17.956      922.449      625.434      322.427        1.741        0.094      181.273        9.346        0.003      342.020       17.137      867.506
05/15/2014  00:30:00     -128.715      -10.150      -14.051       34.140       34.119       13.012     1165.558     1164.132      169.305        0.968        0.125      129.115       11.854        0.008      341.946       17.011      867.503
05/15/2014  00:31:00     -135.372       15.470       -9.906       38.579       21.382       12.691     1488.364      457.197      161.063        1.038        0.105      136.253       14.332        0.011      341.858       16.864      867.496
05/15/2014  00:32:00     -145.514      -16.748      -14.061       40.661       29.940       19.075     1653.350      896.401      363.864        1.228        0.146      146.475       21.813        0.022      341.773       16.719      867.498
05/15/2014  00:33:00     -116.654      -11.770       -3.048       49.457       24.555       16.968     2445.950      602.970      287.914        0.855        0.167      117.246       21.101        0.032      341.691       16.580      867.495
05/15/2014  00:34:00     -114.265      -22.951       -3.648       38.662       26.048       20.997     1494.759      678.512      440.876        0.810        0.131      116.547       20.516        0.031      341.683       16.565      867.487
05/15/2014  00:35:00     -120.585      -18.191       -2.133       39.687       21.729       23.794     1575.033      472.132      566.158        0.874        0.131      121.950       22.867        0.035      341.639       16.490      867.485
05/15/2014  00:36:00      -66.581      -31.007        5.786       35.406       36.453       20.536     1253.559     1328.830      421.745        0.422        0.150       73.447       22.164        0.091      341.599       16.424      867.487
05/15/2014  00:37:00     -103.770       -9.042       -1.082       41.297       28.291       22.566     1705.437      800.384      509.209        0.693        0.151      104.163       23.101        0.049      341.671       16.545      867.500
05/15/2014  00:38:00      -98.857      -26.757        7.887       40.916       30.915       19.078     1674.148      955.710      363.987        0.677        0.150      102.414       19.211        0.035      341.729       16.644      867.496
05/15/2014  00:39:00      -93.538       -7.853       -1.942       41.475       26.434       17.415     1720.135      698.739      303.294        0.577        0.136       93.867       19.703        0.044      341.740       16.661      867.506
05/15/2014  00:40:00     -144.652      -23.285       -2.659       60.682       36.559       24.570     3682.279     1336.542      603.694        1.355        0.281      146.514       29.815        0.041      341.794       16.755      867.519
05/15/2014  00:41:00     -117.419      -20.519      -11.343       33.214       36.278       19.782     1103.144     1316.102      391.315        0.857        0.141      119.198       10.559        0.008      341.671       16.545      867.517
05/15/2014  00:42:00     -101.884      -18.114      -11.719       30.393       27.152       17.594      923.721      737.226      309.564        0.641        0.099      103.482       16.682        0.026      341.631       16.477      867.507
05/15/2014  00:43:00      -86.087        6.905       -2.440       24.479       22.620       14.728      599.202      511.659      216.911        0.440        0.066       86.363        8.773        0.010      341.570       16.374      867.499
05/15/2014  00:44:00     -125.817        5.643      -17.501       14.553       12.043       11.001      211.792      145.023      121.022        0.832        0.024      125.944        7.291        0.003      341.597       16.418      867.500
05/15/2014  00:45:00     -132.820       -4.248      -23.208       18.739       24.422       12.097      351.149      596.447      146.344        0.965        0.055      132.888       10.030        0.006      341.642       16.495      867.495
05/15/2014  00:46:00      -64.280      -24.160       -3.284       28.004       26.273       19.683      784.209      690.283      387.407        0.329        0.093       68.671       16.708        0.059      341.582       16.394      867.483
05/15/2014  00:47:00      -78.417      -19.648       -3.180       43.344       27.898       16.327     1878.686      778.322      266.559        0.473        0.146       80.841       19.029        0.055      341.617       16.453      867.472
05/15/2014  00:48:00     -124.452      -21.158       -9.065       33.157       15.851       15.731     1099.419      251.247      247.466        0.881        0.080      126.237       17.069        0.018      341.580       16.392      867.475
05/15/2014  00:49:00     -105.619       14.503       -9.838       31.108       24.235       22.049      967.704      587.346      486.163        0.675        0.102      106.610       18.650        0.031      341.501       16.256      867.473
05/15/2014  00:50:00     -151.281       11.109      -16.969       17.480       17.997       12.626      305.536      323.910      159.420        1.204        0.039      151.688        5.168        0.001      341.528       16.302      867.463
05/15/2014  00:51:00     -173.030       31.990      -23.449       22.203       20.418       13.213      492.971      416.877      174.585        1.630        0.054      175.962       10.190        0.003      341.511       16.273      867.455
05/15/2014  00:52:00     -118.206       32.530      -11.160       38.500       22.516       17.312     1482.257      506.969      299.718        0.872        0.114      122.600        5.414        0.002      341.625       16.467      867.455
05/15/2014  00:53:00      -98.182       17.028       -3.804       19.147       13.578       10.443      366.599      184.375      109.047        0.530        0.033       99.647       10.738        0.012      341.635       16.485      867.466
05/15/2014  00:54:00      -78.782      -14.668       -4.600       15.983       27.823        9.662      255.464      774.093       93.356        0.378        0.056       80.136        7.132        0.008      341.499       16.253      867.473
05/15/2014  00:55:00      -69.050      -20.882       -3.428       39.943       14.662        9.350     1595.476      214.974       87.427        0.356        0.095       72.138       10.800        0.022      341.445       16.163      867.468
05/15/2014  00:56:00      -44.942      -20.339        1.615       26.650       12.392       12.397      710.215      153.569      153.679        0.173        0.051       49.331        9.346        0.036      341.480       16.223      867.473
05/15/2014  00:57:00        4.227      -10.030       -2.445       18.673       14.220       12.436      348.686      202.216      154.656        0.041        0.035       10.884       10.771        0.979      341.213       15.770      867.477
05/15/2014  00:58:00      -48.118      -32.137        3.658       33.996       30.830       15.601     1155.736      950.464      243.401        0.286        0.117       57.863       17.087        0.087      341.317       15.945      867.480
05/15/2014  00:59:00      -15.931      -21.338        9.372       26.932       25.047       13.577      725.357      627.344      184.338        0.117        0.077       26.630       11.094        0.174      341.248       15.828      867.468
05/15/2014  01:00:00      -67.154      -33.534       -3.514       18.181       13.622       12.294      330.539      185.562      151.148        0.316        0.033       75.061        7.000        0.009      341.633       16.482      867.456
05/15/2014  01:01:00      -75.950      -38.181       -0.921       24.416       22.750       12.714      596.137      517.542      161.650        0.425        0.064       85.007       11.483        0.018      341.570       16.375      867.458
05/15/2014  01:02:00      -18.787      -40.601        0.703       23.795       22.663       13.726      566.213      513.598      188.413        0.163        0.063       44.737        6.250        0.020      341.553       16.346      867.447
05/15/2014  01:03:00      -63.017      -45.653       -2.884       37.733       22.039       16.015     1423.773      485.737      256.489        0.411        0.108       77.816        8.358        0.012      341.615       16.450      867.445
05/15/2014  01:04:00      -48.773      -54.908       -3.644       20.258       36.389       15.817      410.384     1324.175      250.176        0.370        0.099       73.442       11.274        0.024      341.626       16.471      867.429
05/15/2014  01:05:00      -72.309      -77.883       -7.346       15.030       30.008       10.691      225.910      900.460      114.295        0.629        0.062      106.275        8.048        0.006      341.621       16.462      867.423
05/15/2014  01:06:00      -38.717      -28.191        5.622       40.826       28.276       17.886     1666.779      799.514      319.895        0.256        0.139       47.893       21.588        0.203      341.466       16.198      867.429
05/15/2014  01:07:00      -42.568      -75.915        1.735       39.337       37.810       23.802     1547.395     1429.585      566.552        0.556        0.177       87.035       20.886        0.058      341.607       16.436      867.420
05/15/2014  01:08:00      -54.219      -85.893        3.251       41.505       52.002       20.355     1722.663     2704.219      414.307        0.758        0.242      101.574       24.926        0.060      341.619       16.458      867.419
05/15/2014  01:09:00      -30.310      -89.385        3.446       30.343       46.637       27.095      920.707     2174.966      734.120        0.637        0.191       94.384       26.024        0.076      341.622       16.462      867.404
05/15/2014  01:10:00      -92.270      -91.477      -11.860       46.555       44.902       21.893     2167.358     2016.157      479.299        1.084        0.233      129.930       12.110        0.009      341.686       16.572      867.399
05/15/2014  01:11:00      -74.141      -88.101        0.208       30.697       57.025       22.193      942.325     3251.899      492.523        0.897        0.234      115.147       24.235        0.044      341.532       16.308      867.422
05/15/2014  01:12:00      -39.513      -35.843        8.227       29.250       47.272       18.879      855.590     2234.613      356.410        0.318        0.172       53.348       22.394        0.176      341.526       16.299      867.413
05/15/2014  01:13:00      -83.349      -53.482       -8.089       33.489       30.621       16.048     1121.532      937.639      257.536        0.609        0.116       99.033       10.653        0.012      341.525       16.296      867.412
05/15/2014  01:14:00      -70.983      -57.176       -4.073       36.349       26.160       17.340     1321.259      684.333      300.690        0.531        0.115       91.146       10.618        0.014      341.517       16.285      867.415
05/15/2014  01:15:00      -43.337      -75.131        7.482       34.042       48.014       25.637     1158.847     2305.303      657.235        0.585        0.206       86.734       19.365        0.050      341.434       16.145      867.421
05/15/2014  01:16:00      -95.566      -71.500       -3.568       41.479       40.597       21.598     1720.472     1648.103      466.470        0.905        0.192      119.353       14.939        0.016      341.456       16.180      867.422
05/15/2014  01:17:00      -86.143      -83.931        2.545       50.918       44.462       24.466     2592.603     1976.847      598.597        0.982        0.258      120.271       23.545        0.038      341.494       16.246      867.420
05/15/2014  01:18:00      -74.778     -144.421        1.065       40.760       58.946       31.525     1661.352     3474.689      993.801        1.629        0.306      162.632       30.437        0.035      341.524       16.293      867.431
05/15/2014  01:19:00      -64.834      -78.066       -3.574       42.200       53.269       25.013     1780.807     2837.592      625.669        0.778        0.262      101.477       22.073        0.047      341.488       16.234      867.432
05/15/2014  01:20:00      -77.355      -42.956       -4.975       67.158       43.803       23.761     4510.196     1918.678      564.592        0.742        0.350       88.482       13.023        0.022      341.434       16.143      867.428
05/15/2014  01:21:00      -23.976      -85.473       12.825       39.105       57.572       29.018     1529.163     3314.496      842.066        0.686        0.284       88.772       21.820        0.060      341.445       16.161      867.425
05/15/2014  01:22:00      -55.113      -53.612        1.434       45.911       44.252       29.316     2107.853     1958.196      859.447        0.542        0.246       76.888       24.108        0.098      341.397       16.081      867.428
05/15/2014  01:23:00      -21.996      -35.292        0.371       24.757       34.129       21.665      612.902     1164.813      469.364        0.199        0.112       41.585       20.738        0.249      341.418       16.117      867.436
05/15/2014  01:24:00      -46.885      -49.957        5.406       39.757       30.977       20.172     1580.613      959.554      406.923        0.383        0.147       68.512       18.914        0.076      341.394       16.077      867.432
05/15/2014  01:25:00      -80.308      -43.148       -9.290       41.236       31.792       19.061     1700.404     1010.731      363.339        0.574        0.154       91.165       15.243        0.028      341.459       16.185      867.419
05/15/2014  01:26:00      -29.789      -48.941       -1.153       28.873       43.233       21.055      833.632     1869.122      443.329        0.321        0.157       57.294       17.727        0.096      341.387       16.063      867.430
05/15/2014  01:27:00      -19.966      -49.383        0.699       44.154       32.001       16.086     1949.556     1024.063      258.751        0.303        0.162       53.266       15.820        0.088      341.390       16.070      867.419
05/15/2014  01:28:00        3.350      -20.367       -0.810       31.028       31.206       15.684      962.749      973.817      245.973        0.130        0.109       20.640       15.403        0.557      341.253       15.836      867.417
05/15/2014  01:29:00       10.207       -4.901        3.586       14.147       12.863       16.665      200.130      165.465      277.706        0.039        0.032       11.323       11.008        0.945      340.828       15.119      867.427
05/15/2014  01:30:00       -2.795       -3.374        0.895       19.866       20.110       15.699      394.658      404.404      246.453        0.053        0.052        4.382       12.897        8.663      340.816       15.097      867.441
05/15/2014  01:31:00      -60.480       15.538       -3.002       31.704       17.458       18.241     1005.138      304.782      332.743        0.278        0.082       62.444       10.594        0.029      341.374       16.042      867.447
05/15/2014  01:32:00       -3.823        3.328        5.406       34.988       24.222       25.182     1224.141      586.707      634.125        0.125        0.122        5.069       27.057       28.491      341.100       15.578      867.452
05/15/2014  01:33:00      -63.118       36.494        3.951       46.765       23.524       22.156     2186.970      553.379      490.906        0.428        0.162       72.909       20.165        0.076      341.430       16.137      867.467
05/15/2014  01:34:00       -0.923       26.802        9.162       28.329       15.701       12.467      802.553      246.519      155.419        0.100        0.060       26.818        7.591        0.080      341.248       15.829      867.478
05/15/2014  01:35:00      -13.541       10.710        1.460       19.347       17.437       11.516      374.300      304.062      132.628        0.056        0.041       17.264        8.252        0.228      341.119       15.610      867.477
05/15/2014  01:36:00       24.598       27.596       11.492       11.087       19.514       14.234      122.913      380.806      202.618        0.110        0.035       36.967       14.765        0.160      341.076       15.537      867.479
05/15/2014  01:37:00       19.868       27.610        9.655       29.996       16.785       10.401      899.733      281.720      108.180        0.127        0.064       34.016        8.098        0.057      340.978       15.372      867.495
05/15/2014  01:38:00       12.837        7.442        8.605       48.815       23.402       29.078     2382.864      547.653      845.516        0.203        0.189       14.838       27.642        3.470      341.045       15.485      867.505
05/15/2014  01:39:00        4.527       10.799       14.658       20.736       12.142       13.390      429.967      147.437      179.282        0.055        0.038       11.710        9.576        0.669      341.111       15.597      867.510
05/15/2014  01:40:00       18.088       17.761       -5.288        9.760       14.181       10.932       95.261      201.102      119.502        0.054        0.021       25.350        5.322        0.044      341.170       15.699      867.515
05/15/2014  01:41:00       13.403       25.087       -1.342       12.883       21.657       14.718      165.972      469.036      216.619        0.083        0.043       28.443        7.494        0.069      341.037       15.471      867.518
05/15/2014  01:42:00       33.337       27.295       -2.469       17.030       18.055       17.904      290.036      325.967      320.536        0.140        0.047       43.085        5.286        0.015      341.026       15.454      867.533
05/15/2014  01:43:00       33.470        1.570       -0.818       18.948       32.707       18.615      359.014     1069.752      346.518        0.145        0.089       33.507       14.988        0.200      340.856       15.166      867.533
05/15/2014  01:44:00       26.516      -24.597       -7.288       27.730       25.377       16.074      768.950      643.996      258.371        0.152        0.084       36.168       11.063        0.094      340.964       15.348      867.532
05/15/2014  01:45:00       -6.646        0.299       -3.000       18.677       12.990       12.572      348.841      168.741      158.054        0.036        0.034        6.653        8.909        1.793      341.010       15.426      867.530
05/15/2014  01:46:00      -12.970       11.059        3.467       22.418       14.567       15.970      502.572      212.191      255.031        0.064        0.048       17.045       12.307        0.521      341.399       16.084      867.530
05/15/2014  01:47:00       52.841      -23.038        5.175       19.990       20.686       16.353      399.583      427.894      267.410        0.222        0.055       57.644        9.983        0.030      340.942       15.311      867.527
05/15/2014  01:48:00       10.421       -4.979        6.480       21.052       14.430        8.330      443.173      208.229       69.391        0.045        0.036       11.549        6.022        0.272      341.082       15.549      867.523
05/15/2014  01:49:00      -43.477       -5.904        0.487       30.943       28.938       11.670      957.463      837.425      136.191        0.193        0.097       43.876       11.459        0.068      341.365       16.026      867.519
05/15/2014  01:50:00        0.835        7.992       14.093       13.444       10.580       10.011      180.738      111.941      100.214        0.033        0.020        8.036        7.106        0.782      340.947       15.319      867.529
05/15/2014  01:51:00      -25.499       -3.532        4.555       11.694       15.922        7.491      136.742      253.503       56.118        0.056        0.022       25.742        6.040        0.055      341.173       15.702      867.522
05/15/2014  01:52:00       -8.356        1.127        6.998       23.661        8.115        7.787      559.858       65.859       60.644        0.040        0.034        8.431        2.996        0.126      341.065       15.520      867.516
05/15/2014  01:53:00        8.327        8.462        0.629        6.020        6.724        4.754       36.241       45.208       22.600        0.012        0.005       11.872        3.556        0.090      341.146       15.655      867.520
05/15/2014  01:54:00       19.769       -2.924        9.250       27.140       15.703       12.829      736.591      246.584      164.596        0.082        0.057       19.984       10.973        0.302      340.979       15.374      867.515
05/15/2014  01:55:00       12.645       -3.277        1.285       14.556       11.051       14.746      211.888      122.134      217.438        0.036        0.028       13.063        8.723        0.446      341.000       15.409      867.509
05/15/2014  01:56:00      -19.222       -0.934       -6.729       11.253        4.779        3.280      126.641       22.841       10.760        0.029        0.008       19.245        3.895        0.041      341.224       15.791      867.500
05/15/2014  01:57:00      -46.732      -11.513      -12.042        9.865        7.995        4.916       97.325       63.921       24.169        0.132        0.009       48.129        3.046        0.004      341.227       15.794      867.496
05/15/2014  01:58:00      -49.867      -12.755      -10.018       13.011        9.565        6.817      169.286       91.486       46.467        0.153        0.015       51.472        2.948        0.003      341.104       15.585      867.490
05/15/2014  01:59:00      -76.076       -7.268       -3.417       35.364       24.749       16.360     1250.581      612.537      267.656        0.399        0.107       76.422       14.250        0.035      340.951       15.325      867.489
05/15/2014  02:00:00      -90.396       18.177       -7.874       39.178       38.748       26.465     1534.936     1501.415      700.387        0.615        0.187       92.205       23.956        0.068      340.699       14.901      867.499
05/15/2014  02:01:00      -68.848        5.388       -3.461       35.218       28.451       21.218     1240.338      809.488      450.217        0.364        0.125       69.059       22.605        0.107      340.761       15.004      867.502
05/15/2014  02:02:00      -77.487      -15.625       -0.047       18.110       17.137       12.409      327.956      293.670      153.984        0.351        0.039       79.047        6.588        0.007      340.797       15.066      867.502
05/15/2014  02:03:00      -82.624       -2.751       -7.110       32.362       29.330       23.701     1047.302      860.271      561.725        0.468        0.123       82.670       17.959        0.047      340.690       14.885      867.495
05/15/2014  02:04:00     -105.380       16.465       -8.259       39.012       37.714       22.590     1521.903     1422.375      510.290        0.745        0.173      106.658       23.365        0.048      340.660       14.834      867.490
05/15/2014  02:05:00      -79.963      -23.900        2.172       35.050       31.255       19.912     1228.513      976.855      396.501        0.479        0.130       83.458       14.371        0.030      340.720       14.936      867.485
05/15/2014  02:06:00     -114.564       -1.435        6.053       73.340       40.976       32.516     5378.694     1678.993     1057.289        1.064        0.406      114.573       36.032        0.099      340.757       14.997      867.496
05/15/2014  02:07:00      -84.852       31.643       -1.163       42.075       25.540       30.246     1770.333      652.277      914.832        0.577        0.167       90.560       12.774        0.020      340.870       15.189      867.492
05/15/2014  02:08:00      -85.329      -51.732       -2.171       41.754       31.292       19.912     1743.391      979.159      396.479        0.654        0.156       99.786       13.199        0.017      340.865       15.179      867.485
05/15/2014  02:09:00     -136.936      -51.426       -5.435       31.068       33.679       18.065      965.225     1134.283      326.335        1.193        0.121      146.274       15.143        0.011      340.650       14.818      867.487
05/15/2014  02:10:00     -130.964       -7.893       -6.709       45.455       43.485       31.060     2066.143     1890.963      964.724        1.109        0.246      131.201       27.228        0.043      340.750       14.987      867.494
05/15/2014  02:11:00      -30.298        6.845        0.938       39.459       26.992       18.091     1557.027      728.573      327.290        0.179        0.131       31.062       16.483        0.282      340.856       15.165      867.493
05/15/2014  02:12:00      -60.908      -30.579       -2.756       42.828       34.530       19.809     1834.215     1192.349      392.410        0.404        0.171       68.153       11.450        0.028      340.948       15.321      867.483
05/15/2014  02:13:00     -139.540      -76.581      -11.764       40.827       24.355       18.859     1666.848      593.154      355.661        1.404        0.131      159.173       13.191        0.007      340.724       14.942      867.482
05/15/2014  02:14:00     -128.951      -19.959      -10.675       48.312       31.193       24.307     2334.003      973.007      590.810        1.052        0.195      130.486       26.148        0.040      340.772       15.022      867.476
05/15/2014  02:15:00     -129.178       22.850       -5.827       59.189       31.683       31.333     3503.338     1003.817      981.766        1.136        0.274      131.184       31.472        0.058      341.036       15.471      867.459
05/15/2014  02:16:00      -29.399       16.646       16.428       37.331       19.604       18.966     1393.586      384.313      359.695        0.177        0.107       33.785       21.414        0.402      340.886       15.217      867.435
05/15/2014  02:17:00      -98.165      -14.568       -6.336       46.724       51.258       22.710     2183.102     2627.339      515.761        0.761        0.266       99.240       24.105        0.059      341.279       15.881      867.428
05/15/2014  02:18:00     -165.771      -63.078      -14.356       30.171       33.855       18.976      910.296     1146.164      360.093        1.704        0.121      177.366       13.494        0.006      340.683       14.873      867.437
05/15/2014  02:19:00     -135.369      -16.045       -4.409       38.897       39.183       21.952     1512.994     1535.276      481.910        1.107        0.177      136.317       18.419        0.018      340.692       14.888      867.428
05/15/2014  02:20:00     -107.141        1.105       -1.927       43.455       30.897       20.443     1888.314      954.607      417.921        0.737        0.163      107.147       24.058        0.050      340.687       14.879      867.411
05/15/2014  02:21:00      -31.841       18.857       17.202       25.060       28.006       22.974      628.015      784.308      527.816        0.180        0.097       37.006       19.091        0.266      340.691       14.885      867.385
05/15/2014  02:22:00      -38.553      -13.047       10.392       28.278       25.405       15.222      799.620      645.394      231.713        0.172        0.084       40.700       12.228        0.090      340.921       15.276      867.361
05/15/2014  02:23:00      -81.273      -31.920        9.060       29.298       30.346       16.505      858.355      920.856      272.399        0.488        0.103       87.317       15.048        0.030      340.856       15.165      867.347
05/15/2014  02:24:00     -105.280      -61.367       -0.075       53.359       47.473       24.943     2847.172     2253.695      622.151        1.029        0.286      121.860       25.379        0.043      340.646       14.811      867.350
05/15/2014  02:25:00      -87.283        1.594        7.648       48.843       37.230       29.288     2385.594     1386.061      857.787        0.615        0.231       87.297       26.814        0.094      340.671       14.852      867.341
05/15/2014  02:26:00        4.108       -6.012       22.753       24.490       20.507       13.756      599.753      420.543      189.216        0.089        0.060        7.281        8.042        1.220      340.659       14.831      867.341
05/15/2014  02:27:00      -70.131       -7.532        1.930       50.565       26.869       17.582     2556.784      721.958      309.117        0.428        0.179       70.534       21.244        0.091      340.760       15.002      867.332
05/15/2014  02:28:00      -31.125        5.333       11.215       47.253       36.138       27.811     2232.845     1305.966      773.434        0.272        0.216       31.579       20.475        0.420      340.804       15.077      867.333
05/15/2014  02:29:00      -98.921       15.108        0.332      102.928       36.375       34.801    10594.140     1323.111     1211.111        1.157        0.656      100.068       50.044        0.250      340.882       15.208      867.336
05/15/2014  02:30:00     -112.917        8.580        0.788       66.040       45.662       30.261     4361.291     2084.995      915.736        1.009        0.368      113.243       34.398        0.092      340.815       15.095      867.336
05/15/2014  02:31:00      -24.416       11.806        3.914       25.071       28.656       23.343      628.545      821.186      544.892        0.137        0.100       27.121       15.708        0.335      340.787       15.049      867.331
05/15/2014  02:32:00      -37.443       -2.945       -0.670       19.314       17.011       16.423      373.044      289.380      269.726        0.117        0.047       37.558       12.695        0.114      340.877       15.200      867.326
05/15/2014  02:33:00      -19.473      -20.707       -1.751       34.731       20.232        9.881     1206.275      409.348       97.625        0.126        0.086       28.425        5.315        0.035      340.804       15.077      867.316
05/15/2014  02:34:00      -72.278      -29.430       -1.439       33.447       21.380       17.859     1118.690      457.124      318.930        0.399        0.095       78.041        7.752        0.010      340.765       15.011      867.321
05/15/2014  02:35:00      -26.882      -27.604        2.567       38.786       21.813       18.704     1504.321      475.811      349.843        0.191        0.116       38.531       17.797        0.213      340.793       15.059      867.329
05/15/2014  02:36:00       10.054       -7.638        7.198       23.151       16.777       17.011      535.962      281.451      289.371        0.066        0.055       12.626       15.811        1.568      340.893       15.228      867.334
05/15/2014  02:37:00        6.307      -37.752        1.857       20.874       21.150       17.056      435.738      447.312      290.913        0.132        0.059       38.275        9.371        0.060      340.819       15.101      867.342
05/15/2014  02:38:00      -16.005      -49.937        2.563       20.234       29.911       12.920      409.398      894.648      166.923        0.211        0.074       52.439        7.947        0.023      340.929       15.289      867.355
05/15/2014  02:39:00      -22.373      -29.675       -0.768       16.416       14.575       12.039      269.476      212.426      144.937        0.100        0.031       37.164        8.775        0.056      340.871       15.191      867.360
05/15/2014  02:40:00       -4.341      -19.558        6.963       14.374        7.362        7.866      206.622       54.206       61.874        0.039        0.016       20.034        6.949        0.120      340.950       15.325      867.361
05/15/2014  02:41:00      -40.463      -26.448       -0.654       16.995       20.517       13.428      288.825      420.956      180.303        0.161        0.045       48.340       12.819        0.070      340.959       15.339      867.378
05/15/2014  02:42:00      -11.424      -21.321        4.525       30.202       19.856       17.348      912.159      394.243      300.942        0.111        0.080       24.189       11.480        0.225      340.822       15.108      867.386
05/15/2014  02:43:00      -18.121      -42.442        6.673       35.572       36.845       16.094     1265.400     1357.545      259.004        0.253        0.144       46.149       21.056        0.208      340.814       15.095      867.390
05/15/2014  02:44:00      -46.408      -52.897      -13.075       13.639       20.062       11.457      186.016      402.477      131.269        0.292        0.036       70.369        8.711        0.015      341.081       15.546      867.388
05/15/2014  02:45:00      -45.070      -33.309       -1.951       36.102       22.741       14.765     1303.325      517.168      218.014        0.259        0.102       56.043        6.429        0.013      340.865       15.180      867.399
05/15/2014  02:46:00      -42.859      -68.904        8.988       35.363       45.760       22.552     1250.540     2094.011      508.598        0.526        0.193       81.146       24.708        0.093      340.832       15.125      867.410
05/15/2014  02:47:00      -85.588      -79.428      -10.317       29.453       29.675       14.026      867.472      880.603      196.724        0.784        0.097      116.765       11.471        0.010      340.793       15.060      867.419
05/15/2014  02:48:00      -75.067      -46.051       -0.986       25.935       23.437       18.055      672.633      549.284      325.996        0.465        0.077       88.067       16.282        0.034      340.790       15.053      867.423
05/15/2014  02:49:00      -61.830      -40.299       -1.764       35.110       23.618       17.835     1232.715      557.806      318.101        0.378        0.105       73.804       14.819        0.040      340.752       14.991      867.429
05/15/2014  02:50:00      -40.935      -41.379        4.028       32.792       34.837       15.352     1075.334     1213.596      235.698        0.296        0.126       58.206       17.926        0.095      340.747       14.981      867.432
05/15/2014  02:51:00      -73.277      -52.397       -0.517       26.280       15.628       14.335      690.627      244.231      205.504        0.463        0.057       90.083       14.279        0.025      340.737       14.964      867.422
05/15/2014  02:52:00      -82.209      -56.864       -6.790       39.304       26.921       18.206     1544.814      724.741      331.476        0.632        0.130       99.959       14.380        0.021      340.794       15.059      867.428
05/15/2014  02:53:00      -21.705      -25.009        3.056       23.898       16.892       14.639      571.097      285.337      214.297        0.109        0.054       33.115       12.968        0.153      340.725       14.944      867.423
05/15/2014  02:54:00      -68.014       -7.728       -6.606       10.449       14.472        8.577      109.189      209.450       73.568        0.256        0.020       68.452        7.096        0.011      340.891       15.226      867.406
05/15/2014  02:55:00      -79.598      -36.868       -4.218       16.364       11.840       13.237      267.786      140.183      175.230        0.415        0.029       87.721       10.205        0.014      340.886       15.217      867.412
05/15/2014  02:56:00      -90.601      -34.208       -5.413       17.170       14.339        9.680      294.814      205.606       93.693        0.500        0.030       96.844        6.593        0.005      340.739       14.967      867.418
05/15/2014  02:57:00      -79.682      -17.244        1.327       13.864       14.722        6.852      192.218      216.745       46.951        0.355        0.023       81.527        4.144        0.003      340.712       14.924      867.411
05/15/2014  02:58:00      -30.908       -5.033        1.721       10.537        6.942        4.701      111.037       48.195       22.099        0.058        0.009       31.315        2.094        0.004      340.723       14.941      867.403
05/15/2014  02:59:00      -17.929      -16.444        8.734       31.474       10.663       12.296      990.610      113.694      151.180        0.096        0.063       24.328       13.863        0.325      340.591       14.718      867.387
05/15/2014  03:00:00      -18.355      -27.268        5.405       18.905        8.811       11.036      357.412       77.625      121.797        0.083        0.028       32.870       12.239        0.139      340.470       14.512      867.389
05/15/2014  03:01:00       -7.479      -25.877       -5.714       24.273       11.234       13.132      589.187      126.204      172.441        0.082        0.044       26.936        9.823        0.133      340.480       14.530      867.395
05/15/2014  03:02:00       14.998      -15.509        3.605       21.704       21.422       17.403      471.083      458.883      302.864        0.086        0.062       21.575       11.014        0.261      340.158       13.985      867.396
05/15/2014  03:03:00       21.791      -15.316        4.060       28.908       24.226       18.723      835.654      586.880      350.549        0.125        0.089       26.635       16.826        0.399      339.984       13.692      867.398
05/15/2014  03:04:00       16.291       -2.948       12.521       13.132       18.921       11.180      172.458      358.008      124.984        0.054        0.033       16.555        7.356        0.197      340.065       13.828      867.411
05/15/2014  03:05:00       18.534      -11.619        6.813       21.556       18.334       15.598      464.649      336.142      243.306        0.078        0.052       21.875       16.730        0.585      340.023       13.758      867.431
05/15/2014  03:06:00        1.095      -15.920        1.884       17.697       17.793       13.625      313.189      316.590      185.641        0.054        0.041       15.958        8.053        0.255      340.265       14.168      867.446
05/15/2014  03:07:00       39.431      -15.635      -10.232       23.441       15.110       23.096      549.487      228.317      533.434        0.161        0.066       42.418       14.523        0.117      340.064       13.827      867.451
05/15/2014  03:08:00       -0.417      -16.579       -0.339       24.958       26.881       14.023      622.910      722.580      196.644        0.091        0.077       16.584        7.131        0.185      340.270       14.174      867.447
05/15/2014  03:09:00       -6.841       -0.499        0.161        7.725       13.182        8.251       59.674      173.752       68.087        0.017        0.015        6.859        8.102        1.395      340.738       14.966      867.447
05/15/2014  03:10:00        8.688       -6.795       16.692       12.114        8.676        8.905      146.756       75.267       79.306        0.035        0.015       11.030        6.261        0.322      340.200       14.057      867.446
05/15/2014  03:11:00       -4.957       -4.345       18.368       23.031       18.646       15.466      530.420      347.659      239.207        0.075        0.056        6.592       13.965        4.487      340.076       13.847      867.451
05/15/2014  03:12:00      -12.091        7.241        5.836       12.977       16.748        9.435      168.410      280.483       89.011        0.039        0.027       14.093        5.062        0.129      340.347       14.306      867.448
05/15/2014  03:13:00       24.758       -7.380        8.280       16.241       11.704       17.211      263.768      136.990      296.211        0.072        0.035       25.834       11.833        0.210      340.210       14.074      867.437
05/15/2014  03:14:00       58.162      -10.552        9.641       32.891       17.837       22.817     1081.843      318.172      520.618        0.275        0.096       59.112       15.169        0.066      340.136       13.949      867.415
05/15/2014  03:15:00       37.251        1.675       -3.986       32.301       31.679       22.737     1043.371     1003.588      516.980        0.198        0.128       37.289       20.368        0.298      340.322       14.263      867.407
05/15/2014  03:16:00        0.052        9.220      -14.823       16.360       16.994       14.531      267.663      288.792      211.151        0.054        0.038        9.220        7.504        0.662      340.606       14.741      867.409
05/15/2014  03:17:00      -24.258      -19.713       -0.921       18.447       14.395       10.198      340.308      207.220      104.001        0.081        0.033       31.258        6.497        0.043      340.439       14.460      867.407
05/15/2014  03:18:00       11.010       -6.452       14.601       19.952       12.471       13.560      398.092      155.536      183.863        0.056        0.037       12.761        8.377        0.431      340.119       13.919      867.406
05/15/2014  03:19:00        4.249       -4.234       16.994       11.328        9.743        9.003      128.333       94.917       81.053        0.031        0.015        5.998        6.329        1.113      340.143       13.959      867.399
05/15/2014  03:20:00        6.816        1.454       15.047       11.903       11.536        8.078      141.685      133.071       65.248        0.031        0.017        6.970        2.299        0.109      339.990       13.703      867.393
05/15/2014  03:21:00      -13.433       -9.466       -4.735       15.117        7.098        8.288      228.525       50.379       68.692        0.032        0.017       16.433       10.068        0.375      340.292       14.213      867.389
05/15/2014  03:22:00      -17.400      -14.496       -2.262        8.198       11.053        7.085       67.214      122.163       50.194        0.038        0.012       22.647        3.603        0.025      340.431       14.446      867.391
05/15/2014  03:23:00      -61.870      -20.391       -4.639       18.809       12.047        8.172      353.794      145.135       66.786        0.242        0.028       65.144        6.385        0.010      340.265       14.165      867.399
05/15/2014  03:24:00     -130.386       -4.668      -12.507       27.828       21.030       16.435      774.409      442.246      270.104        0.933        0.074      130.469        7.214        0.003      340.080       13.854      867.397
05/15/2014  03:25:00     -108.332        9.153       -1.597       63.272       32.936       27.868     4003.368     1084.796      776.612        0.884        0.293      108.718       34.424        0.100      339.998       13.716      867.395
05/15/2014  03:26:00      -98.299        8.712       -6.339       28.944       27.120       17.698      837.775      735.517      313.210        0.583        0.094       98.684       12.193        0.015      340.237       14.121      867.385
05/15/2014  03:27:00      -79.320      -29.247      -10.731        7.267        9.199        7.054       52.815       84.619       49.764        0.372        0.009       84.541        3.710        0.002      340.523       14.599      867.379
05/15/2014  03:28:00      -97.252      -55.406       -6.338       10.654       14.463        8.103      113.511      209.182       65.665        0.648        0.019      111.927        4.321        0.001      340.458       14.492      867.372
05/15/2014  03:29:00      -92.025      -33.684       -2.258       10.035       19.663        8.357      100.709      386.645       69.841        0.508        0.028       97.995        5.507        0.003      340.385       14.369      867.379
05/15/2014  03:30:00     -102.416      -21.083       -8.172       13.671        9.833        6.485      186.888       96.684       42.052        0.566        0.016      104.563        4.465        0.002      340.285       14.199      867.382
05/15/2014  03:31:00     -136.459      -39.641       -8.158       25.712       25.060       13.737      661.115      627.992      188.715        1.087        0.074      142.100        9.574        0.005      340.191       14.042      867.393
05/15/2014  03:32:00     -107.798      -46.432       -1.759       35.609       32.567       18.803     1268.018     1060.639      353.557        0.823        0.134      117.372       18.202        0.024      339.930       13.601      867.400
05/15/2014  03:33:00      -62.966      -26.188        1.892       29.692       18.195       13.233      881.630      331.048      175.112        0.302        0.069       68.195       14.506        0.045      340.038       13.783      867.400
05/15/2014  03:34:00      -70.736      -53.114       -2.395       13.955       11.459        6.956      194.739      131.308       48.386        0.410        0.019       88.457        5.436        0.004      340.368       14.340      867.394
05/15/2014  03:35:00      -83.664      -60.892       -8.548       24.149       16.886       12.954      583.157      285.131      167.807        0.591        0.052      103.477        8.220        0.006      340.375       14.352      867.398
05/15/2014  03:36:00     -109.105      -59.589      -10.029       25.171       20.462       16.869      633.595      418.681      284.549        0.845        0.067      124.317       12.467        0.010      340.235       14.114      867.399
05/15/2014  03:37:00     -114.392      -36.254       -7.711       16.636       19.802       10.067      276.742      392.127      101.338        0.761        0.039      120.000        9.616        0.006      340.153       13.975      867.410
05/15/2014  03:38:00     -140.270      -40.834       -9.169       15.693       21.459       11.454      246.262      460.506      131.205        1.113        0.042      146.093        6.129        0.002      340.160       13.988      867.420
05/15/2014  03:39:00     -130.531      -64.749       -5.583       28.158       20.994       15.435      792.865      440.751      238.241        1.137        0.074      145.708       13.892        0.009      340.097       13.882      867.430
05/15/2014  03:40:00      -52.640      -40.434        2.426       41.089       39.674       22.073     1688.288     1574.035      487.228        0.408        0.187       66.377       18.830        0.080      340.069       13.835      867.435
05/15/2014  03:41:00      -77.972      -56.655       -0.909       41.703       27.705       22.292     1739.149      767.560      496.945        0.615        0.150       96.382       16.795        0.030      340.129       13.936      867.430
05/15/2014  03:42:00      -97.187      -50.175        3.336       30.241       30.929       20.614      914.525      956.600      424.930        0.713        0.115      109.375       15.003        0.019      340.092       13.874      867.431
05/15/2014  03:43:00      -82.852      -66.979       -0.160       34.875       30.018       20.770     1216.243      901.072      431.389        0.695        0.127      106.539       16.782        0.025      340.162       13.993      867.433
05/15/2014  03:44:00      -86.342      -66.883        0.844       57.171       38.969       28.900     3268.542     1518.575      835.230        0.877        0.281      109.217       30.964        0.080      340.148       13.969      867.444
05/15/2014  03:45:00     -125.746      -70.123        0.763       36.437       31.576       22.034     1327.666      997.056      485.488        1.177        0.141      143.976       11.974        0.007      340.072       13.840      867.448
05/15/2014  03:46:00     -100.845      -31.685       -4.066       28.739       29.926       16.871      825.943      895.556      284.628        0.660        0.100      105.706       12.154        0.013      339.983       13.692      867.458
05/15/2014  03:47:00     -106.813      -41.647        4.501       25.069       21.105       16.567      628.475      445.413      274.455        0.726        0.067      114.644       11.997        0.011      339.974       13.675      867.461
05/15/2014  03:48:00      -75.159      -67.401        1.722       27.229       25.874       17.080      741.416      669.488      291.721        0.595        0.085      100.955       14.488        0.021      340.098       13.884      867.458
05/15/2014  03:49:00      -68.157      -52.020       -1.974       35.395       31.259       22.411     1252.828      977.141      502.254        0.504        0.137       85.741       17.820        0.043      340.040       13.786      867.453
05/15/2014  03:50:00      -80.948      -55.720        2.974       56.533       43.224       22.169     3195.977     1868.345      491.484        0.761        0.278       98.272       25.205        0.066      339.979       13.683      867.449
05/15/2014  03:51:00      -62.320      -31.410        6.605       44.874       31.039       21.723     2013.660      963.440      471.904        0.418        0.172       69.788       20.443        0.086      339.940       13.617      867.446
05/15/2014  03:52:00     -108.340      -72.828       -0.779       38.027       27.811       19.744     1446.052      773.442      389.826        0.983        0.130      130.543       14.167        0.012      340.139       13.953      867.434
05/15/2014  03:53:00      -98.334      -61.077        3.653       47.294       33.708       23.632     2236.679     1136.260      558.486        0.867        0.197      115.759       22.757        0.039      340.113       13.910      867.427
05/15/2014  03:54:00     -117.079      -55.309       -0.985       31.761       29.327       17.512     1008.752      860.044      306.674        0.947        0.109      129.485       13.825        0.011      339.998       13.716      867.429
05/15/2014  03:55:00     -146.487      -24.294       -8.285       25.031       22.958       15.179      626.559      527.075      230.411        1.175        0.069      148.488       11.732        0.006      339.927       13.597      867.439
05/15/2014  03:56:00     -133.434      -34.814       -0.506       38.606       29.456       18.274     1490.440      867.643      333.924        1.085        0.135      137.901       17.605        0.016      340.007       13.732      867.445
05/15/2014  03:57:00     -120.478       -1.409       -1.550       53.926       30.884       24.577     2908.053      953.829      604.010        0.949        0.223      120.487       28.303        0.055      339.856       13.475      867.449
05/15/2014  03:58:00     -103.582       -7.892        4.000       44.414       36.112       24.605     1972.583     1304.049      605.425        0.734        0.194      103.883       26.295        0.064      339.858       13.480      867.461
05/15/2014  03:59:00     -120.053      -17.301       -1.640       46.215       26.497       21.833     2135.831      702.093      476.676        0.901        0.166      121.293       23.127        0.036      339.812       13.402      867.471
05/15/2014  04:00:00     -139.071        2.073       -9.454       40.691       23.947       20.710     1655.720      573.454      428.911        1.105        0.133      139.086       21.118        0.023      339.718       13.244      867.483
05/15/2014  04:01:00     -147.588      -44.934       -4.245       23.961       24.741       16.483      574.110      612.132      271.676        1.264        0.073      154.276        9.752        0.004      339.823       13.421      867.480
05/15/2014  04:02:00     -137.099      -40.129       -2.455       33.395       37.182       18.908     1115.251     1382.521      357.497        1.163        0.143      142.851       14.154        0.010      339.905       13.559      867.476
05/15/2014  04:03:00     -106.599      -57.340        7.772       41.035       30.516       20.466     1683.847      931.215      418.844        0.887        0.152      121.042       21.863        0.033      339.931       13.603      867.485
05/15/2014  04:04:00      -95.090      -41.605        5.651       43.224       31.037       24.551     1868.346      963.302      602.761        0.712        0.172      103.793       23.297        0.050      339.822       13.419      867.471
05/15/2014  04:05:00     -128.796      -46.586       -1.698       31.467       18.298       13.741      990.168      334.800      188.814        1.014        0.076      136.962       14.732        0.012      339.797       13.378      867.455
05/15/2014  04:06:00     -150.885      -56.278       -1.352       25.003       21.204       16.928      625.144      449.597      286.545        1.365        0.068      161.039       15.644        0.009      339.827       13.427      867.450
05/15/2014  04:07:00     -140.620      -59.300        2.571       34.379       28.676       19.666     1181.928      822.295      386.765        1.284        0.120      152.612       18.025        0.014      339.880       13.516      867.449
05/15/2014  04:08:00      -96.520      -61.434        7.094       46.103       31.582       20.338     2125.489      997.422      413.625        0.834        0.177      114.412       20.395        0.032      339.878       13.513      867.441
05/15/2014  04:09:00      -60.334      -34.966        7.243       49.656       33.585       20.869     2465.721     1127.942      435.533        0.447        0.201       69.733       20.052        0.083      339.860       13.485      867.437
05/15/2014  04:10:00     -118.032      -31.636       -2.823       36.862       32.629       15.002     1358.774     1064.634      225.056        0.879        0.132      122.199        9.116        0.006      339.781       13.351      867.445
05/15/2014  04:11:00     -129.130       -7.633       -5.492       35.032       25.196       19.050     1227.273      634.840      362.897        0.949        0.111      129.355       18.005        0.019      339.668       13.158      867.445
05/15/2014  04:12:00     -139.444      -29.474       -4.884       34.652       23.405       17.868     1200.729      547.800      319.262        1.120        0.103      142.525       15.930        0.012      339.582       13.015      867.438
05/15/2014  04:13:00     -166.457      -42.010      -11.376       27.474       22.648       16.877      754.822      512.953      284.840        1.558        0.078      171.676       15.290        0.008      339.458       12.805      867.451
05/15/2014  04:14:00     -139.422      -32.544       -9.443       28.497       27.654       16.807      812.061      764.740      282.472        1.122        0.093      143.169       14.926        0.011      339.371       12.659      867.454
05/15/2014  04:15:00     -107.768      -52.745      -16.719       21.941       24.455       15.266      481.409      598.038      233.052        0.799        0.066      119.983       12.637        0.011      339.411       12.725      867.435
05/15/2014  04:16:00      -96.689      -62.492       -5.319       46.075       28.089       22.266     2122.911      788.999      495.754        0.834        0.170      115.127       24.490        0.045      339.368       12.653      867.427
05/15/2014  04:17:00     -110.397      -33.804       -1.239       49.480       44.439       23.281     2448.262     1974.800      541.996        0.915        0.248      115.457       22.804        0.039      339.464       12.815      867.430
05/15/2014  04:18:00     -140.897        3.155      -13.164       43.055       31.889       28.512     1853.710     1016.892      812.934        1.186        0.184      140.933       27.676        0.039      339.635       13.104      867.433
05/15/2014  04:19:00     -109.212      -34.328       -2.401       40.617       44.216       22.510     1649.701     1955.075      506.688        0.861        0.206      114.480       23.011        0.040      339.498       12.871      867.432
05/15/2014  04:20:00     -118.390      -22.246       -7.153       30.179       27.470       18.277      910.751      754.620      334.038        0.828        0.100      120.462       15.803        0.017      339.501       12.877      867.424
05/15/2014  04:21:00     -109.697      -12.908       -9.837       40.287       21.326       19.420     1623.012      454.792      377.133        0.738        0.123      110.454       21.985        0.040      339.373       12.661      867.424
05/15/2014  04:22:00     -120.804      -23.463      -10.489       26.557       17.231       14.380      705.259      296.900      206.784        0.823        0.060      123.062       10.006        0.007      339.325       12.581      867.410
05/15/2014  04:23:00     -139.127      -30.621      -16.559       12.744       16.340       11.547      162.416      266.997      133.326        1.057        0.028      142.457       10.428        0.005      339.345       12.615      867.398
05/15/2014  04:24:00     -123.013      -48.860       -6.903       36.004       29.780       15.972     1296.263      886.850      255.096        1.000        0.122      132.361       20.496        0.024      339.263       12.476      867.395
05/15/2014  04:25:00     -120.494      -36.640      -11.197       33.147       28.954       17.501     1098.734      838.342      306.276        0.911        0.112      125.942       18.663        0.022      339.356       12.633      867.395
05/15/2014  04:26:00      -93.905      -45.549      -14.414       51.696       39.678       29.016     2672.442     1574.375      841.904        0.809        0.254      104.369       27.913        0.072      339.293       12.527      867.403
05/15/2014  04:27:00     -103.819      -59.087       -3.949       42.262       32.977       23.771     1786.115     1087.501      565.050        0.886        0.172      119.456       20.217        0.029      339.294       12.530      867.409
05/15/2014  04:28:00     -130.577      -78.456       -1.781       39.183       32.193       23.063     1535.291     1036.383      531.919        1.316        0.155      152.334       22.798        0.022      339.425       12.749      867.404
05/15/2014  04:29:00     -124.131      -63.902       -0.846       25.115       27.179       12.807      630.772      738.722      164.032        1.051        0.077      139.614        9.792        0.005      339.396       12.701      867.398
05/15/2014  04:30:00     -114.754      -32.796       -8.407       28.944       29.581       18.950      837.760      875.025      359.103        0.819        0.104      119.349       15.121        0.016      339.365       12.648      867.403
05/15/2014  04:31:00      -64.273      -57.849        7.670       59.656       28.874       21.587     3558.817      833.698      466.000        0.620        0.243       86.473       24.848        0.083      339.412       12.727      867.393
05/15/2014  04:32:00      -95.970      -60.998       -1.145       51.068       29.093       20.632     2607.926      846.410      425.678        0.841        0.194      113.714       19.756        0.030      339.426       12.751      867.388
05/15/2014  04:33:00     -125.554      -31.385      -15.768       17.744       24.997       13.020      314.851      624.842      169.517        0.905        0.055      129.417        9.205        0.005      339.395       12.698      867.380
05/15/2014  04:34:00     -123.260      -25.395       -8.731       21.088       19.806       13.548      444.711      392.267      183.562        0.847        0.051      125.849        8.427        0.004      339.421       12.742      867.386
05/15/2014  04:35:00      -70.180      -52.476        5.205       39.020       26.605       21.250     1522.589      707.845      451.548        0.519        0.134       87.629       21.966        0.063      339.444       12.781      867.379
05/15/2014  04:36:00      -41.164      -48.182        9.196       49.129       40.538       23.626     2413.637     1643.312      558.204        0.436        0.231       63.372       25.468        0.162      339.535       12.934      867.375
05/15/2014  04:37:00      -70.397      -82.218        8.056       53.607       40.157       31.365     2873.716     1612.596      983.785        0.862        0.274      108.238       32.118        0.088      339.512       12.895      867.379
05/15/2014  04:38:00     -122.777     -104.668       -6.741       26.386       37.608       21.200      696.228     1414.354      449.420        1.432        0.128      161.337       20.110        0.016      339.481       12.844      867.387
05/15/2014  04:39:00      -98.773      -93.185        0.906       42.558       32.186       24.598     1811.213     1035.912      605.063        1.095        0.173      135.792       24.586        0.033      339.456       12.800      867.393
05/15/2014  04:40:00     -127.233      -65.665       -5.639       27.662       24.293       18.152      765.180      590.146      329.477        1.111        0.084      143.179       11.935        0.007      339.445       12.782      867.391
05/15/2014  04:41:00     -135.031      -50.678        0.256       34.355       27.626       20.899     1180.264      763.191      436.751        1.159        0.119      144.228       16.846        0.014      339.384       12.679      867.397
05/15/2014  04:42:00      -96.686      -30.799        6.727       45.732       33.900       25.188     2091.448     1149.235      634.411        0.711        0.194      101.473       27.637        0.074      339.312       12.558      867.395
05/15/2014  04:43:00     -109.463      -49.454       -9.530       45.144       28.700       28.472     2038.009      823.698      810.630        0.909        0.184      120.116       27.067        0.051      339.337       12.602      867.394
05/15/2014  04:44:00      -84.956      -71.956        3.270       37.459       31.682       20.639     1403.152     1003.718      425.978        0.762        0.142      111.333       20.552        0.034      339.397       12.703      867.389
05/15/2014  04:45:00      -70.073      -88.965       -5.971       35.858       21.958       14.338     1285.764      482.141      205.586        0.742        0.099      113.247       16.197        0.020      339.391       12.693      867.373
05/15/2014  04:46:00      -37.686      -41.314       12.983       24.897       27.024       17.977      619.844      730.272      323.173        0.248        0.084       55.921       15.679        0.079      339.368       12.653      867.373
05/15/2014  04:47:00      -63.679      -84.116       -1.757       31.889       31.394       18.852     1016.907      985.595      355.384        0.675        0.118      105.501       19.934        0.036      339.347       12.619      867.369
05/15/2014  04:48:00      -48.881      -73.422       -2.955       25.652       21.816       14.613      658.000      475.954      213.533        0.457        0.067       88.205       13.413        0.023      339.389       12.690      867.363
05/15/2014  04:49:00      -30.294      -13.917        4.119       30.243       23.629       12.784      914.616      558.317      163.443        0.138        0.082       33.338       12.255        0.135      339.350       12.622      867.358
05/15/2014  04:50:00      -46.964      -38.466       -1.654       38.120       29.550       16.091     1453.122      873.231      258.929        0.314        0.129       60.707       10.749        0.031      339.348       12.620      867.368
05/15/2014  04:51:00      -58.848      -69.973        9.229       53.425       48.278       30.136     2854.217     2330.788      908.192        0.727        0.305       91.429       30.362        0.110      339.327       12.583      867.368
05/15/2014  04:52:00     -140.327     -124.224      -15.038       79.496       58.946       29.180     6319.654     3474.659      851.456        2.300        0.532      187.412       38.774        0.043      339.324       12.576      867.366
05/15/2014  04:53:00     -127.240      -97.310       -5.765       45.663       53.912       27.861     2085.127     2906.454      776.241        1.573        0.288      160.185       25.615        0.026      339.310       12.553      867.370
05/15/2014  04:54:00     -137.162      -47.283        4.389       69.444       46.911       34.539     4822.438     2200.677     1192.962        1.464        0.411      145.083       39.069        0.073      339.205       12.377      867.371
05/15/2014  04:55:00      -70.178      -33.991        9.552       50.400       34.098       20.021     2540.166     1162.701      400.852        0.514        0.205       77.977       23.024        0.087      339.149       12.284      867.358
05/15/2014  04:56:00      -86.602      -69.512        5.216       54.878       42.879       23.534     3011.587     1838.625      553.861        0.888        0.270      111.049       23.269        0.044      339.154       12.295      867.357
05/15/2014  04:57:00      -54.758      -56.998        6.086       41.292       33.278       22.659     1705.042     1107.454      513.424        0.480        0.166       79.040       23.532        0.089      339.112       12.222      867.359
05/15/2014  04:58:00     -118.619      -66.835        0.478       55.753       47.567       29.536     3108.343     2262.576      872.393        1.239        0.312      136.152       26.366        0.037      339.097       12.196      867.352
05/15/2014  04:59:00     -109.973      -64.910       10.147       57.307       40.219       32.502     3284.081     1617.597     1056.402        1.118        0.298      127.701       35.919        0.079      339.034       12.091      867.352
05/15/2014  05:00:00     -145.735     -107.704        2.482       56.149       47.785       38.551     3152.722     2283.414     1486.181        1.988        0.346      181.215       34.619        0.036      339.055       12.126      867.351
05/15/2014  05:01:00     -139.061      -71.875        4.727       80.110       46.766       36.602     6417.664     2187.054     1339.690        1.723        0.497      156.538       40.219        0.066      339.031       12.086      867.334
05/15/2014  05:02:00     -148.110      -88.717       -2.215       67.543       45.498       29.959     4562.124     2070.037      897.548        1.867        0.376      172.648       32.678        0.036      339.021       12.069      867.327
05/15/2014  05:03:00     -160.309      -91.624       -0.056       69.095       69.977       41.204     4774.160     4896.845     1697.798        2.273        0.568      184.646       40.226        0.047      339.021       12.067      867.333
05/15/2014  05:04:00     -159.163      -71.720        0.086       73.465       56.164       36.829     5397.070     3154.384     1356.405        2.019        0.495      174.576       40.556        0.054      339.026       12.075      867.324
05/15/2014  05:05:00     -127.080      -85.000        5.397       64.701       44.915       28.951     4186.156     2017.357      838.157        1.522        0.352      152.887       32.578        0.045      339.022       12.071      867.324
05/15/2014  05:06:00     -122.033      -88.748       -4.267       50.101       68.659       31.321     2510.127     4714.044      981.035        1.549        0.410      150.892       34.398        0.052      339.047       12.112      867.326
05/15/2014  05:07:00     -123.880      -74.750        7.753       62.416       47.732       35.172     3895.785     2278.384     1237.054        1.420        0.371      144.685       32.988        0.052      339.044       12.108      867.322
05/15/2014  05:08:00     -123.125      -48.839        6.231       84.340       43.877       33.793     7113.286     1925.218     1141.984        1.388        0.509      132.458       44.800        0.114      338.988       12.013      867.325
05/15/2014  05:09:00      -96.622      -46.222        4.428       52.830       58.566       28.936     2790.983     3429.982      837.273        0.927        0.353      107.108       31.971        0.089      339.008       12.048      867.323
05/15/2014  05:10:00     -131.114      -27.502       -9.536       56.529       38.499       31.005     3195.558     1482.163      961.288        1.184        0.282      133.968       30.781        0.053      339.023       12.073      867.324
05/15/2014  05:11:00     -118.378      -44.576       -4.520       42.827       27.411       26.020     1834.126      751.387      677.064        0.964        0.163      126.493       19.105        0.023      339.026       12.077      867.329
05/15/2014  05:12:00     -130.130      -50.858      -13.330       38.871       36.781       26.777     1510.931     1352.835      717.026        1.164        0.179      139.715       20.152        0.021      339.060       12.135      867.317
05/15/2014  05:13:00      -88.351      -36.824        2.112       49.721       41.769       27.236     2472.146     1744.649      741.790        0.706        0.248       95.718       24.687        0.067      339.000       12.034      867.325
05/15/2014  05:14:00     -117.909      -37.778       -0.172       45.945       44.306       27.163     2110.970     1963.016      737.850        1.007        0.241      123.814       24.012        0.038      338.933       11.922      867.321
05/15/2014  05:15:00     -130.348      -53.451       -3.994       48.707       43.206       24.866     2372.380     1866.784      618.322        1.236        0.243      140.882       24.797        0.031      338.950       11.950      867.322
05/15/2014  05:16:00     -151.754      -53.612      -10.669       32.700       41.398       20.689     1069.302     1713.755      428.022        1.461        0.161      160.946       16.236        0.010      338.885       11.840      867.322
05/15/2014  05:17:00     -136.625      -65.765       -6.239       34.777       42.364       21.573     1209.418     1794.688      465.377        1.325        0.173      151.629       18.210        0.014      338.985       12.007      867.311
05/15/2014  05:18:00     -140.434      -37.807       -5.692       25.895       32.030       17.252      670.540     1025.929      297.645        1.159        0.100      145.434       13.463        0.009      338.890       11.849      867.297
05/15/2014  05:19:00     -145.850      -70.905      -10.376       26.163       33.790       23.071      684.526     1141.774      532.257        1.438        0.118      162.172       12.007        0.005      338.959       11.966      867.286
05/15/2014  05:20:00     -104.150      -54.118        5.436       50.513       36.952       21.296     2551.581     1365.446      453.499        0.909        0.219      117.371       22.491        0.037      338.940       11.932      867.280
05/15/2014  05:21:00     -113.557      -25.524        7.381       45.430       31.419       22.969     2063.849      987.145      527.596        0.859        0.179      116.391       27.093        0.054      338.948       11.946      867.282
05/15/2014  05:22:00      -42.343      -36.895       19.883       60.296       29.712       23.129     3635.658      882.807      534.963        0.430        0.253       56.162       30.347        0.292      338.920       11.900      867.282
05/15/2014  05:23:00      -63.244      -77.483        0.474       57.484       53.081       20.090     3304.446     2817.627      403.620        0.826        0.326      100.017       16.076        0.026      338.987       12.012      867.297
05/15/2014  05:24:00      -75.890      -32.108       -0.117       27.411       26.358       15.988      751.383      694.736      255.626        0.425        0.085       82.403       16.711        0.041      338.897       11.861      867.307
05/15/2014  05:25:00      -63.044      -25.646       -6.563       31.799       19.090       14.126     1011.205      364.422      199.534        0.312        0.079       68.061        8.355        0.015      338.872       11.818      867.314
05/15/2014  05:26:00      -53.642      -27.311        1.867       27.191       22.427       17.136      739.368      502.963      293.645        0.258        0.077       60.194       15.828        0.069      338.926       11.910      867.324
05/15/2014  05:27:00      -61.779      -20.113       -1.337       26.786       23.567       17.030      717.463      555.421      290.018        0.289        0.078       64.970       11.844        0.033      338.948       11.947      867.329
05/15/2014  05:28:00      -40.007      -19.617       10.598       33.845       19.991       14.621     1145.501      399.641      213.779        0.193        0.088       44.558       15.775        0.125      338.894       11.854      867.332
05/15/2014  05:29:00      -86.199      -53.439        1.827       30.417       38.513       18.820      925.183     1483.288      354.176        0.653        0.138      101.420        9.559        0.009      338.940       11.933      867.350
05/15/2014  05:30:00      -83.346      -56.695       -0.940       31.512       18.792       16.608      993.034      353.134      275.823        0.589        0.081      100.801       10.584        0.011      338.977       11.997      867.360
05/15/2014  05:31:00      -87.963      -42.115       -7.807       43.137       24.668       16.820     1860.768      608.502      282.904        0.616        0.138       97.525       18.863        0.037      338.981       12.002      867.362
05/15/2014  05:32:00      -80.756      -38.868        3.222       40.661       18.617       18.788     1653.357      346.610      353.002        0.520        0.118       89.623       19.406        0.047      338.955       11.959      867.375
05/15/2014  05:33:00      -67.845      -49.141       -2.228       22.633       26.060       12.276      512.248      679.106      150.707        0.418        0.067       83.772       11.006        0.017      338.992       12.020      867.381
05/15/2014  05:34:00      -64.484      -38.214       -0.710       25.392       19.231       17.054      644.771      369.843      290.824        0.346        0.065       74.957       13.723        0.034      338.999       12.031      867.377
05/15/2014  05:35:00      -82.943        5.803       -6.048       18.777       14.351       10.771      352.576      205.959      116.010        0.381        0.034       83.146        7.790        0.009      338.949       11.949      867.368
05/15/2014  05:36:00      -77.440      -27.245       -1.046       23.131       25.334       17.731      535.033      641.823      314.382        0.412        0.075       82.093       13.640        0.028      338.835       11.757      867.360
05/15/2014  05:37:00      -70.481      -17.142        4.834       39.255       23.221       16.270     1540.918      539.194      264.725        0.381        0.117       72.536       17.845        0.061      338.836       11.758      867.364
05/15/2014  05:38:00      -89.595      -16.945       -6.071       21.596       15.444       11.720      466.374      238.523      137.351        0.460        0.042       91.183        9.938        0.012      338.873       11.820      867.360
05/15/2014  05:39:00      -64.135      -11.659       -0.357       30.895       18.547       18.105      954.500      343.993      327.788        0.294        0.081       65.186       19.403        0.089      338.808       11.712      867.352
05/15/2014  05:40:00      -72.492      -16.661        3.495       44.919       19.878       17.419     2017.704      395.135      303.416        0.413        0.136       74.382       22.399        0.091      338.786       11.673      867.368
05/15/2014  05:41:00     -102.861      -26.172       -5.294       25.521       23.765       13.333      651.301      564.797      177.762        0.634        0.070      106.138       11.968        0.013      338.772       11.652      867.387
05/15/2014  05:42:00      -77.344      -16.017        5.291       32.790       29.081       19.664     1075.165      845.718      386.675        0.429        0.115       78.985       19.345        0.060      338.665       11.470      867.392
05/15/2014  05:43:00      -99.204       -0.086       -1.983       39.596       21.765       17.325     1567.857      473.719      300.164        0.609        0.117       99.204       14.871        0.022      338.662       11.465      867.393
05/15/2014  05:44:00      -70.263      -14.713        4.302       27.989       25.781       16.588      783.373      664.648      275.177        0.345        0.086       71.787       17.058        0.056      338.720       11.564      867.408
05/15/2014  05:45:00      -79.642      -14.945        5.092       30.777       24.642       17.331      947.193      607.220      300.354        0.422        0.093       81.033       17.990        0.049      338.671       11.480      867.416
05/15/2014  05:46:00     -112.268       -8.789       -5.342       46.934       28.015       20.810     2202.840      784.850      433.057        0.806        0.171      112.611       22.778        0.041      338.734       11.587      867.419
05/15/2014  05:47:00      -59.585      -17.181        5.640       37.650       34.244       15.837     1417.505     1172.643      250.800        0.336        0.142       62.012       18.826        0.092      338.652       11.450      867.420
05/15/2014  05:48:00      -51.408      -10.444        3.468       32.537       25.559       16.949     1058.633      653.287      287.259        0.238        0.100       52.459       15.176        0.084      338.663       11.468      867.433
05/15/2014  05:49:00      -76.162      -28.754       -1.086       23.641       19.336       12.568      558.898      373.875      157.955        0.386        0.055       81.409       11.247        0.019      338.720       11.563      867.444
05/15/2014  05:50:00      -79.471       -6.224       -1.311       30.115       21.289       15.233      906.899      453.238      232.044        0.397        0.080       79.715       13.146        0.027      338.684       11.502      867.452
05/15/2014  05:51:00      -91.829       -6.165       -5.152       38.855       16.076       14.169     1509.677      258.449      200.750        0.523        0.098       92.036       19.155        0.043      338.676       11.489      867.446
05/15/2014  05:52:00      -66.232      -15.271       -0.703       31.530       16.492       16.126      994.160      271.987      260.057        0.307        0.076       67.970       17.346        0.065      338.642       11.432      867.443
05/15/2014  05:53:00      -75.629      -21.401        0.379       25.204       23.704       12.835      635.222      561.864      164.749        0.377        0.068       78.599       12.168        0.024      338.672       11.483      867.452
05/15/2014  05:54:00      -85.781      -14.887       -3.216       30.163       23.278       16.452      909.818      541.886      270.665        0.466        0.086       87.064       16.254        0.035      338.704       11.537      867.460
05/15/2014  05:55:00      -79.981      -16.988       -1.249       18.745       16.371       11.314      351.379      267.993      128.005        0.372        0.037       81.765        7.903        0.009      338.718       11.560      867.464
05/15/2014  05:56:00      -71.422      -19.825       -0.897       26.573       20.193       13.086      706.147      407.759      171.245        0.339        0.064       74.122       12.240        0.027      338.679       11.493      867.469
05/15/2014  05:57:00     -105.153      -26.069       -5.203       24.528       17.301       14.576      601.603      299.335      212.452        0.644        0.056      108.336       14.149        0.017      338.635       11.420      867.485
05/15/2014  05:58:00     -114.843      -31.275      -10.822       18.048       15.133       10.522      325.720      229.003      110.716        0.747        0.033      119.025        8.182        0.005      338.650       11.446      867.501
05/15/2014  05:59:00     -117.482      -13.923       -2.974       24.872       16.514       16.205      618.593      272.726      262.603        0.758        0.058      118.304       11.192        0.009      338.621       11.396      867.512
05/15/2014  06:00:00     -107.054       -5.705       -5.042       29.517       15.509       15.947      871.282      240.531      254.304        0.644        0.068      107.206       14.405        0.018      338.518       11.223      867.531
05/15/2014  06:01:00     -129.646        3.217      -12.829       12.840       11.881       10.897      164.875      141.157      118.752        0.870        0.021      129.686        4.971        0.001      338.469       11.142      867.548
05/15/2014  06:02:00     -124.601      -20.487      -14.208       17.147       16.357       13.025      294.029      267.558      169.656        0.844        0.037      126.274       10.779        0.007      338.495       11.185      867.563
05/15/2014  06:03:00     -102.910      -25.077       -2.313       20.050       16.655        9.298      401.998      277.406       86.449        0.600        0.038      105.921        8.279        0.006      338.540       11.259      867.574
05/15/2014  06:04:00     -100.375      -27.488       -4.429       15.942       16.131       10.118      254.142      260.195      102.374        0.573        0.031      104.071        7.316        0.005      338.633       11.419      867.589
05/15/2014  06:05:00      -89.172      -24.964       -1.023       18.703       18.036       12.295      349.793      325.315      151.165        0.470        0.041       92.601       10.625        0.013      338.699       11.528      867.595
05/15/2014  06:06:00      -68.404      -17.071        6.847       27.361       19.342       13.551      748.629      374.128      183.629        0.316        0.065       70.502       12.572        0.032      338.683       11.501      867.603
05/15/2014  06:07:00      -68.909      -29.123        1.596       18.354       19.229       12.161      336.851      369.741      147.883        0.323        0.043       74.810        9.411        0.016      338.674       11.487      867.613
05/15/2014  06:08:00      -62.680      -11.874        0.948       21.204       15.135       13.479      449.612      229.071      181.680        0.247        0.043       63.795       10.000        0.025      338.650       11.444      867.616
05/15/2014  06:09:00      -65.793       -4.192       -3.644       33.145       15.483       13.395     1098.583      239.732      179.425        0.294        0.076       65.927       13.587        0.042      338.567       11.306      867.627
05/15/2014  06:10:00      -56.853       -0.630       -2.400       27.116       12.492       12.683      735.272      156.059      160.859        0.215        0.053       56.857       12.570        0.049      338.488       11.173      867.642
05/15/2014  06:11:00      -21.940       -6.036        2.581       11.797        8.431        7.982      139.178       71.080       63.706        0.040        0.014       22.755        6.687        0.086      338.480       11.161      867.658
05/15/2014  06:12:00      -41.971      -14.951       -3.074        9.255        7.757        7.738       85.646       60.174       59.883        0.110        0.010       44.555        6.115        0.019      338.581       11.328      867.677
05/15/2014  06:13:00      -74.339        1.238       -7.312       29.957        8.760       11.178      897.426       76.731      124.942        0.334        0.055       74.350       12.047        0.026      338.497       11.189      867.696
05/15/2014  06:14:00      -71.555      -25.523       -9.506       14.276       20.751       10.364      203.810      430.618      107.421        0.330        0.037       75.971        9.527        0.016      338.486       11.171      867.719
05/15/2014  06:15:00      -46.439      -28.941       -8.942       15.381       13.425        9.267      236.577      180.239       85.882        0.179        0.025       54.719        6.529        0.014      338.435       11.084      867.734
05/15/2014  06:16:00      -25.114      -16.751        1.541       14.878       15.214       14.716      221.354      231.461      216.568        0.079        0.033       30.188       10.908        0.131      338.565       11.302      867.740
05/15/2014  06:17:00      -71.901       -3.475       -5.436       17.037       15.703       10.024      290.262      246.586      100.484        0.292        0.032       71.985        8.943        0.015      338.515       11.218      867.741
05/15/2014  06:18:00      -63.001      -15.273       -6.631       16.214       10.931        8.677      262.904      119.496       75.294        0.235        0.023       64.826        6.476        0.010      338.549       11.276      867.732
05/15/2014  06:19:00      -39.451      -24.474       -8.041       17.690        8.756        6.801      312.930       76.670       46.259        0.133        0.022       46.426        4.990        0.012      338.596       11.356      867.729
05/15/2014  06:20:00      -16.490       -9.953        4.675       13.551       12.064        9.390      183.621      145.551       88.171        0.040        0.021       19.261        9.791        0.258      338.748       11.610      867.739
05/15/2014  06:21:00       -7.045       -1.701       14.438        5.075        7.939        9.131       25.760       63.032       83.375        0.022        0.009        7.248        5.828        0.647      339.015       12.059      867.746
05/15/2014  06:22:00      -17.100       -3.301       -0.323        6.483        6.217        3.788       42.028       38.650       14.348        0.020        0.005       17.416        3.682        0.045      338.802       11.700      867.743
05/15/2014  06:23:00       -9.490        1.395       10.022        6.635        4.925        8.022       44.022       24.255       64.360        0.016        0.007        9.592        4.780        0.248      339.058       12.132      867.750
05/15/2014  06:24:00        2.562        3.196       11.082        8.890        6.094        6.911       79.035       37.131       47.766        0.015        0.008        4.096        4.686        1.309      338.890       11.848      867.759
05/15/2014  06:25:00       19.013       10.845        9.959       11.231        5.390        5.596      126.142       29.048       31.318        0.038        0.009       21.889        2.102        0.009      338.715       11.554      867.747
05/15/2014  06:26:00       49.344       32.416       10.470       13.305       14.700       14.879      177.032      216.085      221.389        0.210        0.031       59.039        7.739        0.017      338.597       11.357      867.745
05/15/2014  06:27:00       39.206       10.886       -1.543       11.847       11.021       15.754      140.340      121.468      248.197        0.108        0.026       40.689        6.865        0.028      338.819       11.729      867.753
05/15/2014  06:28:00       32.031       10.043        3.380        9.478       15.074       11.301       89.826      227.229      127.717        0.079        0.022       33.569        8.477        0.064      338.942       11.935      867.756
05/15/2014  06:29:00       18.494       17.421        9.222       17.050       10.746       13.528      290.701      115.468      182.996        0.066        0.029       25.407       10.826        0.182      339.075       12.159      867.763
05/15/2014  06:30:00       -0.167       -2.429       21.907       11.964       24.478       15.981      143.147      599.161      255.402        0.074        0.050        2.435       14.604       35.979      339.417       12.737      867.779
05/15/2014  06:31:00       -2.070       -0.851       29.673       10.023       16.087        8.748      100.464      258.789       76.519        0.066        0.022        2.238        5.471        5.974      339.580       13.012      867.778
05/15/2014  06:32:00       13.238       14.487       25.895       24.665       15.987       15.553      608.386      255.593      241.885        0.108        0.055       19.624       16.854        0.738      339.269       12.488      867.798
05/15/2014  06:33:00       42.045       -3.727       15.812       15.530       13.728       11.675      241.187      188.453      136.298        0.130        0.028       42.210       10.283        0.059      339.262       12.476      867.801
05/15/2014  06:34:00       36.385      -12.076       18.582       14.050       13.315       16.598      197.394      177.294      275.507        0.123        0.033       38.337       10.058        0.069      339.404       12.714      867.804
05/15/2014  06:35:00       30.676       -8.365       10.369       18.007       15.110       19.641      324.260      228.317      385.754        0.103        0.047       31.796        9.739        0.094      339.403       12.712      867.814
05/15/2014  06:36:00       46.053      -10.674        5.361       15.313       21.872       20.774      234.473      478.383      431.563        0.170        0.057       47.273       16.275        0.119      339.131       12.253      867.828
05/15/2014  06:37:00       62.568      -13.791      -15.447       16.643       22.697       16.633      277.002      515.136      276.650        0.271        0.053       64.070        4.725        0.005      339.207       12.383      867.836
05/15/2014  06:38:00       39.851      -35.603       -5.910       13.523       14.468       14.318      182.871      209.309      205.009        0.174        0.030       53.439        5.820        0.012      339.282       12.507      867.842
05/15/2014  06:39:00       35.738      -41.029       -1.733       21.775       23.155       22.079      474.139      536.175      487.485        0.223        0.075       54.412        4.761        0.008      339.287       12.517      867.854
05/15/2014  06:40:00       35.043      -25.676        6.526       22.267       25.216       27.186      495.815      635.845      739.087        0.190        0.094       43.443       21.869        0.253      339.561       12.980      867.849
05/15/2014  06:41:00        5.297        6.933       28.299       14.619       20.633       12.349      213.727      425.719      152.489        0.083        0.040        8.725        8.124        0.867      339.806       13.392      867.850
05/15/2014  06:42:00        8.497       31.448       31.885       27.002       22.041       12.479      729.095      485.824      155.720        0.172        0.069       32.576       10.556        0.105      339.722       13.251      867.849
05/15/2014  06:43:00        8.887        8.764       19.172       14.171       15.505       13.314      200.816      240.412      177.255        0.057        0.031       12.482        7.715        0.382      339.720       13.248      867.846
05/15/2014  06:44:00        2.595       -3.268       13.698       13.535       21.164       13.935      183.206      447.918      194.190        0.052        0.041        4.173        7.130        2.920      339.713       13.235      867.847
05/15/2014  06:45:00       12.719       13.387       22.962       13.063       25.357        9.594      170.630      642.993       92.047        0.089        0.045       18.465        8.281        0.201      339.779       13.347      867.857
05/15/2014  06:46:00       17.658       -4.296       18.159       22.430       26.869       15.746      503.085      721.948      247.921        0.107        0.074       18.173        7.375        0.165      339.587       13.022      867.870
05/15/2014  06:47:00        2.869        0.544       19.859       14.065       17.344       18.031      197.811      300.813      325.122        0.061        0.041        2.921       10.467       12.843      339.895       13.543      867.885
05/15/2014  06:48:00       24.611       -4.383        6.277       24.575       23.644       15.913      603.954      559.055      253.231        0.104        0.071       24.999       15.143        0.367      339.741       13.281      867.898
05/15/2014  06:49:00       17.490       19.564       17.013       20.796       17.622       12.237      432.463      310.531      149.750        0.094        0.045       26.243        5.206        0.039      339.992       13.707      867.904
05/15/2014  06:50:00       36.132       27.096       15.770       21.805       17.821       16.246      475.465      317.594      263.936        0.167        0.053       45.164        4.379        0.009      339.772       13.335      867.914
05/15/2014  06:51:00       33.912       27.935       20.947       27.141       25.786       20.795      736.657      664.941      432.449        0.210        0.092       43.937       14.975        0.116      339.854       13.472      867.913
05/15/2014  06:52:00       53.102       51.509       24.344       29.174       24.990       25.263      851.109      624.524      638.199        0.409        0.106       73.980       18.958        0.066      339.804       13.389      867.919
05/15/2014  06:53:00        5.637      -18.730       15.832       17.856       21.714       20.084      318.839      471.486      403.375        0.091        0.060       19.560        9.587        0.240      339.761       13.318      867.912
05/15/2014  06:54:00       11.971      -21.662       13.247       21.622       30.135       21.359      467.521      908.095      456.201        0.131        0.092       24.750       20.941        0.716      339.663       13.150      867.902
05/15/2014  06:55:00        4.748      -17.326        7.442       16.741       21.549       18.575      280.276      464.345      345.017        0.073        0.054       17.965        7.021        0.153      339.581       13.013      867.893
05/15/2014  06:56:00       10.703        1.576       23.299       27.492       23.738       13.601      755.801      563.508      184.999        0.108        0.075       10.818        9.209        0.725      339.804       13.387      867.891
05/15/2014  06:57:00       31.962       43.586       -5.290       20.719       15.438       20.672      429.263      238.321      427.334        0.202        0.055       54.050       11.534        0.046      339.610       13.063      867.885
05/15/2014  06:58:00       12.122       15.841       -0.427       13.575       16.414       19.684      184.282      269.419      387.458        0.062        0.042       19.947       11.413        0.327      339.688       13.194      867.898
05/15/2014  06:59:00        9.167       31.736       10.045       11.343       13.847       16.208      128.665      191.750      262.701        0.089        0.029       33.033        5.847        0.031      339.665       13.154      867.901
05/15/2014  07:00:00       -1.415       36.810      -10.749       15.119       12.589       13.672      228.594      158.475      186.931        0.102        0.029       36.837       10.331        0.079      339.542       12.947      867.908
05/15/2014  07:01:00       22.197       23.285       10.418       20.900       14.837       17.554      436.807      220.143      308.148        0.105        0.048       32.170        8.186        0.065      339.763       13.321      867.910
05/15/2014  07:02:00       18.242      -18.859       12.601       25.319       22.700       22.090      641.030      515.272      487.954        0.125        0.082       26.237       10.593        0.163      339.925       13.593      867.918
05/15/2014  07:03:00       36.118      -12.302        4.557       26.078       23.108       29.572      680.045      533.996      874.496        0.178        0.104       38.155       22.079        0.335      339.957       13.647      867.926
05/15/2014  07:04:00       62.426      -18.592        2.159       31.117       26.916       25.923      968.269      724.465      671.994        0.331        0.118       65.136       12.141        0.035      339.699       13.212      867.929
05/15/2014  07:05:00        8.808       -5.815       22.390       17.735       15.979       14.766      314.527      255.338      218.048        0.070        0.039       10.555       12.416        1.384      340.248       14.137      867.938
05/15/2014  07:06:00        7.505      -21.264       -3.136       24.784       18.909       24.489      614.241      357.549      599.720        0.104        0.079       22.550       16.258        0.520      340.244       14.131      867.939
05/15/2014  07:07:00       -3.800        1.244       21.261       21.653       19.760       15.482      468.856      390.447      239.694        0.078        0.055        3.998        8.991        5.058      340.423       14.433      867.943
05/15/2014  07:08:00       15.932        7.152       19.444       23.465       30.251       23.219      550.611      915.150      539.118        0.134        0.100       17.464       19.480        1.244      340.366       14.338      867.946
05/15/2014  07:09:00       25.327       -9.837        9.726       27.294       22.400       28.100      744.942      501.743      789.601        0.143        0.102       27.170       19.582        0.519      340.129       13.937      867.957
05/15/2014  07:10:00       12.438      -14.706       16.986       20.995       23.348       20.381      440.770      545.151      415.392        0.103        0.070       19.261       17.864        0.860      340.086       13.865      867.964
05/15/2014  07:11:00       14.878        9.067        3.614       19.080       15.659       20.189      364.053      245.196      407.578        0.067        0.051       17.423       11.898        0.466      340.087       13.866      867.963
05/15/2014  07:12:00        3.829       12.183       -3.951       18.440       19.752       22.894      340.030      390.148      524.151        0.072        0.063       12.770       15.431        1.460      340.326       14.271      867.981
05/15/2014  07:13:00       32.192       -4.684        8.622       16.013       28.102       19.383      256.403      789.718      375.711        0.128        0.071       32.531       15.345        0.223      340.114       13.911      867.987
05/15/2014  07:14:00        8.083        6.283        1.919       23.561       14.251       17.487      555.144      203.088      305.782        0.059        0.053       10.238       10.743        1.101      340.295       14.217      867.997
05/15/2014  07:15:00      -10.114       11.941       -7.624       21.714       21.196       14.778      471.485      449.277      218.395        0.072        0.057       15.648        8.593        0.302      340.148       13.968      867.998
05/15/2014  07:16:00       -5.541       17.011       19.299       17.985       15.989       21.013      323.467      255.640      441.543        0.086        0.051       17.891       15.302        0.732      340.499       14.563      867.999
05/15/2014  07:17:00       -8.991       29.128        1.103       11.592       13.755       15.028      134.366      189.187      225.840        0.074        0.027       30.484        6.464        0.045      340.203       14.061      868.000
05/15/2014  07:18:00      -19.579        8.677       13.776       12.216       16.206       15.009      149.233      262.623      225.268        0.064        0.032       21.416        9.786        0.209      340.435       14.454      868.002
05/15/2014  07:19:00      -31.322        3.210      -15.098       15.531       13.270       10.212      241.203      176.090      104.277        0.087        0.026       31.486        6.323        0.040      340.224       14.095      868.006
05/15/2014  07:20:00       -5.608      -13.546       -3.531       20.030       18.006       12.475      401.210      324.226      155.633        0.055        0.044       14.661        9.274        0.400      340.349       14.309      868.006
05/15/2014  07:21:00      -19.412      -56.523       -4.703       21.933       25.721       21.362      481.042      661.573      456.347        0.260        0.080       59.763        6.064        0.010      340.220       14.090      868.005
05/15/2014  07:22:00      -15.668      -46.727       -3.296       26.119       21.827       13.376      682.179      476.430      178.920        0.189        0.067       49.283        5.325        0.012      340.285       14.199      868.011
05/15/2014  07:23:00        5.802      -17.527       21.834       16.848       14.405       13.518      283.844      207.490      182.738        0.075        0.034       18.462       10.116        0.300      340.662       14.839      868.014
05/15/2014  07:24:00       22.828      -10.418       30.770       22.161       20.230       13.482      491.101      409.271      181.751        0.133        0.054       25.093       10.669        0.181      340.569       14.680      868.021
05/15/2014  07:25:00       14.070       13.607       15.048       18.833       15.305       22.066      354.694      234.243      486.907        0.084        0.054       19.574       14.032        0.514      340.916       15.267      868.035
05/15/2014  07:26:00       16.420       15.087        7.534       14.344       15.274       24.684      205.750      233.298      609.280        0.080        0.052       22.299       16.785        0.567      340.867       15.185      868.045
05/15/2014  07:27:00       15.114       17.291       13.847       20.254       17.228       14.038      410.230      296.788      197.076        0.081        0.045       22.966        7.041        0.094      340.828       15.118      868.057
05/15/2014  07:28:00       18.665       46.626       13.680       26.467       31.972       22.135      700.485     1022.186      489.938        0.246        0.111       50.223       20.880        0.173      340.691       14.887      868.063
05/15/2014  07:29:00        5.293       47.726       -5.635       23.376       21.493       15.855      546.460      461.931      251.395        0.180        0.063       48.019       10.069        0.044      340.663       14.839      868.056
05/15/2014  07:30:00       23.142       13.887        7.017       22.281       23.710       19.629      496.427      562.145      385.308        0.111        0.072       26.989       12.272        0.207      340.914       15.264      868.067
05/15/2014  07:31:00       20.569       24.935       21.097       28.876       22.734       16.564      833.829      516.813      274.371        0.156        0.081       32.324       13.176        0.166      341.089       15.561      868.066
05/15/2014  07:32:00       50.730       35.315       -2.184       13.494       14.642       19.687      182.101      214.374      387.579        0.230        0.039       61.812        9.475        0.023      340.465       14.504      868.064
05/15/2014  07:33:00       45.110       36.184        7.373       25.016       20.705       15.250      625.814      428.716      232.552        0.234        0.064       57.829       11.783        0.042      340.492       14.551      868.069
05/15/2014  07:34:00       34.848       29.269       11.767       29.291       25.395       21.809      857.987      644.911      475.642        0.209        0.099       45.509       16.604        0.133      340.729       14.950      868.073
05/15/2014  07:35:00        2.228       -9.843       11.454       20.308       22.949       20.234      412.409      526.676      409.418        0.079        0.067       10.092       17.488        3.003      340.658       14.832      868.083
05/15/2014  07:36:00       45.134       22.898       16.830       23.198       33.061       17.655      538.127     1093.041      311.699        0.239        0.097       50.611       15.125        0.089      340.758       14.999      868.098
05/15/2014  07:37:00       84.246       58.235        6.424       16.630       17.114       21.819      276.567      292.888      476.084        0.579        0.052      102.414       10.233        0.010      340.575       14.690      868.102
05/15/2014  07:38:00       75.261       67.541       23.599       22.132       17.095       24.701      489.807      292.223      610.125        0.609        0.070      101.124        9.835        0.009      340.571       14.684      868.106
05/15/2014  07:39:00       77.371       73.742       19.518       25.759       22.999       28.403      663.514      528.932      806.755        0.690        0.100      106.884       11.303        0.011      340.575       14.690      868.109
05/15/2014  07:40:00       33.462       48.224       60.597       38.789       31.802       17.000     1504.557     1011.347      289.013        0.496        0.140       58.696       11.636        0.039      340.775       15.028      868.117
05/15/2014  07:41:00       27.765       17.146       17.200       33.199       23.115       18.171     1102.203      534.326      330.183        0.166        0.098       32.633       11.254        0.119      340.886       15.216      868.116
05/15/2014  07:42:00       63.276       30.411       29.692       30.221       32.047       22.249      913.303     1026.997      495.000        0.412        0.122       70.204       18.748        0.071      340.810       15.088      868.124
05/15/2014  07:43:00       34.383        4.330       16.774       29.520       44.514       22.413      871.409     1981.471      502.323        0.242        0.168       34.654       19.694        0.323      340.673       14.857      868.129
05/15/2014  07:44:00       30.535      -70.337       -9.185       35.680       38.156       30.554     1273.069     1455.881      933.543        0.481        0.183       76.678       22.748        0.088      340.135       13.944      868.127
05/15/2014  07:45:00       41.258      -55.019       12.917       41.752       42.827       38.599     1743.240     1834.127     1489.881        0.498        0.253       68.770       33.487        0.237      340.382       14.364      868.128
05/15/2014  07:46:00       29.987      -23.238       39.276       24.800       30.170       16.955      615.054      910.228      287.485        0.240        0.091       37.937        3.880        0.010      340.673       14.857      868.130
05/15/2014  07:47:00       18.481      -19.936       32.218       21.333       23.478       18.660      455.107      551.202      348.203        0.157        0.068       27.184       15.427        0.322      340.845       15.148      868.122
05/15/2014  07:48:00       21.588      -54.496        2.470       23.820       27.383       31.032      567.393      749.816      962.957        0.286        0.114       58.616       22.771        0.151      340.245       14.131      868.119
05/15/2014  07:49:00       33.428      -39.686       11.253       29.743       28.814       32.372      884.628      830.266     1047.954        0.279        0.138       51.888       18.988        0.134      340.405       14.402      868.114
05/15/2014  07:50:00       25.170        1.557       24.252       28.857       36.562       18.800      832.754     1336.774      353.454        0.187        0.126       25.219       14.831        0.346      340.831       15.124      868.101
05/15/2014  07:51:00       -1.763       12.919       19.927       23.051       22.657       20.021      531.328      513.337      400.844        0.101        0.072       13.038       15.581        1.428      341.063       15.516      868.086
05/15/2014  07:52:00       57.271       18.207       -4.058       34.297       30.016       25.573     1176.314      900.988      653.965        0.318        0.137       60.096       17.376        0.084      340.750       14.987      868.082
05/15/2014  07:53:00       42.491        5.264       -1.364       29.490       28.116       22.418      869.657      790.490      502.587        0.200        0.108       42.815       15.796        0.136      340.961       15.344      868.065
05/15/2014  07:54:00       94.174       51.080        5.393       41.914       29.573       23.657     1756.790      874.536      559.655        0.735        0.160      107.135       19.108        0.032      340.978       15.371      868.064
05/15/2014  07:55:00       56.493       60.251       24.435       35.518       32.656       29.255     1261.502     1066.400      855.846        0.530        0.159       82.593       21.844        0.070      341.206       15.758      868.072
05/15/2014  07:56:00       80.583       44.428       16.213       32.566       29.058       31.903     1060.530      844.386     1017.775        0.583        0.146       92.019       22.268        0.059      341.162       15.684      868.071
05/15/2014  07:57:00      107.174       59.351        7.269       46.340       32.576       25.500     2147.384     1061.227      650.242        0.946        0.193      122.510       17.802        0.021      340.995       15.402      868.082
05/15/2014  07:58:00       95.590       80.459        2.948       28.717       30.791       30.590      824.665      948.062      935.761        0.916        0.135      124.944       14.179        0.013      340.991       15.394      868.096
05/15/2014  07:59:00       90.566       81.998        7.992       41.707       30.197       27.573     1739.442      911.857      760.290        0.920        0.171      122.171       17.607        0.021      341.097       15.573      868.107
05/15/2014  08:00:00       74.973       43.774       15.198       20.881       20.422       26.843      436.011      417.041      720.522        0.467        0.079       86.817       12.159        0.020      341.085       15.553      868.128
05/15/2014  08:01:00       49.044       33.406       17.544       53.627       28.106       27.498     2875.847      789.964      756.124        0.412        0.221       59.340       21.670        0.133      341.457       16.182      868.131
05/15/2014  08:02:00       43.266       70.136       -0.208       42.226       24.534       23.600     1782.998      601.924      556.983        0.487        0.147       82.408       15.420        0.035      341.065       15.518      868.129
05/15/2014  08:03:00       -1.402       14.090        9.950       22.207       30.154       19.453      493.163      909.239      378.414        0.104        0.089       14.159       13.458        0.903      341.337       15.980      868.126
05/15/2014  08:04:00       25.152       13.161       44.980       35.018       32.014       20.417     1226.229     1024.881      416.836        0.275        0.133       28.387        9.134        0.104      341.530       16.308      868.110
05/15/2014  08:05:00      103.118       62.722       25.150       25.121       25.304       35.232      631.048      640.290     1241.293        0.886        0.126      120.696       21.011        0.030      341.145       15.654      868.099
05/15/2014  08:06:00       80.120       48.845       22.068       50.384       31.054       33.997     2538.520      964.323     1155.824        0.697        0.233       93.835       29.955        0.102      341.443       16.161      868.084
05/15/2014  08:07:00       92.350       56.469       15.982       43.571       32.317       33.354     1898.424     1044.403     1112.512        0.801        0.203      108.246       26.343        0.059      341.439       16.152      868.093
05/15/2014  08:08:00       70.793       59.584       -5.188       31.911       23.844       27.979     1018.310      568.521      782.831        0.548        0.118       92.531       14.841        0.026      341.338       15.981      868.096
05/15/2014  08:09:00       18.798       -5.997        8.092       18.714       26.023       21.539      350.211      677.217      463.907        0.097        0.075       19.732       17.813        0.815      341.526       16.300      868.098
05/15/2014  08:10:00       19.468      -56.490        3.893       23.124       40.912       24.722      534.741     1673.794      611.185        0.320        0.141       59.750       15.787        0.070      341.502       16.260      868.107
05/15/2014  08:11:00        7.794       23.998       34.409       28.834       27.935       28.729      831.377      780.367      825.369        0.213        0.122       25.232       22.951        0.827      341.871       16.886      868.101
05/15/2014  08:12:00       66.419       58.554       11.831       38.563       32.250       26.105     1487.113     1040.057      681.488        0.559        0.160       88.544       10.108        0.013      341.197       15.743      868.099
05/15/2014  08:13:00       90.160       72.408       35.824       26.836       21.317       26.391      720.154      454.425      696.479        0.826        0.094      115.636        3.846        0.001      341.329       15.966      868.088
05/15/2014  08:14:00       27.777       26.008       19.324       45.361       38.541       26.320     2057.583     1485.395      692.759        0.303        0.212       38.052       22.411        0.347      341.513       16.278      868.082
05/15/2014  08:15:00       22.309      -15.109        5.409       26.263       19.884       26.294      689.744      395.374      691.390        0.127        0.089       26.944       17.716        0.432      341.508       16.269      868.077
05/15/2014  08:16:00       53.029       22.920       10.828       37.132       45.302       24.212     1378.796     2052.279      586.216        0.374        0.201       57.770       16.102        0.078      341.503       16.261      868.064
05/15/2014  08:17:00       93.421       66.496       13.722       38.183       20.853       21.764     1457.916      434.845      473.685        0.785        0.118      114.670        7.493        0.004      341.375       16.042      868.056
05/15/2014  08:18:00       59.848       51.502       23.743       35.543       21.410       28.379     1263.287      458.400      805.391        0.466        0.126       78.957       10.634        0.018      341.468       16.202      868.049
05/15/2014  08:19:00       73.966       67.603       24.118       29.433       22.596       29.065      866.303      510.593      844.773        0.642        0.111      100.205       11.293        0.013      341.424       16.127      868.061
05/15/2014  08:20:00       22.041      -20.051      -12.631       23.819       38.116       19.455      567.348     1452.795      378.511        0.172        0.120       29.796       14.673        0.243      341.198       15.745      868.062
05/15/2014  08:21:00       -1.707       -9.576       24.755       16.234       23.727       17.158      263.554      562.965      294.402        0.091        0.056        9.727       13.340        1.881      341.997       17.100      868.060
05/15/2014  08:22:00        6.874       11.283       41.269       19.233       44.836       17.972      369.909     2010.286      322.986        0.229        0.135       13.212       10.900        0.681      342.208       17.457      868.071
05/15/2014  08:23:00       53.106      -33.486       23.518       32.186       31.249       29.615     1035.953      976.481      877.037        0.369        0.144       62.782       24.401        0.151      341.488       16.238      868.070
05/15/2014  08:24:00       17.231      -10.164       14.142       18.677       14.986       21.445      348.813      224.571      459.883        0.082        0.052       20.006        5.992        0.090      341.973       17.058      868.074
05/15/2014  08:25:00      -14.949       24.099       14.042       19.114       24.933       20.114      365.330      621.662      404.574        0.120        0.070       28.359       16.501        0.339      341.998       17.102      868.073
05/15/2014  08:26:00       10.399       -2.963       29.028       26.442       16.819       25.456      699.204      282.870      648.032        0.129        0.082       10.813       13.794        1.628      342.626       18.169      868.060
05/15/2014  08:27:00       37.031       -9.152       15.229       25.575       21.145       26.048      654.080      447.107      678.503        0.173        0.089       38.145       17.891        0.220      341.678       16.558      868.058
05/15/2014  08:28:00       19.648      -14.289        1.432       33.137       32.778       25.369     1098.084     1074.406      643.566        0.170        0.141       24.295       17.811        0.537      341.680       16.561      868.041
05/15/2014  08:29:00       25.334       11.277       27.901       21.606       37.311       24.688      466.813     1392.118      609.477        0.201        0.123       27.730        8.999        0.105      342.119       17.307      868.019
05/15/2014  08:30:00       51.652       38.213       23.540       27.870       29.266       18.243      776.752      856.507      332.793        0.332        0.098       64.251       11.525        0.032      341.967       17.048      868.011
05/15/2014  08:31:00       21.617      -10.061       20.915       24.112       33.526       30.535      581.407     1123.976      932.413        0.182        0.132       23.843       17.586        0.544      341.861       16.868      867.995
05/15/2014  08:32:00       37.444       27.064       35.202       26.532       23.083       25.938      703.946      532.825      672.790        0.264        0.095       46.201       19.054        0.170      342.125       17.315      867.989
05/15/2014  08:33:00       21.011       19.625       14.728       15.763       16.569       17.359      248.476      274.523      301.335        0.093        0.041       28.751       12.936        0.202      342.210       17.460      867.989
05/15/2014  08:34:00       49.636       29.751       15.239       37.334       31.997       31.722     1393.806     1023.790     1006.282        0.350        0.171       57.869       25.919        0.201      342.178       17.405      867.982
05/15/2014  08:35:00       28.089       47.491       -6.404       22.670       21.795       26.689      513.910      475.001      712.306        0.239        0.085       55.176        7.920        0.021      342.217       17.472      867.993
05/15/2014  08:36:00      -12.624      -25.138       11.958       25.810       32.139       25.824      666.134     1032.910      666.884        0.165        0.118       28.130       10.388        0.136      342.119       17.307      868.002
05/15/2014  08:37:00       22.824      -29.134       31.237       31.720       37.524       22.552     1006.169     1408.018      508.609        0.263        0.146       37.010       23.042        0.388      342.180       17.410      868.009
05/15/2014  08:38:00       19.122       12.118       38.458       26.273       34.358       25.129      690.282     1180.493      631.487        0.225        0.125       22.639       22.614        0.998      342.166       17.386      868.011
05/15/2014  08:39:00       37.845        2.940       17.983       29.843       24.805       22.640      890.629      615.266      512.552        0.189        0.101       37.959       11.572        0.093      342.142       17.345      868.014
05/15/2014  08:40:00      -13.896        4.346        9.424       19.716       26.124       22.770      388.727      682.454      518.495        0.094        0.079       14.559       19.199        1.739      342.397       17.779      868.012
05/15/2014  08:41:00      -35.362       22.805       -3.252       22.183       16.040       17.768      492.081      257.288      315.689        0.142        0.053       42.077        7.197        0.029      342.354       17.705      868.012
05/15/2014  08:42:00      -29.249        5.614        3.726       15.758       15.947       16.230      248.302      254.310      263.423        0.083        0.038       29.783        8.258        0.077      342.431       17.837      868.019
05/15/2014  08:43:00      -33.648        2.911        8.559       15.276       21.861       23.595      233.366      477.890      556.724        0.124        0.063       33.773       18.794        0.310      342.702       18.298      868.019
05/15/2014  08:44:00      -56.236      -36.673       -5.371       13.489       13.330       11.717      181.960      177.702      137.297        0.252        0.025       67.137        8.093        0.015      342.220       17.477      868.020
05/15/2014  08:45:00      -22.366       -9.736      -10.018       12.344        8.182        6.333      152.386       66.951       40.101        0.048        0.013       24.393        6.745        0.076      342.365       17.724      868.020
05/15/2014  08:46:00      -16.934       -8.788       -1.542       12.672       13.853       16.020      160.580      191.897      256.628        0.049        0.030       19.078       10.225        0.287      342.438       17.847      868.004
05/15/2014  08:47:00      -36.253       15.570        2.060        9.882       11.065       12.153       97.647      122.435      147.703        0.096        0.018       39.455        9.403        0.057      342.334       17.670      867.992
05/15/2014  08:48:00      -39.184        9.523       -8.075       12.038       10.470       12.667      144.911      109.626      160.445        0.105        0.021       40.325        3.854        0.009      342.389       17.765      867.988
05/15/2014  08:49:00      -42.759       25.286        1.005       16.995       16.827       16.897      288.839      283.145      285.521        0.166        0.043       49.676        5.690        0.013      342.704       18.300      867.971
05/15/2014  08:50:00      -14.572        7.720       30.853       15.102       12.278       15.900      228.085      150.743      252.806        0.093        0.032       16.491        4.641        0.079      343.451       19.572      867.958
05/15/2014  08:51:00       33.384       28.565       27.023       25.946       14.986       18.007      673.172      224.588      324.269        0.194        0.061       43.937        7.713        0.031      342.978       18.767      867.953
05/15/2014  08:52:00      102.487       47.739       15.528       46.560       36.232       32.214     2167.858     1312.781     1037.763        0.877        0.226      113.060       18.208        0.026      342.729       18.342      867.946
05/15/2014  08:53:00       84.312       79.896       16.038       30.658       24.985       35.995      939.894      624.236     1295.611        0.830        0.143      116.155        8.058        0.005      342.671       18.243      867.941
05/15/2014  08:54:00        6.813       15.673        8.247       30.050       14.092       14.221      903.010      198.582      202.240        0.083        0.065       17.090        7.752        0.206      342.783       18.434      867.933
05/15/2014  08:55:00      -13.677       11.965       16.269       18.348       14.934       16.857      336.661      223.032      284.144        0.072        0.042       18.172        9.661        0.283      343.220       19.181      867.931
05/15/2014  08:56:00       79.572       54.341        7.718       57.445       40.604       27.505     3299.946     1648.658      756.499        0.752        0.285       96.357       26.589        0.076      342.836       18.525      867.932
05/15/2014  08:57:00       13.099       36.375       10.012       29.824       36.310       25.364      889.490     1318.406      643.347        0.222        0.143       38.662       22.865        0.350      343.405       19.492      867.927
05/15/2014  08:58:00       60.639       30.413        5.422       40.877       38.392       31.957     1670.919     1473.947     1021.219        0.440        0.208       67.839       23.207        0.117      342.878       18.596      867.915
05/15/2014  08:59:00       76.643       64.879       24.024       59.356       43.063       36.267     3523.178     1854.404     1315.304        0.868        0.335      100.416       26.046        0.067      342.912       18.653      867.908
05/15/2014  09:00:00      111.402       78.629       21.988       32.842       23.200       29.311     1078.610      538.230      859.163        1.078        0.124      136.356       12.431        0.008      342.713       18.314      867.907
05/15/2014  09:01:00       27.155       24.878       30.541       26.664       33.882       23.615      710.975     1147.976      557.685        0.235        0.121       36.828       19.038        0.267      343.225       19.187      867.900
05/15/2014  09:02:00        2.330      -20.174       22.099       14.752       20.925       14.557      217.634      437.864      211.903        0.088        0.043       20.308       10.460        0.265      343.357       19.413      867.900
05/15/2014  09:03:00        7.310      -20.914       19.792       21.787       34.477       25.033      474.683     1188.657      626.649        0.159        0.114       22.155       19.634        0.785      343.183       19.116      867.898
05/15/2014  09:04:00       50.320       37.579       16.866       29.028       30.733       23.977      842.598      944.499      574.917        0.329        0.118       62.804       19.082        0.092      342.891       18.617      867.907
05/15/2014  09:05:00       19.129      -16.393       -2.354       30.531       24.006       26.972      932.127      576.275      727.485        0.144        0.112       25.192       18.429        0.535      342.847       18.544      867.902
05/15/2014  09:06:00       46.088       35.165       12.703       18.825       21.566       22.223      354.399      465.113      493.872        0.242        0.066       57.971        9.703        0.028      342.739       18.360      867.898
05/15/2014  09:07:00       14.872       -1.100       16.752       25.403       24.360       20.733      645.332      593.415      429.837        0.109        0.083       14.913       16.838        1.275      343.401       19.487      867.896
05/15/2014  09:08:00        4.887        0.309       25.370       32.859       42.984       36.898     1079.740     1847.639     1361.484        0.248        0.214        4.897       30.466       38.706      343.418       19.516      867.890
05/15/2014  09:09:00       57.324       41.869       55.942       41.599       39.278       32.680     1730.508     1542.765     1068.010        0.625        0.217       70.987       27.183        0.147      343.259       19.246      867.877
05/15/2014  09:10:00       96.302       68.386       41.326       68.412       34.744       37.764     4680.202     1207.142     1426.152        1.148        0.366      118.113       33.340        0.080      343.051       18.892      867.875
05/15/2014  09:11:00       23.627      -27.086       14.093       21.467       53.493       27.510      460.825     2861.449      756.810        0.278        0.204       35.943       25.566        0.506      343.075       18.933      867.881
05/15/2014  09:12:00       67.127       50.978       16.725       53.795       37.373       31.394     2893.939     1396.750      985.577        0.633        0.264       84.290       14.425        0.029      343.021       18.840      867.867
05/15/2014  09:13:00       23.712       -9.283       14.181       26.584       26.042       23.533      706.723      678.167      553.801        0.139        0.097       25.464       16.623        0.426      343.436       19.546      867.859
05/15/2014  09:14:00       42.756      -34.021       21.204       54.011       61.079       42.964     2917.209     3730.589     1845.914        0.596        0.425       54.640       48.916        0.801      343.256       19.241      867.848
05/15/2014  09:15:00       56.265       19.758       31.204       32.955       38.040       32.816     1086.047     1447.044     1076.899        0.407        0.180       59.634       20.121        0.114      343.251       19.232      867.847
05/15/2014  09:16:00       82.348       37.667       12.117       43.355       38.909       32.616     1879.690     1513.890     1063.830        0.640        0.223       90.554       23.713        0.069      343.451       19.572      867.854
05/15/2014  09:17:00       88.923       46.858        1.517       42.007       29.011       33.422     1764.593      841.663     1117.048        0.691        0.186      100.514       14.981        0.022      343.295       19.307      867.850
05/15/2014  09:18:00       -2.991       45.325       -0.636       30.418       33.866       22.201      925.256     1146.901      492.868        0.231        0.128       45.424        8.286        0.033      343.738       20.064      867.861
05/15/2014  09:19:00        3.488       42.270       10.652       28.599       40.142       25.642      817.927     1611.383      657.504        0.250        0.154       42.414       19.310        0.207      344.187       20.828      867.859
05/15/2014  09:20:00      -11.380       78.088        1.628       24.336       46.667       27.593      592.255     2177.823      761.389        0.488        0.177       78.913       27.428        0.121      343.590       19.809      867.852
05/15/2014  09:21:00        0.321       34.380       22.403       31.540       27.991       28.239      994.762      783.513      797.425        0.213        0.129       34.381       16.958        0.243      344.134       20.738      867.847
05/15/2014  09:22:00      -37.707       24.421       12.568       33.064       25.648       19.807     1093.235      657.840      392.335        0.216        0.107       44.925       17.609        0.154      343.985       20.486      867.848
05/15/2014  09:23:00      -30.902       15.247       22.176       35.729       25.055       29.979     1276.551      627.758      898.751        0.224        0.140       34.458       19.843        0.332      344.060       20.614      867.838
05/15/2014  09:24:00       36.227       15.469        7.336       48.230       22.608       23.854     2326.111      511.142      569.028        0.251        0.170       39.391       13.913        0.125      343.735       20.057      867.841
05/15/2014  09:25:00       99.875       78.866        8.563       26.498       23.130       26.197      702.162      534.986      686.266        0.910        0.096      127.259       13.551        0.011      343.259       19.245      867.830
05/15/2014  09:26:00      118.158       82.177       18.116       22.592       21.110       25.851      510.386      445.641      668.289        1.133        0.081      143.925       14.344        0.010      343.363       19.422      867.816
05/15/2014  09:27:00       94.100       76.349       13.324       24.719       31.019       36.844      611.044      962.150     1357.475        0.890        0.147      121.177       26.555        0.048      343.334       19.373      867.809
05/15/2014  09:28:00       29.800       14.606        7.974       29.883       19.597       23.347      893.023      384.056      545.080        0.149        0.091       33.187       21.209        0.408      343.583       19.797      867.804
05/15/2014  09:29:00       25.048       37.410       21.582       33.069       23.502       33.530     1093.584      552.367     1124.228        0.263        0.139       45.021       21.044        0.218      343.875       20.295      867.792
05/15/2014  09:30:00       63.924       16.908       15.668       30.186       29.881       33.190      911.223      892.847     1101.564        0.376        0.145       66.122        9.570        0.021      343.653       19.917      867.788
05/15/2014  09:31:00      116.642       67.751       21.206       41.666       34.303       32.758     1736.051     1176.697     1073.061        1.131        0.199      134.891       22.716        0.028      343.826       20.211      867.779
05/15/2014  09:32:00       58.430       65.180        7.909       31.237       23.932       19.972      975.747      572.746      398.876        0.484        0.097       87.536        7.694        0.008      343.379       19.449      867.780
05/15/2014  09:33:00       30.686       22.246       20.050       17.604       17.139       19.842      309.907      293.739      393.686        0.142        0.050       37.902       13.094        0.119      344.020       20.541      867.782
05/15/2014  09:34:00        7.279       19.959       -3.043       22.156       33.833       24.370      490.898     1144.694      593.903        0.134        0.111       21.245       18.186        0.733      343.998       20.506      867.785
05/15/2014  09:35:00       -7.681       -3.169       25.835       26.446       14.079       13.955      699.408      198.222      194.751        0.091        0.055        8.309       15.737        3.588      344.540       21.433      867.783
05/15/2014  09:36:00       20.083       15.581       22.704       54.370       36.130       23.912     2956.052     1305.403      571.807        0.300        0.242       25.419       16.245        0.408      344.091       20.664      867.784
05/15/2014  09:37:00       29.883       17.934        4.388       41.409       34.545       23.448     1714.732     1193.348      549.807        0.235        0.173       34.852       20.450        0.344      343.875       20.295      867.783
05/15/2014  09:38:00       29.661      -46.341        5.189       22.514       25.282       27.884      506.879      639.189      777.512        0.249        0.096       55.020       14.304        0.068      343.599       19.824      867.781
05/15/2014  09:39:00       19.849       16.992        5.022       29.773       35.844       19.128      886.447     1284.805      365.864        0.162        0.127       26.128       14.633        0.314      343.729       20.047      867.770
05/15/2014  09:40:00        5.615      -18.266       -1.134       21.769       36.295       22.535      473.890     1317.326      507.809        0.133        0.115       19.110       11.625        0.370      343.676       19.957      867.757
05/15/2014  09:41:00       39.910       49.348       66.421       51.844       48.154       28.943     2687.762     2318.839      837.706        0.714        0.292       63.466       16.650        0.069      344.207       20.862      867.750
05/15/2014  09:42:00       70.308      -77.563        7.281       54.731       49.739       33.633     2995.478     2473.919     1131.149        0.881        0.330      104.686       22.570        0.046      343.589       19.808      867.746
05/15/2014  09:43:00       47.264      -16.716       37.083       64.426       68.284       48.266     4150.756     4662.710     2329.588        0.751        0.557       50.133       51.062        1.037      344.059       20.611      867.724
05/15/2014  09:44:00       93.067       91.168       28.539       56.682       37.268       45.115     3212.814     1388.884     2035.322        1.221        0.332      130.281       36.587        0.079      344.473       21.318      867.706
05/15/2014  09:45:00      115.506       79.553       20.231       31.780       34.953       33.551     1009.984     1221.720     1125.684        1.172        0.168      140.251       19.350        0.019      344.062       20.613      867.685
05/15/2014  09:46:00       70.996       84.393       -1.225       33.952       33.311       27.703     1152.753     1109.610      767.472        0.760        0.151      110.284       19.914        0.033      344.144       20.754      867.669
05/15/2014  09:47:00       48.154       37.524       24.707       32.586       25.491       22.128     1061.830      649.766      489.654        0.327        0.110       61.048        8.603        0.020      344.649       21.619      867.650
05/15/2014  09:48:00       77.642       61.432       43.392       58.439       51.655       35.257     3415.085     2668.191     1243.035        0.950        0.366       99.006       19.868        0.040      344.613       21.554      867.634
05/15/2014  09:49:00       92.828       84.962       33.826       23.965       34.876       29.017      574.343     1216.363      841.963        0.981        0.132      125.839        8.243        0.004      344.010       20.526      867.636
05/15/2014  09:50:00       78.571       46.119       14.376       33.598       27.427       32.304     1128.798      752.264     1043.554        0.572        0.146       91.106       18.924        0.043      344.499       21.361      867.630
05/15/2014  09:51:00      103.676       83.960        5.406       41.429       31.034       32.324     1716.393      963.129     1044.821        1.078        0.186      133.409       24.209        0.033      344.373       21.147      867.640
05/15/2014  09:52:00       29.709       78.402       -0.601       27.293       40.366       32.546      744.891     1629.393     1059.250        0.523        0.172       83.842       27.499        0.108      344.368       21.138      867.630
05/15/2014  09:53:00       18.031       62.688       -3.841       37.254       43.115       31.401     1387.830     1858.878      986.005        0.425        0.212       65.229       28.856        0.196      344.487       21.341      867.622
05/15/2014  09:54:00      117.861       79.322       36.238       40.167       31.032       34.172     1613.419      963.005     1167.696        1.262        0.187      142.068       13.703        0.009      344.106       20.689      867.610
05/15/2014  09:55:00       73.702       58.519       39.138       62.453       46.436       26.808     3900.437     2156.333      718.693        0.858        0.339       94.109       25.752        0.075      344.164       20.788      867.597
05/15/2014  09:56:00       54.987       73.087       51.172       50.339       30.649       46.237     2534.018      939.357     2137.825        0.830        0.281       91.462       37.071        0.164      344.356       21.116      867.583
05/15/2014  09:57:00       31.314       69.113       72.753       57.797       46.444       44.987     3340.490     2157.033     2023.868        0.928        0.376       75.876       29.982        0.156      344.424       21.235      867.572
05/15/2014  09:58:00       82.693       62.014       38.583       44.345       66.398       44.880     1966.507     4408.748     2014.243        1.028        0.419      103.363       46.674        0.204      344.311       21.040      867.566
05/15/2014  09:59:00       39.116      -59.788        2.477       33.692       29.578       32.813     1135.142      874.857     1076.695        0.410        0.154       71.447       22.047        0.095      344.032       20.564      867.557
05/15/2014  10:00:00        8.109       25.067       50.935       36.306       34.071       30.627     1318.107     1160.839      937.993        0.335        0.171       26.346       25.161        0.912      344.604       21.541      867.537
05/15/2014  10:01:00       32.859      -16.086       33.056       50.502       55.113       44.376     2550.453     3037.448     1969.230        0.499        0.378       36.585       44.723        1.494      345.024       22.259      867.516
05/15/2014  10:02:00       -1.450       65.714       95.680       37.751       53.164       41.612     1425.112     2826.424     1731.589        0.973        0.299       65.730       34.924        0.282      344.840       21.945      867.510
05/15/2014  10:03:00       27.370       61.822       55.692       49.407       34.038       37.756     2441.096     1158.617     1425.545        0.635        0.251       67.610       36.291        0.288      344.464       21.301      867.508
05/15/2014  10:04:00       11.457      -17.016       35.940       32.319       36.188       22.062     1044.492     1309.537      486.716        0.228        0.142       20.513       14.642        0.510      344.698       21.703      867.497
05/15/2014  10:05:00       29.639       25.664       53.681       60.880       52.253       37.235     3706.314     2730.407     1386.482        0.612        0.391       39.206       32.850        0.702      344.865       21.988      867.491
05/15/2014  10:06:00       33.905      -48.745       -7.656       57.044       77.830       43.617     3254.064     6057.569     1902.413        0.740        0.561       59.377       44.798        0.569      344.511       21.381      867.490
05/15/2014  10:07:00       33.942      -11.718       52.309       42.962       62.454       32.278     1845.734     3900.507     1041.860        0.541        0.339       35.908       29.184        0.661      344.960       22.150      867.485
05/15/2014  10:08:00       29.579      -13.530       28.408       35.536       28.433       26.351     1262.793      808.442      694.361        0.231        0.138       32.527       22.370        0.473      344.731       21.758      867.486
05/15/2014  10:09:00       78.662       59.681       12.547       50.777       29.934       37.341     2578.319      896.053     1394.385        0.739        0.243       98.739       22.805        0.053      344.700       21.705      867.472
05/15/2014  10:10:00       50.393       35.861       24.615       33.833       31.853       25.721     1144.705     1014.641      661.559        0.363        0.141       61.850       14.046        0.052      345.196       22.554      867.462
05/15/2014  10:11:00       11.540       40.459       22.755       53.333       58.716       33.308     2844.417     3447.521     1109.398        0.484        0.370       42.073       21.493        0.261      345.397       22.899      867.454
05/15/2014  10:12:00       48.790       11.208       -4.513       46.852       67.285       28.222     2195.126     4527.276      796.499        0.502        0.376       50.061       24.590        0.241      344.909       22.063      867.449
05/15/2014  10:13:00       50.280       23.493       28.623       52.873       41.782       37.840     2795.569     1745.735     1431.843        0.494        0.299       55.498       24.835        0.200      345.466       23.018      867.440
05/15/2014  10:14:00       72.716       27.517       17.540       60.086       60.745       37.172     3610.295     3689.946     1381.773        0.752        0.434       77.748       12.152        0.024      345.387       22.882      867.421
05/15/2014  10:15:00      127.481       89.342       15.899       49.643       49.851       35.429     2464.417     2485.124     1255.181        1.534        0.310      155.671       22.244        0.020      345.112       22.410      867.414
05/15/2014  10:16:00       56.946       53.658       15.201       39.870       33.203       32.196     1589.589     1102.414     1036.581        0.504        0.186       78.244       22.151        0.080      345.111       22.409      867.414
05/15/2014  10:17:00       12.627       50.696      -12.684       32.066       36.331       31.928     1028.225     1319.974     1019.394        0.313        0.168       52.245       16.810        0.104      345.038       22.283      867.394
05/15/2014  10:18:00       72.453       70.864      -13.622       51.986       38.877       31.559     2702.508     1511.425      995.951        0.783        0.260      101.347       23.749        0.055      345.204       22.568      867.391
05/15/2014  10:19:00       77.104       46.104       27.004       57.552       44.693       44.010     3312.260     1997.504     1936.896        0.802        0.362       89.837       26.113        0.084      345.460       23.007      867.372
05/15/2014  10:20:00       43.833       48.903      -11.882       62.882       27.503       18.024     3954.126      756.399      324.871        0.474        0.252       65.672       13.836        0.044      345.014       22.243      867.358
05/15/2014  10:21:00       44.308       54.132        1.577       48.752       45.851       33.499     2376.772     2102.345     1122.151        0.525        0.280       69.954       20.317        0.084      345.311       22.753      867.334
05/15/2014  10:22:00       12.293       21.077       -1.201       34.022       33.114       29.351     1157.520     1096.510      861.493        0.186        0.156       24.400       18.393        0.568      345.642       23.319      867.332
05/15/2014  10:23:00       18.041        1.731       29.757       40.984       43.320       45.335     1679.657     1876.609     2055.254        0.341        0.281       18.124       26.878        2.199      346.104       24.111      867.301
05/15/2014  10:24:00       51.944       59.294       27.604       36.919       27.864       40.907     1363.010      776.420     1673.382        0.539        0.191       78.828       25.076        0.101      345.674       23.373      867.304
05/15/2014  10:25:00       45.575       30.476       33.806       41.930       45.198       39.850     1758.108     2042.877     1588.018        0.477        0.269       54.826       28.954        0.279      345.956       23.858      867.311
05/15/2014  10:26:00       37.185      -20.741       19.498       53.503       84.002       58.678     2862.572     7056.363     3443.157        0.777        0.668       42.578       57.099        1.798      345.947       23.842      867.304
05/15/2014  10:27:00        9.226       -9.563       54.045       44.957       51.669       43.043     2021.110     2669.717     1852.741        0.482        0.327       13.288       33.450        6.337      345.807       23.601      867.304
05/15/2014  10:28:00       37.305       33.380        0.307       21.584       19.928       26.999      465.871      397.107      728.938        0.205        0.080       50.059       13.226        0.070      345.200       22.561      867.322
05/15/2014  10:29:00       33.610      -45.161        2.562       40.927       59.071       30.281     1675.032     3489.375      916.948        0.463        0.304       56.295       25.599        0.207      345.692       23.404      867.317
05/15/2014  10:30:00       61.250       33.537       62.445       63.480       86.309       50.864     4029.729     7449.284     2587.155        1.142        0.703       69.831       62.447        0.800      345.814       23.613      867.322
05/15/2014  10:31:00      -19.606      -17.221       36.789       25.818       46.500       23.854      666.544     2162.279      569.029        0.272        0.170       26.096       24.960        0.915      346.023       23.972      867.314
05/15/2014  10:32:00       17.372       13.217       56.638       50.690       64.335       41.790     2569.486     4138.995     1746.429        0.607        0.423       21.828       43.346        3.943      346.095       24.096      867.313
05/15/2014  10:33:00       22.291       -6.832       37.438       39.179       45.601       35.693     1535.015     2079.463     1273.994        0.342        0.244       23.314       28.395        1.483      346.301       24.450      867.306
05/15/2014  10:34:00       15.824      -16.412       23.957       48.712       52.391       41.382     2372.865     2744.832     1712.508        0.396        0.342       22.798       22.422        0.967      346.156       24.202      867.301
05/15/2014  10:35:00       42.142      -59.242       21.782       46.740       98.285       55.973     2184.584     9659.902     3132.924        1.037        0.749       72.702       60.606        0.695      346.178       24.240      867.288
05/15/2014  10:36:00        9.698      -92.151      -21.034       64.506       50.855       45.273     4161.019     2586.237     2049.640        0.891        0.440       92.660       30.081        0.105      345.842       23.660      867.294
05/15/2014  10:37:00       11.649      -29.893       13.892       38.095       43.282       30.917     1451.206     1873.346      955.864        0.275        0.214       32.083       22.754        0.503      346.460       24.724      867.286
05/15/2014  10:38:00        2.558      -16.980       21.722       40.732       39.430       30.675     1659.104     1554.708      940.954        0.246        0.208       17.172        8.401        0.239      346.423       24.661      867.293
05/15/2014  10:39:00      -22.827      -57.968       14.431       46.563       49.872       35.066     2168.102     2487.244     1229.641        0.499        0.294       62.300       23.666        0.144      346.130       24.156      867.288
05/15/2014  10:40:00       10.489       41.323       96.908       45.903       75.480       50.271     2107.122     5697.272     2527.167        1.077        0.517       42.633       48.436        1.291      346.459       24.723      867.294
05/15/2014  10:41:00       90.576      -74.572        4.233       69.507       86.219       55.934     4831.238     7433.779     3128.571        1.459        0.770      117.324       66.144        0.318      345.739       23.484      867.294
05/15/2014  10:42:00        8.710       10.792       60.905       29.383       49.318       34.058      863.372     2432.248     1159.946        0.418        0.223       13.868       34.309        6.120      346.763       25.245      867.292
05/15/2014  10:43:00       55.656     -106.024       -4.744       54.103       62.882       38.042     2927.181     3954.138     1447.220        1.134        0.416      119.744       44.445        0.138      345.815       23.614      867.282
05/15/2014  10:44:00       60.899      -80.257       24.509       57.387      116.434       66.851     3293.225    13556.858     4469.079        1.603        1.066      100.747       77.731        0.595      346.083       24.075      867.269
05/15/2014  10:45:00       43.711      -45.370       27.000       37.697       64.938       47.363     1421.080     4216.913     2243.243        0.629        0.394       63.001       44.770        0.505      345.961       23.865      867.271
05/15/2014  10:46:00       34.899      -23.669       18.234       40.045       69.867       28.896     1603.622     4881.436      835.005        0.471        0.366       42.168       28.845        0.468      346.148       24.189      867.261
05/15/2014  10:47:00       75.659       65.020       39.557       34.981       30.549       41.094     1223.652      933.217     1688.685        0.768        0.192       99.759       14.574        0.021      345.903       23.768      867.254
05/15/2014  10:48:00       42.243       49.806        1.375       27.423       39.956       27.150      752.005     1596.459      737.111        0.368        0.154       65.308       24.444        0.140      345.739       23.485      867.256
05/15/2014  10:49:00       51.825       41.412       10.255       28.570       33.671       30.907      816.233     1133.711      955.267        0.370        0.145       66.338       17.916        0.073      346.073       24.059      867.249
05/15/2014  10:50:00       15.479       32.045       61.932       44.711       48.986       41.364     1999.089     2399.596     1710.958        0.560        0.305       35.588       31.912        0.804      346.660       25.067      867.242
05/15/2014  10:51:00       37.600        2.528       39.762       51.175       58.987       45.012     2618.927     3479.499     2026.102        0.556        0.406       37.685       49.579        1.731      346.572       24.916      867.246
05/15/2014  10:52:00       36.028      -24.748       54.334       62.536      106.144       64.760     3910.777    11266.548     4193.876        1.211        0.969       43.709       74.257        2.886      346.521       24.828      867.228
05/15/2014  10:53:00       61.047      -67.602       17.198       58.602       53.324       55.954     3434.169     2843.466     3130.861        0.900        0.470       91.087       34.927        0.147      346.245       24.355      867.231
05/15/2014  10:54:00       23.615     -102.122        0.149       29.808       35.785       28.143      888.498     1280.580      792.005        0.697        0.148      104.817       18.258        0.030      345.895       23.751      867.221
05/15/2014  10:55:00      -23.346        3.182       -3.347       37.047       42.955       19.848     1372.453     1845.122      393.938        0.209        0.181       23.562       11.408        0.234      346.186       24.253      867.213
05/15/2014  10:56:00      -66.890       19.132        5.982       34.733       44.175       22.094     1206.386     1951.415      488.138        0.426        0.182       69.572       17.559        0.064      345.970       23.882      867.193
05/15/2014  10:57:00      -31.302      -20.832        4.660       38.567       37.763       26.609     1487.390     1426.030      708.060        0.253        0.181       37.601       22.843        0.369      346.378       24.583      867.182
05/15/2014  10:58:00      -32.989        4.087       -4.318       19.246       12.034       12.009      370.424      144.823      144.226        0.089        0.033       33.241        9.147        0.076      346.143       24.179      867.170
05/15/2014  10:59:00      -12.323       -3.653        7.209       16.132       12.914       17.575      260.232      166.772      308.868        0.048        0.037       12.853       12.816        0.994      346.921       25.519      867.154
05/15/2014  11:00:00        9.020       20.274       20.533       17.258       31.401       16.872      297.853      986.018      284.678        0.124        0.078       22.190       17.852        0.647      347.422       26.381      867.134
05/15/2014  11:01:00      -39.588       14.590       44.905       31.816       35.718       43.650     1012.238     1275.759     1905.279        0.399        0.210       42.191       29.715        0.496      347.170       25.947      867.117
05/15/2014  11:02:00       28.471        4.573       33.433       49.664       40.726       28.622     2466.531     1658.630      819.233        0.345        0.247       28.836       19.748        0.469      347.429       26.393      867.109
05/15/2014  11:03:00       15.628      -28.233       34.006       38.380       62.834       39.816     1473.035     3948.058     1585.318        0.460        0.350       32.270       37.454        1.347      347.074       25.780      867.091
05/15/2014  11:04:00       33.231        2.641       48.057       40.623       40.551       49.643     1650.252     1644.410     2464.466        0.459        0.288       33.335       20.925        0.394      347.273       26.124      867.089
05/15/2014  11:05:00       33.912       78.687       99.642       47.612       50.646       38.479     2266.874     2565.001     1480.620        1.179        0.316       85.684       28.683        0.112      346.713       25.158      867.079
05/15/2014  11:06:00       36.144      -60.650       11.641       35.399       68.498       51.191     1253.071     4691.976     2620.493        0.684        0.428       70.603       49.290        0.487      346.267       24.392      867.084
05/15/2014  11:07:00        0.014      -18.379        1.936       41.300       54.643       32.232     1705.724     2985.897     1038.878        0.303        0.287       18.379       26.273        2.043      346.322       24.486      867.062
05/15/2014  11:08:00      -15.254        7.194       53.011       21.257       32.518       22.707      451.870     1057.426      515.626        0.256        0.101       16.865       17.759        1.109      347.456       26.439      867.053
05/15/2014  11:09:00        1.251       -7.503       50.630       25.577       45.766       31.908      654.158     2094.504     1018.111        0.319        0.188        7.607       25.465       11.206      347.053       25.744      867.045
05/15/2014  11:10:00        2.185        9.048       56.106       30.970       48.015       27.488      959.130     2305.414      755.568        0.363        0.201        9.308       30.853       10.987      346.964       25.590      867.038
05/15/2014  11:11:00       25.185        2.277       40.956       47.614       44.603       26.870     2267.085     1989.460      721.981        0.365        0.249       25.288       30.102        1.417      346.955       25.577      867.032
05/15/2014  11:12:00       27.769       76.093       10.513       42.783       59.056       34.270     1830.402     3487.600     1174.405        0.658        0.325       81.002       31.261        0.149      346.780       25.274      867.009
05/15/2014  11:13:00       -0.209       58.666       11.217       35.071       56.098       29.398     1229.959     3147.011      864.224        0.440        0.262       58.667       24.442        0.174      346.945       25.558      867.001
05/15/2014  11:14:00       13.128       82.814        3.113       32.665       58.094       37.699     1066.975     3374.949     1421.229        0.645        0.293       83.848       36.856        0.193      346.730       25.188      866.986
05/15/2014  11:15:00        1.214       35.195       12.060       42.505       46.830       25.398     1806.670     2193.028      645.055        0.301        0.232       35.216       16.292        0.214      346.846       25.389      866.976
05/15/2014  11:16:00        8.145       95.108      -18.388       31.300       61.869       24.332      979.663     3827.811      592.048        0.742        0.270       95.456       27.838        0.085      346.656       25.061      866.963
05/15/2014  11:17:00      -52.957       43.851      -16.177       41.276       42.199       34.196     1703.672     1780.722     1169.360        0.482        0.233       68.756       33.411        0.236      346.489       24.774      866.964
05/15/2014  11:18:00       25.570       65.307        7.893       43.534       46.968       29.581     1895.247     2205.990      875.048        0.498        0.249       70.135       28.302        0.163      347.389       26.323      866.945
05/15/2014  11:19:00       15.088       97.995        2.568       61.363       59.080       32.526     3765.452     3490.476     1057.932        0.907        0.416       99.150       25.761        0.068      347.132       25.880      866.931
05/15/2014  11:20:00       40.992       28.270       32.858       55.706       29.523       37.257     3103.211      871.627     1388.065        0.446        0.268       49.795       32.294        0.421      347.485       26.489      866.921
05/15/2014  11:21:00       49.513       38.908       24.137       49.613       44.155       30.238     2461.452     1949.686      914.330        0.494        0.266       62.971       18.474        0.086      347.031       25.706      866.916
05/15/2014  11:22:00       34.458       28.659       -6.424       42.527       29.356       18.986     1808.543      861.781      360.481        0.254        0.152       44.818       17.243        0.148      346.655       25.058      866.910
05/15/2014  11:23:00      -12.215       39.204        8.391       32.403       29.954       27.554     1049.930      897.239      759.238        0.223        0.135       41.063       24.302        0.350      347.435       26.404      866.908
05/15/2014  11:24:00      -14.060       16.748       25.692       24.388       30.881       18.470      594.754      953.663      341.149        0.151        0.094       21.868       14.912        0.465      347.552       26.603      866.894
05/15/2014  11:25:00      -24.903       95.340        9.384       40.033       48.301       40.461     1602.646     2332.988     1637.127        0.768        0.279       98.539       27.455        0.078      347.157       25.925      866.895
05/15/2014  11:26:00       54.918       71.182        7.715       62.578       47.366       38.505     3916.017     2243.514     1482.666        0.789        0.382       89.905       25.699        0.082      347.330       26.220      866.880
05/15/2014  11:27:00       24.623       29.674       50.548       50.509       55.466       50.179     2551.161     3076.436     2517.946        0.609        0.407       38.559       32.126        0.694      347.551       26.603      866.883
05/15/2014  11:28:00       16.341       27.572       15.377       23.003       25.821       37.902      529.125      666.719     1436.532        0.195        0.132       32.051       23.513        0.538      346.865       25.421      866.882
05/15/2014  11:29:00       44.957       29.443       23.249       59.905       42.524       28.849     3588.654     1808.273      832.268        0.483        0.311       53.741       14.438        0.072      347.389       26.323      866.883
05/15/2014  11:30:00       22.422       40.178        9.699       60.523       49.202       27.748     3663.030     2420.846      769.955        0.453        0.343       46.011       24.856        0.292      347.537       26.579      866.886
05/15/2014  11:31:00        9.228      -94.807       14.801       55.933       82.505       44.318     3128.544     6807.074     1964.114        1.059        0.595       95.255       36.677        0.148      347.371       26.292      866.879
05/15/2014  11:32:00       46.561       65.784      102.809       60.992       58.701       51.624     3719.982     3445.758     2664.987        1.345        0.492       80.594       45.132        0.314      347.344       26.245      866.888
05/15/2014  11:33:00       79.996       -6.697       47.967       83.833       77.743       68.964     7027.936     6043.948     4755.972        1.328        0.891       80.276       68.821        0.735      347.148       25.906      866.871
05/15/2014  11:34:00       48.614      -51.600       25.058       57.659       58.337       43.927     3324.544     3403.159     1929.579        0.715        0.433       70.894       47.204        0.443      347.295       26.160      866.865
05/15/2014  11:35:00        5.581       41.720       79.078       36.744       74.484       41.753     1350.095     5547.869     1743.328        0.833        0.432       42.091       32.736        0.605      347.499       26.512      866.843
05/15/2014  11:36:00       11.059       13.927       68.853       53.537       85.080       59.546     2866.247     7238.574     3545.718        0.935        0.683       17.784       44.220        6.183      347.652       26.777      866.825
05/15/2014  11:37:00       65.189       57.475       64.236       66.633       49.947       55.847     4439.972     2494.674     3118.928        1.086        0.503       86.909       49.829        0.329      347.214       26.022      866.833
05/15/2014  11:38:00      178.914      104.655       33.672       98.827       81.132       42.470     9766.846     6582.422     1803.691        3.112        0.908      207.275       37.156        0.032      346.700       25.133      866.818
05/15/2014  11:39:00       91.478       50.614       38.534       75.819       49.084       37.915     5748.594     2409.223     1437.512        1.100        0.480      104.546       35.209        0.113      347.288       26.150      866.820
05/15/2014  11:40:00       89.066       79.602       66.484      102.977       52.884       69.305    10604.326     2796.728     4803.131        1.844        0.910      119.454       71.292        0.356      347.320       26.203      866.806
05/15/2014  11:41:00       68.450       70.105       -0.220       72.301       38.442       31.519     5227.364     1477.815      993.466        0.865        0.385       97.980       28.863        0.087      346.993       25.640      866.822
05/15/2014  11:42:00       18.422       39.746       12.520       36.077       39.864       30.553     1301.517     1589.100      933.502        0.295        0.191       43.807       28.286        0.417      347.416       26.371      866.821
05/15/2014  11:43:00        1.521      -12.693       33.824       27.010       59.027       25.560      729.540     3484.210      653.291        0.309        0.243       12.783       15.297        1.432      347.913       27.228      866.809
05/15/2014  11:44:00       14.999       38.285       65.117       35.341       34.209       32.769     1249.007     1170.272     1073.828        0.471        0.175       41.118       26.894        0.428      347.813       27.055      866.805
05/15/2014  11:45:00        7.390      -38.402       51.122       29.755       66.687       34.661      885.361     4447.165     1201.357        0.534        0.327       39.106       25.049        0.410      348.134       27.609      866.792
05/15/2014  11:46:00       61.358     -102.628       -1.051       57.781       74.682       42.408     3338.620     5577.345     1798.445        1.250        0.536      119.572       42.470        0.126      347.376       26.301      866.797
05/15/2014  11:47:00        5.365        4.167       38.984       27.706       58.845       28.215      767.615     3462.769      796.088        0.330        0.251        6.793       35.811       27.793      347.764       26.970      866.787
05/15/2014  11:48:00       40.368     -125.684      -22.147       38.162       61.014       35.452     1456.347     3722.720     1256.865        1.217        0.322      132.008       36.326        0.076      347.334       26.229      866.773
05/15/2014  11:49:00       51.584       29.718       64.810       60.863       82.902       49.499     3704.315     6872.659     2450.112        1.038        0.651       59.532       48.433        0.662      347.366       26.284      866.763
05/15/2014  11:50:00       66.403      -36.781        6.646       45.741       82.948       37.868     2092.261     6880.338     1433.970        0.810        0.520       75.909       43.298        0.325      347.184       25.970      866.738
05/15/2014  11:51:00       64.685     -136.543      -21.075       87.382      109.491       64.758     7635.695    11988.270     4193.539        2.354        1.191      151.090       67.072        0.197      347.562       26.620      866.718
05/15/2014  11:52:00      146.831     -143.168      -10.115       68.229       70.516       38.693     4655.138     4972.526     1497.130        2.664        0.556      205.076       33.859        0.027      346.974       25.607      866.714
05/15/2014  11:53:00       38.146       -3.959       73.108       46.574       75.138       53.712     2169.122     5645.733     2884.995        0.876        0.535       38.351       51.813        1.825      347.690       26.843      866.701
05/15/2014  11:54:00      120.230     -114.511        0.635       72.292       93.715       47.469     5226.159     8782.446     2253.350        2.191        0.813      166.036       59.022        0.126      347.271       26.118      866.679
05/15/2014  11:55:00       61.629      -13.630       24.634       88.452       45.174       50.622     7823.763     2040.684     2562.609        0.851        0.621       63.118       42.902        0.462      346.915       25.505      866.659
05/15/2014  11:56:00       65.404       45.650       44.989       85.284       66.879       59.084     7273.287     4472.769     3490.962        1.181        0.762       79.759       58.791        0.543      347.473       26.468      866.621
05/15/2014  11:57:00       20.268       27.969       67.841       76.571       87.174       81.009     5863.128     7599.317     6562.411        1.291        1.001       34.541       74.904        4.703      347.758       26.961      866.587
05/15/2014  11:58:00      101.015      -22.058       62.681       87.351      109.814       84.809     7630.264    12059.011     7192.561        2.075        1.344      103.395       88.209        0.728      347.468       26.457      866.579
05/15/2014  11:59:00       80.372      -25.152       15.610       56.192       78.280       47.243     3157.579     6127.693     2231.911        0.942        0.576       84.215       47.383        0.317      347.201       25.999      866.585
05/15/2014  12:00:00      106.014     -136.413       -1.274       51.552       96.701       46.891     2657.632     9351.095     2198.796        2.203        0.710      172.764       40.881        0.056      347.505       26.521      866.561
05/15/2014  12:01:00      148.862     -201.849      -23.748       46.070       51.590       23.838     2122.413     2661.542      568.235        3.441        0.268      250.804       19.923        0.006      347.132       25.876      866.564
05/15/2014  12:02:00       50.186      -60.908       32.804       62.266       85.540       60.147     3876.997     7317.175     3617.673        1.106        0.741       78.920       67.592        0.734      347.579       26.650      866.559
05/15/2014  12:03:00      103.029       -7.490       43.987       55.140      115.170       56.649     3040.460    13264.233     3209.106        1.606        0.976      103.301       66.214        0.411      347.309       26.183      866.540
05/15/2014  12:04:00       55.127      -63.342       20.982       69.111       82.606       56.729     4776.331     6823.719     3218.218        1.115        0.741       83.971       61.745        0.541      347.716       26.887      866.511
05/15/2014  12:05:00       74.716       84.157       96.674       85.717       72.661       50.148     7347.430     5279.589     2514.809        1.857        0.757      112.538       30.739        0.075      347.643       26.760      866.486
05/15/2014  12:06:00       76.629        6.228       79.035       76.617       83.052       61.527     5870.198     6897.685     3785.617        1.435        0.828       76.882       63.333        0.679      347.767       26.974      866.490
05/15/2014  12:07:00       86.984      -34.134       32.269       80.721       78.920       52.341     6515.823     6228.368     2739.602        1.263        0.774       93.441       40.503        0.188      347.611       26.706      866.488
05/15/2014  12:08:00       22.535     -148.288      -28.419       49.558      106.239       54.753     2455.961    11286.697     2997.862        2.002        0.837      149.990       45.942        0.094      347.627       26.733      866.461
05/15/2014  12:09:00       45.309      -11.680       25.782       65.796       68.619       57.802     4329.098     4708.562     3341.074        0.761        0.619       46.790       41.289        0.779      348.024       27.419      866.466
05/15/2014  12:10:00       49.199       -4.119       35.734       63.315       54.655       42.145     4008.830     2987.167     1776.196        0.624        0.439       49.371       42.907        0.755      347.781       27.000      866.439
05/15/2014  12:11:00       35.794      -48.007       51.972       53.900      132.882       68.010     2905.171    17657.602     4625.409        1.573        1.259       59.882       80.381        1.802      348.205       27.730      866.392
05/15/2014  12:12:00       75.705     -129.038      -12.489       82.979      120.866       79.867     6885.432    14608.628     6378.747        2.520        1.394      149.607       75.103        0.252      347.850       27.117      866.368
05/15/2014  12:13:00      106.090      -97.042       19.671      109.643      158.226      101.968    12021.691    25035.356    10397.500        3.425        2.373      143.779      117.348        0.666      347.857       27.128      866.349
05/15/2014  12:14:00       93.766     -147.809        9.029       51.537      146.153       57.125     2656.096    21360.754     3263.259        2.900        1.364      175.042       70.672        0.163      347.424       26.380      866.380
05/15/2014  12:15:00      -26.396       40.889        5.993       83.257       22.625       52.736     6931.656      511.881     2781.131        0.631        0.511       48.669       57.246        1.384      347.391       26.327      866.366
05/15/2014  12:16:00      -11.808       49.056        4.401       55.581       30.002       28.720     3089.267      900.113      824.862        0.369        0.241       50.457        9.689        0.037      347.796       27.027      866.310
05/15/2014  12:17:00        5.758       45.907       10.108       24.800       38.157       32.086      615.044     1455.919     1029.518        0.267        0.155       46.266       25.328        0.300      347.927       27.251      866.283
05/15/2014  12:18:00       20.392       23.635       17.048       32.186       41.475       32.695     1035.918     1720.177     1068.952        0.254        0.191       31.216       16.317        0.273      348.049       27.462      866.269
05/15/2014  12:19:00       54.880     -142.422      -21.752       59.533       84.943       45.614     3544.137     7215.234     2080.663        1.830        0.642      152.630       44.879        0.086      347.935       27.263      866.247
05/15/2014  12:20:00      131.952     -144.910      -27.179       59.295       63.280       45.613     3515.920     4004.409     2080.561        2.437        0.480      195.985       27.599        0.020      347.827       27.076      866.230
05/15/2014  12:21:00       38.443       32.706       58.120       72.573       74.037       54.793     5266.910     5481.537     3002.272        0.984        0.688       50.473       59.647        1.397      348.151       27.638      866.207
05/15/2014  12:22:00       63.908     -102.259        1.910       70.674       68.430       55.562     4994.771     4682.621     3087.132        1.365        0.638      120.587       45.839        0.145      348.116       27.577      866.219
05/15/2014  12:23:00       84.494     -133.679       28.731       88.668       90.503       63.378     7862.029     8190.790     4016.734        2.295        1.003      158.143       56.353        0.127      347.880       27.168      866.208
05/15/2014  12:24:00       49.781      -48.734       73.641       58.125      126.822       71.365     3378.528    16083.824     5092.956        1.741        1.228       69.664       80.999        1.352      347.985       27.350      866.168
05/15/2014  12:25:00       15.673     -153.927       29.436      146.094      139.045       80.752    21343.492    19333.423     6520.909        3.599        2.360      154.723       64.231        0.172      347.936       27.263      866.148
05/15/2014  12:26:00       12.964     -144.001       33.619      118.687      138.566       84.217    14086.598    19200.663     7092.541        3.120        2.019      144.584       79.867        0.305      347.906       27.213      866.158
05/15/2014  12:27:00       65.780      -81.631        7.735       68.232       96.694       59.252     4655.594     9349.752     3510.825        1.428        0.876      104.836       60.861        0.337      347.842       27.105      866.150
05/15/2014  12:28:00       74.169      -35.108       26.290       84.241       79.513       55.458     7096.585     6322.254     3075.557        1.196        0.825       82.059       54.628        0.443      348.140       27.619      866.114
05/15/2014  12:29:00       60.133       32.509       96.216       86.609      147.648       92.617     7501.092    21799.947     8577.920        2.590        1.894       68.358      110.706        2.623      348.161       27.654      866.081
05/15/2014  12:30:00       82.638      -56.325       49.310       79.652      101.225       62.855     6344.513    10246.584     3950.788        1.648        1.027      100.008       61.381        0.377      347.942       27.274      866.075
05/15/2014  12:31:00       68.239     -150.185      -16.449       47.863       92.904       28.872     2290.873     8631.128      833.597        1.962        0.588      164.961       14.929        0.008      347.797       27.024      866.066
05/15/2014  12:32:00      142.215     -161.499       13.925       78.026      107.585       61.170     6087.992    11574.555     3741.762        3.395        1.070      215.191       70.650        0.108      347.964       27.312      866.046
05/15/2014  12:33:00      130.731      -75.875        1.766       77.630       95.756       48.235     6026.485     9169.177     2326.613        2.018        0.876      151.154       50.540        0.112      348.060       27.480      866.038
05/15/2014  12:34:00       50.161       82.800       95.158       68.460       61.006       50.499     4686.725     3721.764     2550.171        1.469        0.548       96.809       42.081        0.189      348.148       27.634      866.032
05/15/2014  12:35:00      -14.873       23.062       67.032       57.189       71.469       44.968     3270.549     5107.873     2022.144        0.782        0.520       27.442       40.554        2.184      348.563       28.350      866.037
05/15/2014  12:36:00      -41.066      -87.290        1.682       82.044       77.388       44.695     6731.138     5988.934     1997.649        1.201        0.736       96.468       40.548        0.177      348.313       27.920      866.048
05/15/2014  12:37:00      -16.616      -64.132      -16.041      103.257       61.144       51.681    10662.097     3738.593     2670.932        1.086        0.854       66.250       32.582        0.242      348.151       27.637      866.041
05/15/2014  12:38:00      -50.550      -12.446       12.892       54.359       67.683       38.365     2954.935     4580.971     1471.881        0.594        0.450       52.060       23.914        0.211      347.947       27.286      866.032
05/15/2014  12:39:00      -15.666     -135.790       -5.980       57.336       98.164       38.525     3287.465     9636.181     1484.155        1.656        0.720      136.691       26.774        0.038      347.710       26.875      866.039
05/15/2014  12:40:00      -43.929      -45.282       10.285       37.975       50.473       24.476     1442.103     2547.562      599.064        0.434        0.229       63.089       26.934        0.182      347.840       27.100      866.010
05/15/2014  12:41:00      -38.789      -68.720        9.980       22.841       34.460       21.362      521.689     1187.482      456.338        0.425        0.108       78.911       14.609        0.034      347.588       26.667      866.005
05/15/2014  12:42:00       36.467       13.947       52.840       55.009       62.580       38.963     3025.947     3916.202     1518.107        0.639        0.423       39.043       26.921        0.475      348.072       27.500      865.990
05/15/2014  12:43:00        4.901       13.467       32.221       81.582       73.621       50.223     6655.555     5420.091     2522.338        0.792        0.730       14.331       62.294       18.894      347.877       27.165      865.965
05/15/2014  12:44:00      -48.950      -16.484       -7.067       53.271       27.860       28.867     2837.764      776.164      833.329        0.358        0.222       51.651       12.852        0.062      348.016       27.404      865.952
05/15/2014  12:45:00       44.233       27.644       13.075       32.885       20.839       35.060     1081.424      434.255     1229.195        0.282        0.137       52.161       27.959        0.287      348.270       27.844      865.951
05/15/2014  12:46:00       45.537       27.922        6.496       60.025       33.855       31.478     3602.967     1146.134      990.855        0.432        0.287       53.416       31.517        0.348      347.867       27.147      865.946
05/15/2014  12:47:00        9.332      -77.171        3.518       47.097       64.814       33.845     2218.081     4200.902     1145.506        0.681        0.378       77.733       18.212        0.055      348.253       27.815      865.939
05/15/2014  12:48:00       65.563     -129.607       12.611       60.104      102.576       55.257     3612.505    10521.773     3053.317        1.922        0.859      145.246       56.608        0.152      348.132       27.606      865.909
05/15/2014  12:49:00       36.737     -232.669      -33.931      162.524       85.255       56.820    26414.145     7268.393     3228.459        4.677        1.846      235.552       44.727        0.036      347.882       27.168      865.898
05/15/2014  12:50:00        2.758        9.081       40.766       50.580       51.815       43.426     2558.339     2684.846     1885.857        0.444        0.356        9.490       17.701        3.479      348.458       28.168      865.863
05/15/2014  12:51:00       32.523       53.010       87.278       74.241       68.008       50.247     5511.779     4625.089     2524.801        1.207        0.633       62.192       42.245        0.461      348.530       28.294      865.828
05/15/2014  12:52:00      -55.919     -226.142       -9.023      113.967      134.602       50.168    12988.560    18117.763     2516.828        4.398        1.681      232.953       52.104        0.050      348.023       27.414      865.836
05/15/2014  12:53:00      -62.524     -196.212       -7.201       67.926      102.827       50.915     4613.946    10573.346     2592.310        3.012        0.889      205.933       40.625        0.039      347.795       27.020      865.833
05/15/2014  12:54:00       42.135      -56.349       33.758       70.379       85.256       57.624     4953.167     7268.561     3320.473        1.081        0.777       70.360       53.152        0.571      348.396       28.062      865.826
05/15/2014  12:55:00       20.663      -32.883       19.699       53.989       71.443       50.946     2914.786     5104.060     2595.498        0.625        0.531       38.836       49.070        1.596      348.334       27.954      865.814
05/15/2014  12:56:00        4.935       18.519       55.373       41.758       81.152       44.745     1743.697     6585.678     2002.121        0.688        0.517       19.166       53.493        7.790      348.236       27.785      865.799
05/15/2014  12:57:00      -69.234      -19.546       10.734       90.386       61.959       31.331     8169.544     3838.877      981.652        0.914        0.650       71.940       37.108        0.266      348.328       27.943      865.784
05/15/2014  12:58:00     -146.889      -72.933        6.894      114.004       75.918       46.517    12996.928     5763.552     2163.838        2.393        1.046      163.999       48.182        0.086      348.258       27.821      865.756
05/15/2014  12:59:00     -181.398     -187.165        0.481      103.195       92.741       50.985    10649.304     8600.938     2599.511        4.489        1.092      260.645       45.765        0.031      348.028       27.422      865.807
05/15/2014  13:00:00      -77.769     -118.793        8.503       82.129       74.630       35.716     6745.101     5569.707     1275.611        1.691        0.680      141.985       30.849        0.047      348.274       27.850      865.831
05/15/2014  13:01:00     -248.158      -45.604        2.030      107.312       85.516       49.748    11515.862     7312.990     2474.832        4.248        1.065      252.313       51.286        0.041      348.077       27.507      865.776
05/15/2014  13:02:00      -89.922      -61.618       11.624       82.454       73.831       39.302     6798.662     5451.016     1544.636        1.290        0.690      109.008       33.913        0.097      348.358       27.994      865.719
05/15/2014  13:03:00     -137.310     -145.456        7.293      114.220      130.723       57.840    13046.100    17088.616     3345.516        3.677        1.674      200.029       56.378        0.079      348.350       27.980      865.724
05/15/2014  13:04:00     -303.905     -102.326      -10.429      147.650      104.605       57.297    21800.500    10942.122     3282.998        6.947        1.801      320.669       52.975        0.027      348.305       27.901      865.705
05/15/2014  13:05:00     -415.684     -103.110      -11.734      110.153       95.375       61.553    12133.624     9096.318     3788.758       10.429        1.251      428.281       56.625        0.017      348.036       27.436      865.682
05/15/2014  13:06:00     -323.050      -67.668      -25.437      120.932       87.731       50.419    14624.460     7696.697     2542.027        6.722        1.243      330.061       40.547        0.015      348.129       27.596      865.618
05/15/2014  13:07:00     -129.564       90.817        4.564      117.932      164.219       67.489    13908.018    26967.919     4554.812        3.523        2.272      158.223       45.847        0.084      348.558       28.341      865.564
05/15/2014  13:08:00     -159.371      152.314      -25.423       96.345      136.885       66.022     9282.308    18737.506     4358.950        4.081        1.619      220.451       54.520        0.061      348.354       27.986      865.539
05/15/2014  13:09:00      -59.503       16.679        4.776       79.555       51.241       47.644     6328.970     2625.606     2269.909        0.753        0.561       61.796       46.523        0.567      348.694       28.577      865.526
05/15/2014  13:10:00      -26.676     -116.654       -5.284      114.173       61.816       52.614    13035.370     3821.229     2768.249        1.698        0.981      119.665       32.717        0.075      348.630       28.465      865.549
05/15/2014  13:11:00     -103.775       11.243       21.181      129.901      102.635       64.564    16874.300    10533.947     4168.490        2.145        1.579      104.382       67.642        0.420      348.735       28.647      865.520
05/15/2014  13:12:00     -195.723      -70.121       17.241      163.821      141.556       68.530    26837.251    20038.054     4696.386        4.754        2.579      207.905       82.273        0.157      348.628       28.459      865.538
05/15/2014  13:13:00     -375.341     -212.112      -14.993      159.239      114.097       70.305    25357.209    13018.157     4942.789       11.470        2.166      431.129       75.276        0.030      348.154       27.640      865.526
05/15/2014  13:14:00     -310.856      -60.254      -13.069      190.999      128.484       68.548    36480.599    16508.116     4698.875        7.905        2.884      316.641       88.210        0.078      348.427       28.111      865.494
05/15/2014  13:15:00     -155.371      -66.956       16.624      162.281      108.914       71.932    26335.058    11862.168     5174.236        3.613        2.169      169.184       77.006        0.207      348.611       28.431      865.500
05/15/2014  13:16:00     -222.522     -205.639        0.070      143.783      110.919       57.870    20673.513    12303.126     3348.883        6.406        1.816      302.990       58.113        0.037      348.258       27.819      865.510
05/15/2014  13:17:00     -147.826     -152.002       -5.319       94.330      105.191       48.768     8898.191    11065.113     2378.345        3.366        1.117      212.031       44.475        0.044      348.298       27.890      865.492
05/15/2014  13:18:00      -96.622     -227.225      -14.077      196.091      163.053       67.173    38451.778    26586.362     4512.258        6.534        3.478      246.915       73.928        0.090      348.243       27.795      865.472
05/15/2014  13:19:00      -88.992     -184.003       -4.168      109.315      101.695       67.015    11949.803    10341.822     4491.064        3.428        1.339      204.394       37.664        0.034      348.526       28.283      865.438
05/15/2014  13:20:00      -84.184     -224.245        3.766      122.682      164.748       60.366    15050.937    27141.966     3644.077        5.160        2.292      239.526       59.415        0.062      348.580       28.377      865.496
05/15/2014  13:21:00     -169.970     -153.356       -1.952      101.168      149.881       53.020    10235.017    22464.279     2811.136        4.395        1.776      228.927       52.834        0.053      348.618       28.441      865.486
05/15/2014  13:22:00     -280.127     -244.943       -2.250      152.308      128.007       64.164    23197.774    16385.868     4117.018        9.108        2.185      372.113       67.839        0.033      348.147       27.627      865.465
05/15/2014  13:23:00     -105.409     -177.917        0.721       82.935      109.595       34.419     6878.208    12011.152     1184.684        3.142        1.004      206.798       35.939        0.030      348.151       27.635      865.423
05/15/2014  13:24:00     -139.556     -228.488        8.454      106.821      109.320       56.364    11410.784    11950.880     3176.916        4.914        1.327      267.736       61.264        0.052      348.451       28.154      865.401
05/15/2014  13:25:00     -135.256     -150.341       14.392      157.866      117.606       86.060    24921.708    13831.267     7406.248        4.362        2.308      202.229       91.702        0.206      348.569       28.358      865.387
05/15/2014  13:26:00     -273.015        2.549      -19.856      133.110       82.988       49.655    17718.168     6887.055     2465.642        5.100        1.354      273.027       54.038        0.039      348.460       28.170      865.366
05/15/2014  13:27:00     -136.334      -34.913        8.079      183.213      111.654       64.199    33566.847    12466.519     4121.552        3.500        2.508      140.734       83.371        0.351      348.703       28.592      865.332
05/15/2014  13:28:00      -11.177     -176.877      -10.925      270.942      189.997      106.819    73409.665    36098.829    11410.247        7.620        6.046      177.230      115.155        0.422      348.445       28.142      865.320
05/15/2014  13:29:00      -64.634      -35.200       18.477      105.069       67.580       54.822    11039.444     4567.068     3005.445        1.218        0.931       73.597       56.324        0.586      348.989       29.088      865.408
05/15/2014  13:30:00     -321.635     -258.420        5.180      188.408      141.064       97.320    35497.521    19899.171     9471.106       11.755        3.243      412.589       91.949        0.050      348.396       28.058      865.385
05/15/2014  13:31:00     -148.235     -122.585       -5.853       79.141      122.199       44.059     6263.277    14932.653     1941.234        3.008        1.157      192.356       42.617        0.049      348.169       27.666      865.358
05/15/2014  13:32:00     -299.095     -246.748       -3.275      170.648      132.775       70.300    29120.598    17629.237     4942.080       10.101        2.585      387.740       90.695        0.055      348.293       27.880      865.341
05/15/2014  13:33:00     -212.351     -290.364       -3.273      134.700      153.826       74.442    18144.107    23662.389     5541.660        8.837        2.367      359.728       65.388        0.033      348.275       27.848      865.347
05/15/2014  13:34:00     -411.549     -191.221      -10.512      200.861      170.927       75.942    40345.062    29216.127     5767.126       14.067        3.766      453.804       77.590        0.029      348.657       28.509      865.346
05/15/2014  13:35:00     -399.705      -83.756      -16.075      207.463      149.897       75.762    43041.001    22469.103     5739.925       11.913        3.563      408.386       82.361        0.041      348.341       27.963      865.394
05/15/2014  13:36:00     -177.933     -127.903        4.567      128.567      104.818       55.387    16529.410    10986.890     3067.680        3.931        1.529      219.133       57.522        0.069      348.286       27.868      865.367
05/15/2014  13:37:00     -252.499      -90.729      -22.857      119.734      103.748       48.266    14336.163    10763.668     2329.645        4.996        1.371      268.305       55.303        0.042      348.525       28.280      865.365
05/15/2014  13:38:00     -446.183       14.070      -28.238      167.985      113.282       76.737    28218.904    12832.761     5888.630       12.350        2.347      446.405       77.038        0.030      348.569       28.357      865.368
05/15/2014  13:39:00     -456.155       28.019      -39.393      150.959      128.346       69.984    22788.745    16472.667     4897.738       12.728        2.208      457.014       74.139        0.026      348.460       28.168      865.361
05/15/2014  13:40:00     -189.342      -70.067      -10.899      162.039       70.240       52.834    26256.519     4933.705     2791.442        3.742        1.699      201.891       71.914        0.127      348.121       27.584      865.380
05/15/2014  13:41:00      -52.153       17.787       17.816       43.937       35.093       31.293     1930.430     1231.507      979.260        0.375        0.207       55.103       26.121        0.225      348.731       28.643      865.336
05/15/2014  13:42:00     -191.601      247.169      -43.610       79.680      111.798       51.316     6348.884    12498.744     2633.307        6.059        1.074      312.736       44.190        0.020      348.290       27.876      865.321
05/15/2014  13:43:00     -107.926       84.013       -7.022       78.872      102.929       42.244     6220.784    10594.292     1784.515        1.867        0.930      136.771       41.624        0.093      348.488       28.219      865.281
05/15/2014  13:44:00     -150.112        8.630      -12.833       80.583       68.729       33.548     6493.546     4723.689     1125.476        1.756        0.617      150.360       38.665        0.066      348.515       28.266      865.270
05/15/2014  13:45:00     -121.518      -71.160       13.684       99.473       86.300       53.506     9894.791     7447.693     2862.853        2.011        1.010      140.820       44.113        0.098      348.686       28.562      865.303
05/15/2014  13:46:00     -168.103     -174.425       -5.924      114.895      113.473       43.270    13200.817    12876.154     1872.313        4.333        1.397      242.245       43.392        0.032      348.461       28.171      865.297
05/15/2014  13:47:00     -167.791     -196.318       -4.358      153.065      113.474       54.545    23428.925    12876.335     2975.208        5.299        1.964      258.253       39.910        0.024      348.383       28.036      865.281
05/15/2014  13:48:00      -89.566     -185.687      -31.458       66.464       96.711       39.305     4417.453     9352.986     1544.909        2.940        0.766      206.159       21.805        0.011      348.157       27.645      865.281
05/15/2014  13:49:00       13.517       43.583       74.709       47.800       43.942       48.902     2284.880     1930.888     2391.443        0.713        0.330       45.631       16.391        0.129      348.537       28.307      865.190
05/15/2014  13:50:00      -83.093      -68.275       10.632      122.928       66.511       40.628    15111.193     4423.766     1650.670        1.643        1.059      107.545       30.744        0.082      348.694       28.576      865.190
05/15/2014  13:51:00     -238.109      -81.994        6.351      153.184      136.834       62.050    23465.447    18723.638     3850.179        5.474        2.302      251.831       60.517        0.058      348.486       28.217      865.222
05/15/2014  13:52:00     -142.564     -159.830        0.903      121.330       91.779       48.974    14720.978     8423.449     2398.436        3.570        1.277      214.173       48.074        0.050      348.303       27.897      865.203
05/15/2014  13:53:00      -89.652      -89.384      -12.300       92.119       62.196       36.565     8485.852     3868.348     1336.978        1.493        0.685      126.598       23.803        0.035      348.374       28.021      865.160
05/15/2014  13:54:00      -65.298      -14.566       -4.104       69.256       29.834       38.679     4796.391      890.064     1496.087        0.584        0.359       66.903       44.428        0.441      348.910       28.952      865.114
05/15/2014  13:55:00     -136.189      -43.307       -2.103       85.668       59.315       33.612     7339.000     3518.222     1129.761        1.620        0.599      142.909       43.491        0.093      348.739       28.654      865.097
05/15/2014  13:56:00     -176.013      -58.619       14.958      117.815       60.856       46.963    13880.451     3703.499     2205.565        2.721        0.989      185.517       56.157        0.092      348.688       28.565      865.125
05/15/2014  13:57:00     -447.598     -249.768      -30.440      222.366      137.169       79.669    49446.523    18815.319     6347.172       16.912        3.730      512.570       74.843        0.021      348.442       28.138      865.117
05/15/2014  13:58:00     -242.879     -165.850        2.098      160.032      125.504       81.037    25610.174    15751.155     6566.946        6.720        2.396      294.103       78.528        0.071      348.717       28.614      865.076
05/15/2014  13:59:00     -572.916      -53.558      -36.265      179.452      133.278       76.420    32203.195    17762.955     5840.010       19.410        2.790      575.414       81.103        0.020      348.466       28.179      865.111
05/15/2014  14:00:00     -362.904      -55.165       -8.792      189.649      122.514       88.246    35966.910    15009.686     7787.445        9.678        2.938      367.073      102.830        0.078      348.555       28.333      865.149
05/15/2014  14:01:00     -281.366      -72.137        1.802      127.144      101.990       57.777    16165.690    10401.961     3338.196        5.713        1.495      290.466       61.868        0.045      348.659       28.513      865.158
05/15/2014  14:02:00     -155.282      -95.990        8.656      115.334       90.040       64.918    13302.010     8107.183     4214.339        2.951        1.281      182.556       40.894        0.050      348.751       28.672      865.153
05/15/2014  14:03:00     -188.895     -268.477        0.007      153.885      220.568       73.389    23680.457    48650.153     5386.006        9.272        3.886      328.270       98.628        0.090      348.611       28.431      865.160
05/15/2014  14:04:00     -247.832     -209.520      -14.036      151.890      115.665       67.873    23070.603    13378.393     4606.721        7.328        2.053      324.530       59.134        0.033      348.402       28.066      865.170
05/15/2014  14:05:00      -78.429     -109.527      -11.071       91.676      108.412       42.966     8404.403    11753.116     1846.119        2.013        1.100      134.712       45.619        0.115      348.498       28.234      865.152
05/15/2014  14:06:00      -50.717      -31.139       10.005       68.128       49.743       28.917     4641.405     2474.394      836.207        0.580        0.398       59.513       30.220        0.258      348.993       29.096      865.093
05/15/2014  14:07:00     -251.380     -127.119       -4.160      154.928       92.028       53.636    24002.549     8469.138     2876.827        5.735        1.767      281.693       61.501        0.048      348.451       28.154      865.123
05/15/2014  14:08:00     -294.015     -155.277      -14.455      132.955      151.534       87.096    17677.100    22962.604     7585.706        7.949        2.411      332.499       87.157        0.069      348.480       28.203      865.062
05/15/2014  14:09:00     -158.925      -76.401        1.282      136.069      113.403       56.007    18514.714    12860.201     3136.772        3.280        1.726      176.336       67.196        0.145      348.785       28.734      865.042
05/15/2014  14:10:00      -94.841     -186.173       -0.193      120.359       88.818       65.379    14486.285     7888.601     4274.439        3.515        1.332      208.938       49.407        0.056      348.868       28.875      865.063
05/15/2014  14:11:00     -251.376     -414.511       -0.591      236.223      225.378      102.862    55801.201    50795.024    10580.679       17.607        5.859      484.778      111.285        0.053      348.417       28.095      865.075
05/15/2014  14:12:00     -349.229     -144.300      -18.405      164.540      173.383       70.049    27073.391    30061.704     4906.814       10.257        3.102      377.867       66.964        0.031      348.071       27.497      865.097
05/15/2014  14:13:00      -75.120      -47.653        9.753       54.687       53.388       40.011     2990.710     2850.265     1600.879        0.772        0.372       88.959       21.572        0.059      348.294       27.885      865.019
05/15/2014  14:14:00     -227.130     -301.635       -6.165      171.164      200.488       66.693    29297.202    40195.269     4447.897       10.826        3.697      377.587       85.682        0.051      348.310       27.908      865.086
05/15/2014  14:15:00     -305.605     -273.953      -10.544      156.665      159.125       81.376    24544.016    25320.888     6622.022       11.251        2.824      410.420       71.231        0.030      348.320       27.926      865.066
05/15/2014  14:16:00     -206.312     -411.504       -0.674      174.039      202.381       90.910    30289.575    40958.053     8264.666       14.569        3.976      460.326       76.375        0.028      348.363       28.001      865.030
05/15/2014  14:17:00     -138.545     -245.536       21.402      160.728      200.203       88.118    25833.506    40081.091     7764.732        7.680        3.684      281.927      103.598        0.135      348.619       28.443      865.087
05/15/2014  14:18:00     -284.098     -254.173      -15.851      129.375      136.467       66.560    16737.795    18623.306     4430.241        9.267        1.990      381.203       57.259        0.023      348.478       28.200      865.056
05/15/2014  14:19:00     -171.404     -285.440       -5.708      144.126      155.410       69.695    20772.179    24152.348     4857.442        8.033        2.489      332.950       71.021        0.046      348.260       27.824      865.059
05/15/2014  14:20:00     -200.005     -208.694       -6.615      118.100      102.399       58.867    13947.630    10485.575     3465.322        5.574        1.395      289.059       54.159        0.035      348.110       27.563      865.032
05/15/2014  14:21:00      -84.361     -107.562       24.022      102.763       85.528       55.668    10560.153     7314.963     3098.871        2.011        1.049      136.698       47.766        0.122      348.449       28.152      865.028
05/15/2014  14:22:00     -188.305     -136.635        6.599      124.544      125.032       70.103    15511.289    15633.037     4914.465        4.511        1.803      232.654       76.732        0.109      348.585       28.385      865.045
05/15/2014  14:23:00     -132.619     -270.607       -0.029      124.261      139.591       76.550    15440.703    19485.709     5859.827        6.579        2.039      301.356       67.619        0.050      348.396       28.058      865.044
05/15/2014  14:24:00     -174.212     -319.790        8.300      141.195      213.322       91.794    19935.967    45506.278     8426.189       10.326        3.693      364.164       86.303        0.056      348.514       28.263      865.024
05/15/2014  14:25:00     -134.690     -287.698      -10.953      162.590      118.511       62.630    26435.591    14044.848     3922.528        7.271        2.220      317.665       60.870        0.037      348.163       27.654      865.010
05/15/2014  14:26:00     -238.705     -225.577      -12.302      173.854      177.554       62.011    30225.161    31525.505     3845.425        8.679        3.280      328.428       64.134        0.038      348.408       28.078      864.948
05/15/2014  14:27:00     -447.756     -242.643       -2.006      200.052      200.692       85.595    40020.737    40277.423     7326.485       17.348        4.381      509.276       93.225        0.034      348.459       28.166      864.935
05/15/2014  14:28:00     -302.455     -190.238      -11.841      185.981      136.182       66.601    34589.006    18545.622     4435.719        9.268        2.879      357.309       78.545        0.048      348.566       28.352      864.930
05/15/2014  14:29:00     -184.425     -293.753        9.029      147.935      199.579       75.292    21884.632    39831.863     5668.873        9.387        3.369      346.848       92.499        0.071      348.530       28.291      864.906
05/15/2014  14:30:00     -233.443     -407.765      -24.013      144.598      180.426       88.273    20908.567    32553.559     7792.120       14.129        3.063      469.859       58.287        0.015      348.167       27.662      864.880
05/15/2014  14:31:00     -314.020     -219.297        0.411      209.475      167.877       78.772    43879.821    28182.520     6204.977       11.247        3.913      383.014       86.686        0.051      348.436       28.128      864.827
05/15/2014  14:32:00     -438.474     -165.911       12.117      235.213      171.666      110.171    55325.207    29469.136    12137.712       15.841        4.847      468.814      120.138        0.066      348.494       28.227      864.785
05/15/2014  14:33:00     -476.767     -259.545       -9.342      224.057      195.872       99.430    50201.567    38365.794     9886.413       19.659        4.923      542.836       91.188        0.028      348.474       28.192      864.844
05/15/2014  14:34:00     -535.617     -165.800       -6.861      233.626      176.041       85.959    54581.282    30990.521     7388.919       20.367        4.648      560.692       95.990        0.029      348.426       28.111      864.838
05/15/2014  14:35:00     -298.193     -208.383      -15.191      167.844      151.786       74.596    28171.502    23038.875     5564.587        9.466        2.839      363.789       65.902        0.033      348.519       28.271      864.873
05/15/2014  14:36:00     -356.738     -298.881      -12.791      215.015      181.599       94.720    46231.349    32978.218     8971.807       15.245        4.409      465.394      109.981        0.056      348.414       28.088      864.886
05/15/2014  14:37:00     -356.823     -233.885      -15.768      172.119      186.832       81.776    29624.841    34906.240     6687.394       12.673        3.561      426.644       76.740        0.032      348.435       28.124      864.866
05/15/2014  14:38:00     -234.531     -242.218        5.052      161.279      228.178       76.507    26010.931    52065.250     5853.245        9.880        4.196      337.156       72.619        0.046      348.509       28.252      864.838
05/15/2014  14:39:00     -154.643     -258.106        1.532      144.178      177.182       78.335    20787.247    31393.403     6136.321        7.441        2.916      300.888       68.134        0.051      348.310       27.909      864.851
05/15/2014  14:40:00     -171.957     -203.188      -15.457      113.235      134.567       57.763    12822.188    18108.306     3336.524        5.267        1.713      266.185       47.228        0.031      348.398       28.062      864.819
05/15/2014  14:41:00     -117.555      -98.663       -8.470      155.751       76.307       60.153    24258.232     5822.823     3618.339        2.866        1.685      153.472       70.050        0.208      348.757       28.683      864.820
05/15/2014  14:42:00     -340.413     -234.583       -3.119      230.432      115.311       79.388    53098.740    13296.652     6302.400       12.179        3.635      413.413      103.570        0.063      348.647       28.491      864.832
05/15/2014  14:43:00     -454.157     -190.887      -17.717      162.941      156.052       78.929    26549.782    24352.277     6229.827       15.006        2.857      492.642       74.493        0.023      348.621       28.447      864.824
05/15/2014  14:44:00     -573.386     -137.400      -16.370      201.891      260.737       81.478    40760.103    67983.663     6638.628       23.163        5.769      589.618       89.225        0.023      348.661       28.517      864.791
05/15/2014  14:45:00     -334.295     -159.956      -21.914      196.318      180.922       91.549    38540.949    32732.746     8381.270       10.872        3.983      370.593       88.257        0.057      348.692       28.571      864.812
05/15/2014  14:46:00     -398.120     -165.650       -8.435      221.262      175.045      102.276    48956.839    30640.579    10460.298       13.802        4.503      431.207      112.078        0.068      348.515       28.264      864.802
05/15/2014  14:47:00     -438.161     -206.132      -22.367      203.249      182.490       84.633    41310.297    33302.478     7162.797       15.836        4.089      484.227       64.989        0.018      348.386       28.041      864.802
05/15/2014  14:48:00      -78.808      -30.235       31.486      156.141      103.479       63.815    24379.874    10707.961     4072.396        2.363        1.958       84.408       77.267        0.838      348.905       28.941      864.778
05/15/2014  14:49:00     -239.164     -169.013      -11.645      144.711      122.547       72.696    20941.381    15017.701     5284.740        6.356        2.062      292.857       74.618        0.065      348.957       29.029      864.804
05/15/2014  14:50:00     -323.228     -134.295      -18.515      258.377      140.635       83.821    66758.867    19778.334     7025.911       10.819        4.678      350.017       85.780        0.060      348.663       28.521      864.794
05/15/2014  14:51:00     -633.366     -192.407      -25.274      298.302      204.956      100.040    88984.159    42006.910    10007.950       28.988        7.050      661.946      126.774        0.037      348.265       27.831      864.737
05/15/2014  14:52:00     -257.771      -67.547        8.749      206.203      139.971       68.341    42519.599    19591.990     4670.546        6.892        3.339      266.474       90.647        0.116      348.596       28.405      864.769
05/15/2014  14:53:00     -245.542     -248.153        9.209      206.792      158.869       98.165    42762.729    25239.254     9636.395        9.978        3.882      349.100       88.962        0.065      348.492       28.223      864.760
05/15/2014  14:54:00     -472.299     -376.874        2.035      247.991      209.234      114.618    61499.348    43778.821    13137.268       24.174        5.921      604.236      137.408        0.052      348.349       27.977      864.718
05/15/2014  14:55:00     -581.570     -252.377       -9.964      274.893      207.265      108.793    75566.250    42958.766    11835.868       26.616        6.518      633.970      135.885        0.046      348.128       27.596      864.738
05/15/2014  14:56:00     -308.739     -146.398        0.302      187.657      176.469       80.342    35215.112    31141.393     6454.872        9.477        3.641      341.690       83.214        0.059      348.289       27.874      864.797
05/15/2014  14:57:00     -255.401       40.873        7.403      181.190      122.744       86.720    32829.673    15066.175     7520.344        6.117        2.771      258.651       95.302        0.136      348.418       28.096      864.751
05/15/2014  14:58:00     -290.549     -156.194        2.919      188.254      152.324       79.372    35439.482    23202.530     6299.974        8.687        3.247      329.871       78.294        0.056      348.393       28.052      864.745
05/15/2014  14:59:00     -445.005     -277.495        6.291      237.314      185.668      113.492    56317.711    34472.596    12880.503       18.935        5.184      524.436      114.692        0.048      348.248       27.803      864.711
05/15/2014  15:00:00     -483.232     -319.809        0.987      240.208      197.669       96.857    57699.896    39073.185     9381.224       22.095        5.308      579.474      114.694        0.039      348.217       27.748      864.716
05/15/2014  15:01:00     -468.979     -291.486      -20.333      192.931      181.636       93.052    37222.450    32991.577     8658.750       19.208        3.944      552.182      102.547        0.034      348.000       27.373      864.721
05/15/2014  15:02:00     -270.538     -101.259        1.623      151.803      152.432       64.121    23044.084    23235.614     4111.539        6.691        2.520      288.867       72.363        0.063      348.215       27.745      864.711
05/15/2014  15:03:00     -164.540     -100.689       -4.165      117.422      106.306       56.419    13787.991    11301.044     3183.077        3.274        1.414      192.903       50.287        0.068      348.363       28.003      864.686
05/15/2014  15:04:00     -225.625     -172.635        5.491      149.606      102.871       73.656    22381.821    10582.364     5425.174        5.956        1.919      284.094       67.718        0.057      348.625       28.455      864.700
05/15/2014  15:05:00     -338.537     -132.965        1.334      238.642      187.865      113.394    56949.903    35293.208    12858.285       11.867        5.255      363.713      126.560        0.121      348.576       28.370      864.656
05/15/2014  15:06:00     -462.161     -300.971      -13.375      213.837      155.662      101.810    45726.274    24230.797    10365.263       19.232        4.016      551.522       99.593        0.033      348.518       28.270      864.697
05/15/2014  15:07:00     -494.684     -210.095      -17.485      267.237      157.323      101.551    71415.636    24750.650    10312.613       19.780        5.324      537.450      116.668        0.047      348.360       27.995      864.691
05/15/2014  15:08:00     -523.485     -166.280       -6.493      224.032      163.032       89.705    50190.533    26579.541     8046.926       19.326        4.241      549.259      106.719        0.038      348.294       27.882      864.690
05/15/2014  15:09:00     -409.977     -203.156       -7.602      244.542      155.064       87.962    59800.752    24044.819     7737.291       15.048        4.579      457.551      101.614        0.049      348.386       28.040      864.695
05/15/2014  15:10:00     -378.046     -197.879        7.418      248.428      129.605       76.812    61716.695    16797.505     5900.068       13.326        4.221      426.703       84.797        0.039      348.482       28.206      864.686
05/15/2014  15:11:00     -171.667     -161.380       14.212      148.383      119.777       77.598    22017.508    14346.515     6021.495        4.904        2.119      235.613       62.996        0.071      348.558       28.340      864.735
05/15/2014  15:12:00     -289.885      -76.154        4.798      178.607      136.254       77.063    31900.348    18565.214     5938.769        7.312        2.820      299.721       88.620        0.087      348.547       28.317      864.713
05/15/2014  15:13:00     -296.450     -165.490        8.520      225.296      182.741      104.227    50758.329    33394.292    10863.300       10.516        4.751      339.514      124.859        0.135      348.513       28.261      864.648
05/15/2014  15:14:00     -262.237     -173.675       14.489      167.847      157.132       86.514    28172.546    24690.457     7484.599        7.973        3.017      314.533       91.725        0.085      348.609       28.427      864.675
05/15/2014  15:15:00     -396.820      -97.527       -0.846      210.059      150.064       98.688    44124.766    22519.262     9739.398       12.167        3.819      408.629      112.583        0.076      348.439       28.131      864.615
05/15/2014  15:16:00     -212.826     -141.567        7.122      139.558      124.627       70.785    19476.318    15531.948     5010.575        5.270        2.001      255.610       66.416        0.068      348.699       28.582      864.620
05/15/2014  15:17:00     -177.700     -213.540       -6.884      167.768      100.990       71.509    28146.185    10198.959     5113.512        6.033        2.173      277.806       86.959        0.098      348.637       28.475      864.601
05/15/2014  15:18:00     -336.171     -169.504       -2.669      160.883      166.558       84.250    25883.225    27741.697     7098.100       10.122        3.036      376.487       91.995        0.060      348.740       28.653      864.600
05/15/2014  15:19:00     -238.136     -233.201       11.556      225.803      186.436       92.395    50986.786    34758.226     8536.821       10.273        4.714      333.303      107.646        0.104      348.734       28.644      864.604
05/15/2014  15:20:00     -271.352     -267.478        4.535      225.122      160.841       97.608    50679.978    25869.687     9527.272       11.562        4.304      381.020       91.374        0.058      348.612       28.430      864.617
05/15/2014  15:21:00     -611.084     -342.287      -11.925      298.518      272.027      114.610    89112.891    73998.882    13135.567       33.345        8.812      700.417      132.063        0.036      348.207       27.732      864.575
05/15/2014  15:22:00     -460.378     -317.383       22.946      285.841      205.267      123.977    81705.059    42134.339    15370.231       22.618        6.960      559.178      163.255        0.085      348.225       27.763      864.609
05/15/2014  15:23:00     -332.816     -161.818        7.651      177.577      155.536       76.714    31533.513    24191.369     5884.972        9.930        3.080      370.069       81.886        0.049      348.171       27.671      864.672
05/15/2014  15:24:00     -356.226     -160.613      -14.151      229.324      161.137       83.614    52589.706    25965.049     6991.242       11.920        4.277      390.760       86.161        0.049      348.313       27.915      864.610
05/15/2014  15:25:00     -438.620     -265.411      -13.425      146.512      114.985       73.348    21465.721    13221.510     5379.939       15.153        2.003      512.670       67.574        0.017      348.188       27.699      864.607
05/15/2014  15:26:00     -269.500     -214.711       -3.162      143.743      123.915       62.496    20662.180    15354.964     3905.718        7.932        1.996      344.574       63.461        0.034      348.410       28.081      864.609
05/15/2014  15:27:00     -594.289     -437.863      -14.304      310.689      192.937      104.926    96527.599    37224.844    11009.401       34.491        7.238      738.176      122.695        0.028      348.285       27.865      864.592
05/15/2014  15:28:00     -614.899     -398.588       -1.172      277.833      195.216      128.215    77191.163    38109.445    16439.005       33.433        6.587      732.784      138.369        0.036      348.059       27.475      864.608
05/15/2014  15:29:00     -376.898     -205.206       -7.629      189.050      169.868       76.869    35739.737    28855.199     5908.833       12.735        3.525      429.141       73.817        0.030      348.071       27.497      864.588
05/15/2014  15:30:00     -387.863     -211.377      -20.669      214.749      156.190       71.620    46117.217    24395.363     5129.412       13.558        3.782      441.722       76.253        0.030      348.175       27.675      864.549
05/15/2014  15:31:00     -539.844     -297.916      -16.737      263.913      187.294       93.961    69649.989    35079.068     8828.635       24.699        5.678      616.591      103.046        0.028      348.347       27.974      864.594
05/15/2014  15:32:00     -324.949     -232.763       -8.879      178.860      149.825      104.169    31991.019    22447.638    10851.141       11.256        3.264      399.713      101.038        0.064      348.259       27.820      864.577
05/15/2014  15:33:00     -249.576     -177.902       23.057      206.116      195.923       92.474    42483.659    38385.747     8551.488        9.193        4.471      306.492      111.480        0.132      348.424       28.109      864.524
05/15/2014  15:34:00     -448.582     -256.417       -4.469      259.628      221.666      135.427    67406.705    49135.708    18340.392       20.091        6.744      516.697      147.315        0.081      348.470       28.185      864.484
05/15/2014  15:35:00     -428.258     -215.671       -1.034      216.306      171.011      103.610    46788.153    29244.821    10735.095       15.833        4.338      479.499       93.793        0.038      348.449       28.148      864.543
05/15/2014  15:36:00     -339.779     -238.457       -7.204      245.740      173.455       98.637    60387.991    30086.719     9729.288       13.626        5.010      415.104      123.920        0.089      348.504       28.244      864.581
05/15/2014  15:37:00     -273.737     -109.976        1.841      158.102      140.430       73.723    24996.133    19720.623     5435.117        6.858        2.508      295.002       81.239        0.076      348.658       28.512      864.598
05/15/2014  15:38:00     -476.831     -233.777      -27.611      193.486      151.765       74.382    37436.705    23032.485     5532.677       17.438        3.300      531.055       55.839        0.011      348.411       28.083      864.611
05/15/2014  15:39:00     -275.026     -283.945       -6.706      160.290      204.511       91.805    25692.958    41824.854     8428.127       11.611        3.797      395.302       72.997        0.034      348.263       27.829      864.613
05/15/2014  15:40:00     -268.335     -160.543       11.269      173.361      139.172       77.845    30053.967    19368.819     6059.773        7.668        2.774      312.694       82.942        0.070      348.253       27.810      864.587
05/15/2014  15:41:00     -345.593     -218.728       -4.753      146.230      107.833       67.538    21383.354    11628.057     4561.447       10.243        1.879      408.995       72.452        0.031      348.206       27.730      864.532
05/15/2014  15:42:00     -460.657     -145.510      -23.942      219.454      194.467       81.082    48160.276    37817.381     6574.286       16.323        4.628      483.092       85.878        0.032      348.251       27.806      864.557
05/15/2014  15:43:00     -348.339     -252.603        7.451      214.170      193.537       95.868    45868.717    37456.621     9190.706       13.884        4.626      430.289      117.190        0.074      348.349       27.978      864.548
05/15/2014  15:44:00     -394.543     -314.264      -14.504      186.771      173.606      106.211    34883.346    30139.039    11280.809       16.545        3.815      504.407      101.175        0.040      348.202       27.722      864.558
05/15/2014  15:45:00     -295.408     -184.806      -12.451      147.925      101.133       69.321    21881.774    10227.826     4805.401        7.924        1.846      348.452       52.508        0.023      348.341       27.962      864.515
05/15/2014  15:46:00     -267.883     -222.005        5.330      202.140      170.410       76.921    40860.552    29039.599     5916.890        9.843        3.791      347.918       71.842        0.043      348.469       28.183      864.507
05/15/2014  15:47:00     -566.640     -274.317       -6.552      288.255      185.473       93.225    83090.664    34400.369     8690.957       26.125        6.309      629.548      119.092        0.036      348.240       27.788      864.498
05/15/2014  15:48:00     -430.758     -222.549      -28.814      205.024      178.787       86.755    42034.890    31964.960     7526.505       15.870        4.076      484.851       83.652        0.030      348.166       27.661      864.505
05/15/2014  15:49:00     -357.855     -219.326      -10.546      190.805      230.410       91.342    36406.470    53088.744     8343.349       13.704        4.892      419.719       97.360        0.054      348.266       27.832      864.475
05/15/2014  15:50:00     -368.441     -222.347      -17.245      148.373      186.548       57.018    22014.508    34800.270     3251.097       12.276        3.003      430.333       70.427        0.027      348.202       27.724      864.463
05/15/2014  15:51:00     -402.207     -203.410      -10.590      211.578      148.326       95.742    44765.140    22000.744     9166.443       13.958        3.797      450.717       99.490        0.049      348.365       28.004      864.507
05/15/2014  15:52:00     -437.573     -101.177      -23.264      185.562      174.493       78.264    34433.290    30447.776     6125.218       13.661        3.550      449.118       79.388        0.031      348.345       27.971      864.539
05/15/2014  15:53:00     -266.032     -280.711        2.418      222.447      158.330       97.075    49482.770    25068.414     9423.643       11.676        4.199      386.745      109.830        0.081      348.279       27.855      864.506
05/15/2014  15:54:00     -322.829      -31.517        3.865      233.523      140.291       83.665    54533.162    19681.468     6999.820        9.320        4.061      324.364      102.184        0.099      348.374       28.020      864.496
05/15/2014  15:55:00     -295.539      -25.604      -18.576      174.904      136.810       69.820    30591.582    18716.880     4874.887        7.125        2.709      296.646       80.056        0.073      348.428       28.114      864.489
05/15/2014  15:56:00     -285.311     -183.279        6.281      245.063      195.575      104.160    60055.952    38249.557    10849.218       11.207        5.458      339.107      124.073        0.134      348.297       27.886      864.495
05/15/2014  15:57:00     -397.950     -216.909      -12.747      260.318      151.119       81.795    67765.403    22836.971     6690.359       15.141        4.865      453.225      110.998        0.060      348.123       27.585      864.465
05/15/2014  15:58:00     -357.184     -106.339       -1.464      206.301      168.343      100.016    42559.946    28339.389    10003.273       10.988        4.045      372.677       91.860        0.061      348.231       27.771      864.462
05/15/2014  15:59:00     -421.755     -111.471      -16.652      196.277      146.956       84.159    38524.589    21596.118     7082.673       12.888        3.360      436.237       94.956        0.047      348.158       27.646      864.461
05/15/2014  16:00:00     -256.671     -167.221        0.501      216.897      161.793      100.338    47044.280    26176.965    10067.671        8.855        4.164      306.338      109.405        0.128      348.288       27.872      864.440
05/15/2014  16:01:00     -365.018     -160.693       -7.411      224.867      234.567      101.087    50565.386    55021.755    10218.505       13.744        5.790      398.824      107.979        0.073      348.332       27.948      864.438
05/15/2014  16:02:00     -306.212     -281.120       -2.520      250.593      180.999      124.190    62796.777    32760.754    15423.207       14.187        5.549      415.685      146.728        0.125      348.199       27.717      864.441
05/15/2014  16:03:00     -390.685     -147.869      -16.105      253.881      172.124      106.620    64455.456    29626.629    11367.853       14.008        5.272      417.732      118.572        0.081      348.080       27.512      864.408
05/15/2014  16:04:00     -564.377     -319.002      -28.063      194.686      197.172      101.236    37902.646    38876.691    10248.777       25.403        4.351      648.293       95.951        0.022      348.001       27.375      864.419
05/15/2014  16:05:00     -422.316     -179.785      -28.936      196.517      200.211       94.168    38618.787    40084.503     8867.564       14.952        4.379      458.992      102.472        0.050      348.143       27.620      864.401
05/15/2014  16:06:00     -436.292     -190.920       -6.256      194.567      151.918       84.567    37856.322    23079.142     7151.530       14.745        3.404      476.237       89.334        0.035      348.043       27.447      864.430
05/15/2014  16:07:00     -349.631      -95.699        6.027      203.270      172.695       90.346    41318.852    29823.703     8162.409       10.535        3.965      362.491      101.335        0.078      348.104       27.553      864.446
05/15/2014  16:08:00     -431.238     -257.218       12.734      223.033      233.131      115.125    49743.562    54350.272    13253.697       18.480        5.867      502.123      116.761        0.054      348.042       27.446      864.429
05/15/2014  16:09:00     -340.816     -170.305       -2.290      236.688      139.984       83.895    56021.337    19595.605     7038.337       11.389        4.133      380.997      100.098        0.069      348.129       27.597      864.442
05/15/2014  16:10:00     -371.350      -81.347      -17.834      144.600      123.806       79.026    20909.142    15327.971     6245.031        9.365        2.124      380.155       79.444        0.044      348.144       27.623      864.480
05/15/2014  16:11:00     -445.286      -46.588      -16.114      262.041      170.617       97.541    68665.579    29110.299     9514.309       15.398        5.365      447.717      113.565        0.064      348.095       27.538      864.460
05/15/2014  16:12:00     -276.156     -152.010       12.294      195.944      184.838      100.812    38394.197    34165.224    10162.979        9.110        4.136      315.229      106.240        0.114      348.151       27.635      864.441
05/15/2014  16:13:00     -340.296     -228.175       14.949      185.202      172.824       81.742    34299.618    29868.103     6681.801       11.945        3.542      409.714       84.094        0.042      348.092       27.531      864.439
05/15/2014  16:14:00     -213.967     -113.941       12.601      212.944      171.408       85.403    45345.236    29380.656     7293.677        7.045        4.101      242.413       99.847        0.170      348.314       27.917      864.433
05/15/2014  16:15:00     -487.107     -322.960      -13.056      285.669      198.004      121.092    81606.650    39205.718    14663.171       23.858        6.774      584.446      144.225        0.061      347.980       27.339      864.388
05/15/2014  16:16:00     -283.508     -187.973       12.349      211.098      163.631       91.062    44562.238    26775.240     8292.199        9.773        3.981      340.162      104.083        0.094      348.120       27.582      864.430
05/15/2014  16:17:00     -440.951     -265.635       -5.083      247.624      207.020      112.576    61317.657    42857.248    12673.387       19.091        5.842      514.782      118.161        0.053      348.000       27.374      864.408
05/15/2014  16:18:00     -361.592     -218.197      -17.287      215.731      149.309       87.690    46539.724    22293.236     7689.541       12.757        3.826      422.325       97.438        0.053      348.084       27.518      864.409
05/15/2014  16:19:00     -338.128     -290.911        2.758      191.818      170.422       86.302    36794.056    29043.529     7447.995       13.611        3.664      446.049       87.775        0.039      348.017       27.403      864.384
05/15/2014  16:20:00     -274.881     -149.961        1.613      165.496      125.987       73.030    27388.832    15872.812     5333.324        7.331        2.430      313.126       66.426        0.045      348.201       27.720      864.400
05/15/2014  16:21:00     -273.022      -10.762       -2.651      143.815      144.425       72.134    20682.719    20858.449     5203.262        6.069        2.337      273.234       68.875        0.064      348.493       28.227      864.400
05/15/2014  16:22:00     -322.878      -93.930       -0.083      182.030      102.524       63.749    33135.032    10511.252     4063.967        8.038        2.386      336.263       59.568        0.031      348.589       28.392      864.405
05/15/2014  16:23:00     -282.167     -108.110       20.640      239.505      170.094       98.324    57362.747    28932.121     9667.575        9.383        4.798      302.169      123.441        0.167      348.345       27.971      864.386
05/15/2014  16:24:00     -380.844      -26.963      -30.475      265.183      152.958       79.411    70322.012    23396.261     6306.065       12.334        5.001      381.798      101.724        0.071      348.324       27.934      864.397
05/15/2014  16:25:00     -266.221     -124.080       -3.185      171.096      122.616       82.077    29273.880    15034.682     6736.675        6.865        2.552      293.717       69.501        0.056      348.456       28.162      864.419
05/15/2014  16:26:00     -298.287      -84.889      -12.707      184.585      116.807       64.008    34071.458    13643.817     4097.072        7.407        2.591      310.131       65.700        0.045      348.425       28.110      864.400
05/15/2014  16:27:00     -419.256      -55.374        0.981      229.933      258.201      115.475    52869.045    66667.888    13334.368       15.583        6.644      422.897      119.515        0.080      348.301       27.894      864.370
05/15/2014  16:28:00     -435.450      -88.164       -8.733      257.244      191.810       99.375    66174.693    36790.955     9875.470       15.513        5.642      444.286      114.767        0.067      348.234       27.779      864.399
05/15/2014  16:29:00     -416.449      -35.701      -12.743      190.070      149.253       84.745    36126.712    22276.406     7181.760       12.021        3.279      417.977       87.601        0.044      348.213       27.742      864.404
05/15/2014  16:30:00     -381.805      -89.790      -16.859      238.240      186.574      118.874    56758.299    34809.716    14131.054       12.989        5.285      392.221      115.770        0.087      348.121       27.583      864.373
05/15/2014  16:31:00     -414.431      -89.263       -8.467      229.986      139.632       88.754    52893.412    19497.202     7877.318       13.001        4.013      423.935       96.494        0.052      348.106       27.557      864.336
05/15/2014  16:32:00     -571.724     -113.101      -27.875      257.248      165.941       95.558    66176.513    27536.296     9131.361       22.162        5.142      582.804      112.369        0.037      348.164       27.657      864.323
05/15/2014  16:33:00     -650.977     -116.435      -14.561      264.871      185.667      102.757    70156.519    34472.417    10559.071       27.634        5.759      661.308      117.116        0.031      347.931       27.253      864.347
05/15/2014  16:34:00     -479.541     -216.302      -17.395      245.104      209.095      110.178    60075.743    43720.605    12139.301       19.647        5.797      526.067      121.964        0.054      347.928       27.248      864.365
05/15/2014  16:35:00     -274.610      -79.411       22.411      230.973      162.021      100.468    53348.518    26250.875    10093.805        8.594        4.485      285.862      120.628        0.178      348.111       27.567      864.390
05/15/2014  16:36:00     -412.209     -163.400      -14.122      178.248      146.134       74.535    31772.433    21355.146     5555.423       12.774        2.934      443.413       71.867        0.026      348.049       27.457      864.387
05/15/2014  16:37:00     -546.938     -321.215      -29.275      244.982      163.827      103.308    60015.989    26839.216    10672.519       25.033        4.876      634.287      117.863        0.035      347.884       27.173      864.393
05/15/2014  16:38:00     -459.826     -248.128      -20.218      200.443      171.717       85.238    40177.403    29486.588     7265.495       17.516        3.846      522.501       79.441        0.023      347.972       27.326      864.395
05/15/2014  16:39:00     -398.904     -212.420        4.016      268.034      163.910      102.876    71842.109    26866.428    10583.482       15.676        5.465      451.937      107.946        0.057      348.052       27.463      864.419
05/15/2014  16:40:00     -474.523     -343.341      -39.635      254.843      247.173      107.781    64944.917    61094.729    11616.677       24.111        6.883      585.709      132.622        0.051      347.935       27.260      864.406
05/15/2014  16:41:00     -491.885     -395.281        0.453      297.048      218.182      126.759    88237.704    47603.231    16067.790       27.502        7.595      631.029      162.585        0.066      347.765       26.968      864.357
05/15/2014  16:42:00     -528.169     -368.704        4.679      313.429      214.770      139.792    98237.612    46126.219    19541.765       28.938        8.195      644.132      163.795        0.065      347.817       27.057      864.303
05/15/2014  16:43:00     -556.611     -289.322        5.588      332.643      264.039      137.737   110651.062    69716.691    18971.495       29.641        9.967      627.314      164.810        0.069      347.838       27.094      864.330
05/15/2014  16:44:00     -577.916     -344.331      -16.166      293.026      249.771      118.731    85864.410    62385.481    14096.951       30.755        8.117      672.719      149.581        0.049      347.716       26.885      864.340
05/15/2014  16:45:00     -468.058     -183.339       -5.958      258.968      188.949       90.616    67064.211    35701.803     8211.331       18.183        5.549      502.685      101.977        0.041      347.848       27.110      864.342
05/15/2014  16:46:00     -498.122      -38.825      -12.761      180.206      208.213       94.375    32474.209    43352.791     8906.617       16.725        4.237      499.633       91.096        0.033      347.901       27.203      864.327
05/15/2014  16:47:00     -314.591     -156.886      -11.930      194.461      126.043       71.423    37814.986    15886.942     5101.304        9.125        2.940      351.541       88.535        0.063      348.109       27.562      864.352
05/15/2014  16:48:00     -291.057     -156.762       21.942      226.728      161.276       85.077    51405.511    26009.835     7238.131        9.719        4.233      330.588       97.542        0.087      348.088       27.525      864.348
05/15/2014  16:49:00     -328.746     -257.036        9.066      188.306      159.300       95.219    35458.966    25376.613     9066.620       12.205        3.495      417.303       93.794        0.051      348.006       27.384      864.344
05/15/2014  16:50:00     -404.601     -232.086       -7.970      261.655      190.132       99.877    68463.368    36150.183     9975.367       16.609        5.729      466.440      122.951        0.069      347.952       27.290      864.344
05/15/2014  16:51:00     -547.256     -345.748      -21.922      263.353      168.530       98.477    69354.862    28402.447     9697.731       26.346        5.373      647.326      111.475        0.030      347.837       27.093      864.322
05/15/2014  16:52:00     -365.603     -209.718       14.330      255.122      252.282      118.542    65087.348    63646.135    14052.266       16.029        7.139      421.483      145.582        0.119      347.898       27.196      864.343
05/15/2014  16:53:00     -570.960     -423.533      -13.482      321.593      253.806      137.849   103422.207    64417.291    19002.212       34.616        9.342      710.898      167.476        0.055      347.678       26.818      864.318
05/15/2014  16:54:00     -466.502     -340.115       10.954      311.748      214.296      129.931    97186.783    45922.571    16882.128       24.668        8.000      577.323      141.112        0.060      347.733       26.913      864.353
05/15/2014  16:55:00     -478.430     -220.843      -18.556      312.082      172.669      104.695    97395.467    29814.556    10960.939       20.806        6.909      526.941      144.899        0.076      347.839       27.096      864.398
05/15/2014  16:56:00     -480.720     -260.040       15.843      264.144      239.468      123.259    69772.164    57344.874    15192.882       22.061        7.115      546.546      138.179        0.064      347.827       27.073      864.398
05/15/2014  16:57:00     -339.454     -162.913        6.377      167.552      197.190       98.684    28073.806    38883.716     9738.602       10.924        3.835      376.523       91.830        0.059      347.905       27.210      864.423
05/15/2014  16:58:00     -471.482      -15.205      -27.562      301.921      163.221      101.340    91156.161    26641.043    10269.771       17.565        6.403      471.727      124.718        0.070      347.845       27.106      864.425
05/15/2014  16:59:00     -317.649     -130.795        0.929      226.406      173.122       99.977    51259.492    29971.189     9995.428       10.460        4.561      343.524       96.268        0.079      347.918       27.232      864.406
05/15/2014  17:00:00     -453.652       44.418      -13.449      227.045      123.909       83.153    51549.593    15353.421     6914.395       14.087        3.691      455.821       93.156        0.042      347.867       27.142      864.404
05/15/2014  17:01:00     -420.327      -43.853      -23.259      228.769      182.322       84.576    52335.163    33241.399     7153.142       13.592        4.636      422.609       91.563        0.047      347.957       27.299      864.407
05/15/2014  17:02:00     -464.453      -72.220      -13.719      277.610      196.080       92.756    77067.394    38447.556     8603.628       17.259        6.206      470.034      100.830        0.046      347.997       27.368      864.396
05/15/2014  17:03:00     -348.077      -68.926       14.996      248.164      227.961      105.514    61585.458    51966.404    11133.293       12.538        6.234      354.836      118.673        0.112      347.964       27.312      864.416
05/15/2014  17:04:00     -375.352     -251.558       -3.770      246.384      203.937      126.759    60704.832    41590.144    16067.839       16.125        5.918      451.852      128.619        0.081      347.793       27.015      864.421
05/15/2014  17:05:00     -375.768      -98.692       -5.051      207.350      149.317       98.554    42993.943    22295.529     9712.816       11.297        3.750      388.512       96.944        0.062      347.881       27.169      864.422
05/15/2014  17:06:00     -544.541     -112.377      -18.667      278.670      198.262       99.534    77656.829    39307.852     9907.028       21.816        6.344      556.015      120.029        0.047      347.811       27.046      864.444
05/15/2014  17:07:00     -489.171     -229.911      -14.920      268.030      219.427      115.843    71839.906    48148.210    13419.670       21.286        6.670      540.507      127.901        0.056      347.656       26.779      864.454
05/15/2014  17:08:00     -638.853     -220.099      -28.463      258.924      216.443      121.412    67041.587    46847.661    14740.893       29.298        6.432      675.704      122.834        0.033      347.537       26.575      864.459
05/15/2014  17:09:00     -572.424     -227.533      -38.624      216.588      194.344      100.833    46910.242    37769.544    10167.377       23.787        4.742      615.988       97.481        0.025      347.515       26.535      864.478
05/15/2014  17:10:00     -524.828     -202.135      -28.227      269.376      201.300      109.221    72563.620    40521.713    11929.246       22.103        6.251      562.408      107.760        0.037      347.563       26.619      864.484
05/15/2014  17:11:00     -384.143     -156.101      -13.345      226.208      182.137       92.690    51169.896    33173.931     8591.491       13.250        4.647      414.649       97.526        0.055      347.654       26.777      864.472
05/15/2014  17:12:00     -224.893      -74.007       26.012      206.347      130.872       86.713    42578.919    17127.453     7519.212        6.196        3.361      236.757       98.606        0.173      347.903       27.207      864.494
05/15/2014  17:13:00     -497.236     -241.043      -14.616      252.826      162.705      117.449    63920.868    26472.837    13794.173       20.485        5.209      552.581      125.988        0.052      347.774       26.982      864.506
05/15/2014  17:14:00     -526.654     -267.079      -17.090      326.203      212.674      123.012   106408.178    45230.096    15132.004       25.785        8.339      590.505      126.751        0.046      347.632       26.739      864.503
05/15/2014  17:15:00     -482.276     -227.453      -24.123      263.412      164.537      114.838    69385.901    27072.423    13187.705       19.725        5.482      533.222      131.176        0.061      347.614       26.707      864.482
05/15/2014  17:16:00     -386.913     -297.646       14.894      294.320      228.175      128.577    86624.274    52064.041    16532.086       19.684        7.761      488.154      150.539        0.095      347.653       26.774      864.474
05/15/2014  17:17:00     -564.247     -211.727      -22.972      214.408      177.765       87.457    45970.959    31600.376     7648.796       22.446        4.261      602.664       94.917        0.025      347.600       26.685      864.480
05/15/2014  17:18:00     -303.042      -93.786        7.740      218.825      187.846       80.955    47884.482    35286.083     6553.759        9.519        4.486      317.222       95.496        0.091      347.798       27.025      864.470
05/15/2014  17:19:00     -317.543     -187.155       -5.242      205.589      158.300       87.043    42266.887    25058.791     7576.534       10.538        3.745      368.593       86.077        0.055      347.835       27.088      864.465
05/15/2014  17:20:00     -537.690     -147.640      -13.754      398.573      226.257      118.298   158860.683    51192.214    13994.331       26.753       11.202      557.591      179.066        0.103      347.669       26.803      864.453
05/15/2014  17:21:00     -367.373      -57.661       -9.994      246.380      171.461       88.978    60702.937    29398.902     7917.061       11.818        4.901      371.870      106.374        0.082      347.666       26.798      864.477
05/15/2014  17:22:00     -559.963     -161.627      -11.919      255.595      222.941      116.308    65328.808    49702.809    13527.493       23.417        6.428      582.822      120.762        0.043      347.617       26.712      864.452
05/15/2014  17:23:00     -430.654     -229.515       -7.215      251.223      240.938      115.805    63112.800    58050.929    13410.893       18.636        6.729      487.996      134.888        0.076      347.563       26.621      864.456
05/15/2014  17:24:00     -542.876     -258.042      -34.230      220.874      248.582      110.029    48785.133    61792.953    12106.469       24.255        6.134      601.083      111.951        0.035      347.526       26.555      864.435
05/15/2014  17:25:00     -602.192     -355.569      -12.889      306.628      209.374      130.661    94020.538    43837.546    17072.195       32.205        7.747      699.332      156.629        0.050      347.430       26.388      864.443
05/15/2014  17:26:00     -591.190     -234.571      -31.192      298.445      251.497      114.745    89069.583    63250.507    13166.455       28.546        8.274      636.026      123.118        0.037      347.394       26.327      864.460
05/15/2014  17:27:00     -527.828     -257.864      -18.237      245.802      235.871      107.855    60418.828    55635.007    11632.652       23.653        6.384      587.448      115.500        0.039      347.471       26.459      864.431
05/15/2014  17:28:00     -455.175      -95.047      -16.392      291.273      216.866      115.951    84840.237    47031.042    13444.555       18.087        7.266      464.993      129.219        0.077      347.527       26.557      864.416
05/15/2014  17:29:00     -422.654     -214.422      -12.978      272.606      211.980      111.408    74313.941    44935.325    12411.725       17.820        6.583      473.934      133.332        0.079      347.567       26.626      864.435
05/15/2014  17:30:00     -358.313     -135.046      -15.812      229.399      195.236       88.286    52623.803    38116.989     7794.497       12.269        4.927      382.917       92.342        0.058      347.651       26.770      864.426
05/15/2014  17:31:00     -534.030     -189.330      -20.949      158.364      163.673       79.808    25079.020    26788.877     6369.300       18.984        2.912      566.598       79.251        0.020      347.519       26.543      864.412
05/15/2014  17:32:00     -348.604     -139.274        9.408      258.550      169.682      100.793    66847.890    28792.035    10159.293       12.338        5.290      375.396      132.698        0.125      347.579       26.646      864.393
05/15/2014  17:33:00     -329.185     -155.003       -5.986      243.265      216.869      109.500    59178.079    47032.134    11990.147       12.529        5.910      363.853      141.137        0.150      347.643       26.758      864.388
05/15/2014  17:34:00     -431.572     -139.793       12.127      206.883      208.218       92.099    42800.699    43354.688     8482.258       15.027        4.732      453.648      104.852        0.053      347.617       26.713      864.390
05/15/2014  17:35:00     -378.427     -171.212       -5.029      181.578      159.353       68.160    32970.455    25393.371     4645.809       11.777        3.150      415.356       68.123        0.027      347.665       26.796      864.390
05/15/2014  17:36:00     -396.339     -219.715       -1.988      247.824      200.530      107.438    61416.841    40212.355    11542.965       15.925        5.659      453.166      120.203        0.070      347.598       26.680      864.374
05/15/2014  17:37:00     -451.923     -341.710        0.766      242.329      189.294      105.242    58723.468    35832.118    11075.837       21.330        5.282      566.569      121.437        0.046      347.434       26.397      864.346
05/15/2014  17:38:00     -446.033     -246.329      -10.196      202.959      172.071      103.012    41192.432    29608.530    10611.519       17.055        4.071      509.532      105.187        0.043      347.555       26.605      864.387
05/15/2014  17:39:00     -440.065     -326.991       -2.396      246.489      179.721       97.391    60757.040    32299.708     9485.053       20.154        5.127      548.252       98.427        0.032      347.522       26.547      864.398
05/15/2014  17:40:00     -342.057     -245.406       21.692      213.847      169.917      106.500    45730.511    28871.639    11342.253       13.180        4.297      420.983      105.360        0.063      347.518       26.542      864.398
05/15/2014  17:41:00     -281.140      -70.974       14.707      157.252      135.455       78.980    24728.052    18348.186     6237.873        6.679        2.466      289.960       86.801        0.090      347.631       26.737      864.445
05/15/2014  17:42:00     -321.421     -152.243       -9.999      221.902      134.440       91.358    49240.635    18074.010     8346.270       10.111        3.783      355.654      108.401        0.093      347.611       26.704      864.441
05/15/2014  17:43:00     -255.237     -237.788       -0.869      237.798      162.132       86.960    56547.939    26286.899     7562.093       10.603        4.520      348.840      114.859        0.108      347.554       26.604      864.449
05/15/2014  17:44:00     -212.226     -158.137       20.658      197.772      157.469      104.254    39113.883    24796.361    10868.802        7.261        3.739      264.664       94.233        0.127      347.585       26.658      864.429
05/15/2014  17:45:00     -356.340     -143.785      -13.164      226.103      163.500       76.875    51122.683    26732.394     5909.819       11.578        4.188      384.256       83.178        0.047      347.623       26.722      864.416
05/15/2014  17:46:00     -385.762     -184.513       -6.984      162.540      119.130       73.869    26419.237    14191.968     5456.627       11.448        2.303      427.618       74.164        0.030      347.598       26.680      864.429
05/15/2014  17:47:00     -393.614     -155.137      -13.308      211.314      197.161       90.190    44653.731    38872.300     8134.322       13.540        4.583      423.083      106.146        0.063      347.558       26.610      864.448
05/15/2014  17:48:00     -420.314      -54.722       -2.330      184.703      166.915       91.367    34115.324    27860.520     8347.920       12.498        3.516      423.861       95.818        0.051      347.577       26.643      864.442
05/15/2014  17:49:00     -480.350     -101.266      -32.374      273.848      167.470       88.374    74992.505    28046.254     7809.933       17.642        5.542      490.908      118.543        0.058      347.482       26.480      864.405
05/15/2014  17:50:00     -328.872     -102.312        7.181      213.219      163.976       99.930    45462.440    26888.144     9985.929       10.049        4.117      344.419      103.166        0.090      347.541       26.581      864.385
05/15/2014  17:51:00     -304.645     -104.295        3.738      187.991      128.615       83.160    35340.602    16541.807     6915.623        8.124        2.940      322.003       97.856        0.092      347.591       26.667      864.402
05/15/2014  17:52:00     -254.173     -162.123       -2.097      237.502      187.155      102.153    56407.400    35026.932    10435.240        9.636        5.093      301.476      111.420        0.137      347.594       26.674      864.386
05/15/2014  17:53:00     -177.025      -39.547       34.408      199.694      133.837       84.789    39877.625    17912.443     7189.179        4.952        3.249      181.388      100.217        0.305      347.601       26.685      864.392
05/15/2014  17:54:00     -327.355     -104.805       -3.337      220.491      152.407       85.943    48616.432    23227.938     7386.170        9.868        3.962      343.723       95.115        0.077      347.483       26.482      864.410
05/15/2014  17:55:00     -363.303     -324.562       -4.993      271.810      211.113      132.214    73880.560    44568.882    17480.445       18.662        6.796      487.165      144.080        0.087      347.360       26.270      864.401
05/15/2014  17:56:00     -286.393     -227.361        4.094      234.484      222.364       95.442    54982.885    49445.794     9109.124       12.361        5.677      365.670      119.163        0.106      347.425       26.382      864.375
05/15/2014  17:57:00     -252.062     -193.805       26.782      222.019      193.896      125.057    49292.607    37595.565    15639.308       10.215        5.126      317.956      116.971        0.135      347.486       26.486      864.401
05/15/2014  17:58:00     -487.430     -138.234      -23.460      239.407      229.453      109.677    57315.835    52648.689    12029.128       18.960        6.100      506.652      106.316        0.044      347.383       26.309      864.439
05/15/2014  17:59:00     -569.262      -93.837      -18.447      235.883      161.512      104.892    55640.930    26085.991    11002.284       21.295        4.636      576.944      106.866        0.034      347.357       26.265      864.447
05/15/2014  18:00:00     -489.466     -177.367       -7.646      207.994      203.803      102.308    43261.427    41535.527    10466.930       18.316        4.763      520.611      112.762        0.047      347.335       26.227      864.452
05/15/2014  18:01:00     -372.985     -237.680       -7.603      219.423      164.676      102.753    48146.274    27118.347    10558.115       14.073        4.291      442.278       99.161        0.050      347.299       26.164      864.459
05/15/2014  18:02:00     -388.145     -147.422       -4.318      187.605      168.456       91.857    35195.718    28377.586     8437.702       12.220        3.601      415.199       98.673        0.056      347.346       26.245      864.454
05/15/2014  18:03:00     -365.097      -73.711      -11.666      212.696      194.990       90.612    45239.395    38021.276     8210.473       11.515        4.574      372.463       96.884        0.068      347.410       26.355      864.487
05/15/2014  18:04:00     -420.764     -255.503      -21.557      217.787      201.375       90.076    47431.270    40551.869     8113.684       16.942        4.805      492.264       80.811        0.027      347.289       26.146      864.487
05/15/2014  18:05:00     -464.205     -210.062      -15.796      215.980      127.225       84.057    46647.416    16186.285     7065.535       16.487        3.495      509.522       94.919        0.035      347.238       26.059      864.464
05/15/2014  18:06:00     -396.468     -245.042       16.845      232.801      162.784       99.763    54196.413    26498.754     9952.584       15.406        4.532      466.082      101.833        0.048      347.240       26.063      864.456
05/15/2014  18:07:00     -645.202     -310.728      -28.913      233.499      208.985      105.557    54521.964    43674.711    11142.288       31.148        5.467      716.127      114.844        0.026      347.106       25.833      864.437
05/15/2014  18:08:00     -410.708     -215.447        2.912      277.005      223.876      106.434    76731.872    50120.376    11328.241       17.662        6.909      463.787      124.620        0.072      347.106       25.831      864.453
05/15/2014  18:09:00     -282.775     -129.053       -0.486      169.333      182.949       94.438    28673.646    33470.225     8918.618        8.383        3.553      310.832       89.809        0.083      347.204       26.000      864.453
05/15/2014  18:10:00     -312.281     -262.144       11.760      240.435      210.532      142.866    57809.105    44323.784    20410.599       14.444        6.127      407.724      149.295        0.134      347.141       25.893      864.451
05/15/2014  18:11:00     -465.215     -271.506        0.928      250.306      192.200      120.150    62653.277    36940.844    14436.047       20.206        5.702      538.646      122.069        0.051      347.117       25.850      864.440
05/15/2014  18:12:00     -444.598     -124.376      -11.281      291.264      153.127      107.922    84834.461    23448.026    11647.092       16.657        5.996      461.667      126.922        0.076      347.102       25.824      864.467
05/15/2014  18:13:00     -384.670      -52.955       -5.390      225.621      129.965       91.756    50904.892    16890.815     8419.215       11.349        3.811      388.298      111.841        0.083      347.149       25.907      864.477
05/15/2014  18:14:00     -259.716     -235.658       16.952      248.922      165.242      113.095    61962.165    27304.819    12790.472       11.265        5.103      350.696      141.221        0.162      347.143       25.897      864.467
05/15/2014  18:15:00     -557.950     -231.976      -17.936      350.392      250.140      116.353   122774.501    62569.804    13538.079       28.212        9.944      604.252      150.682        0.062      346.967       25.591      864.456
05/15/2014  18:16:00     -616.875     -200.591      -25.012      363.015      263.320      115.329   131779.958    69337.346    13300.796       31.786       10.721      648.669      156.465        0.058      346.918       25.508      864.481
05/15/2014  18:17:00     -224.617     -138.187       30.252      238.501      180.045      103.358    56882.662    32416.080    10682.805        8.520        4.999      263.720      117.672        0.199      346.898       25.474      864.438
05/15/2014  18:18:00     -325.231     -245.002       -6.946      232.937      239.766      112.987    54259.765    57487.756    12766.007       14.516        6.226      407.187      124.900        0.094      346.908       25.490      864.430
05/15/2014  18:19:00     -552.267      -67.933       -9.792      216.880      145.401       90.007    47036.770    21141.472     8101.337       19.298        3.814      556.429      103.784        0.035      346.875       25.432      864.482
05/15/2014  18:20:00     -454.081     -141.070      -21.949      234.102      167.830      105.433    54803.832    28166.984    11116.018       16.031        4.704      475.490      121.254        0.065      346.871       25.426      864.464
05/15/2014  18:21:00     -372.416      -83.955       -8.767      202.577      170.073      101.294    41037.632    28924.971    10260.489       11.301        4.011      381.762      101.479        0.071      346.938       25.542      864.461
05/15/2014  18:22:00     -548.570     -113.396       -7.451      278.635      170.332       94.880    77637.585    29013.073     9002.268       21.472        5.783      560.167      119.766        0.046      346.848       25.387      864.465
05/15/2014  18:23:00     -460.976      -99.543        1.169      268.903      198.005      102.474    72308.805    39206.174    10500.888       17.219        6.101      471.601      113.357        0.058      346.787       25.283      864.472
05/15/2014  18:24:00     -528.288      -62.723      -24.614      221.911      218.487       88.085    49244.298    47736.370     7759.053       19.416        5.237      531.998       92.872        0.030      346.774       25.261      864.484
05/15/2014  18:25:00     -612.093      -23.786      -25.898      259.338      209.755      104.690    67256.430    43997.056    10959.894       24.903        6.111      612.555      118.422        0.037      346.769       25.251      864.476
05/15/2014  18:26:00     -521.969     -191.842      -26.837      267.893      220.552      111.870    71766.488    48643.089    12514.809       22.142        6.646      556.107      111.171        0.040      346.758       25.234      864.458
05/15/2014  18:27:00     -764.490     -261.844      -41.561      350.871      191.876      114.253   123110.475    36816.511    13053.813       41.382        8.649      808.089       93.521        0.013      346.700       25.132      864.465
05/15/2014  18:28:00     -645.744      -96.143      -22.441      317.217      185.357      120.336   100626.851    34357.212    14480.807       28.807        7.473      652.862      144.144        0.049      346.720       25.168      864.513
05/15/2014  18:29:00     -569.998     -179.693      -21.291      248.017      197.520      107.935    61512.274    39014.301    11649.968       23.489        5.609      597.652      110.620        0.034      346.747       25.213      864.512
05/15/2014  18:30:00     -425.962     -162.548      -19.787      224.279      196.950       86.556    50301.031    38789.455     7491.870       15.240        4.829      455.923       85.188        0.035      346.772       25.255      864.556
05/15/2014  18:31:00     -389.900      -79.253      -16.503      218.637      135.408       78.232    47801.965    18335.296     6120.272       11.540        3.613      397.873       86.636        0.047      346.847       25.386      864.590
05/15/2014  18:32:00     -355.815      -70.687      -11.622      166.273      146.653       75.657    27646.564    21506.969     5723.953        9.330        2.744      362.768       75.657        0.043      346.850       25.392      864.602
05/15/2014  18:33:00     -283.035     -173.027        7.875      186.924      163.678       87.177    34940.446    26790.388     7599.782        8.971        3.467      331.733      104.390        0.099      346.842       25.377      864.606
05/15/2014  18:34:00     -279.781      -45.773      -15.464      211.392      137.326       82.138    44686.579    18858.555     6746.664        7.544        3.515      283.501       84.447        0.089      346.848       25.388      864.602
05/15/2014  18:35:00     -456.265      -83.787      -14.189      173.858      154.338      100.031    30226.646    23820.293    10006.145       13.971        3.203      463.894       97.495        0.044      346.771       25.254      864.608
05/15/2014  18:36:00     -534.108     -149.005      -21.139      151.434      190.120       83.326    22932.407    36145.681     6943.200       18.696        3.301      554.503       80.229        0.021      346.760       25.236      864.605
05/15/2014  18:37:00     -634.920      -21.785      -35.301      250.913      172.367       92.735    62957.317    29710.464     8599.711       25.304        5.063      635.294      108.009        0.029      346.716       25.159      864.600
05/15/2014  18:38:00     -551.078      -97.322      -16.588      237.854      176.737      103.666    56574.428    31236.033    10746.653       20.598        4.928      559.606      117.526        0.044      346.678       25.094      864.575
05/15/2014  18:39:00     -418.044     -128.907        4.584      252.176      197.319      104.242    63592.963    38934.897    10866.477       15.237        5.670      437.468      114.768        0.069      346.686       25.108      864.564
05/15/2014  18:40:00     -439.066      -41.707       -3.672      228.430      224.766       90.625    52180.379    50519.745     8212.932       15.270        5.546      441.043      108.248        0.060      346.665       25.074      864.553
05/15/2014  18:41:00     -387.597     -149.674       -4.705      228.538      151.421       95.072    52229.497    22928.393     9038.739       12.841        4.210      415.492      107.698        0.067      346.716       25.160      864.527
05/15/2014  18:42:00     -608.671      -29.048      -48.331      221.760      151.489       88.876    49177.657    22948.930     7898.872       22.683        4.001      609.364       95.987        0.025      346.641       25.030      864.531
05/15/2014  18:43:00     -664.820      -47.096      -57.283      212.588      169.758      103.369    45193.599    28817.885    10685.162       26.607        4.235      666.487      100.117        0.023      346.603       24.966      864.498
05/15/2014  18:44:00     -549.982     -132.524      -17.336      247.405      244.864      112.674    61209.351    59958.342    12695.542       22.708        6.693      565.723      114.820        0.041      346.590       24.944      864.469
05/15/2014  18:45:00     -609.730      -41.683      -39.764      209.440      204.622       97.810    43865.210    41870.130     9566.846       23.518        4.765      611.153      102.410        0.028      346.591       24.945      864.461
05/15/2014  18:46:00     -485.671      -78.685      -30.303      190.933      151.350      100.568    36455.349    22906.894    10113.986       15.622        3.474      492.004       95.083        0.037      346.611       24.979      864.441
05/15/2014  18:47:00     -617.240     -228.358      -35.632      295.212      254.628      115.741    87149.877    64835.475    13395.949       29.986        8.269      658.128      116.589        0.031      346.568       24.907      864.411
05/15/2014  18:48:00     -634.918     -195.199      -17.299      285.293      180.106       92.413    81391.935    32438.287     8540.188       28.192        6.119      664.247      108.704        0.027      346.553       24.879      864.449
05/15/2014  18:49:00     -551.553     -101.941      -27.446      232.886      219.670       95.742    54236.071    48255.020     9166.505       21.348        5.583      560.895      109.221        0.038      346.563       24.897      864.461
05/15/2014  18:50:00     -651.323      -89.279      -31.776      242.770      169.558      104.707    58937.079    28749.870    10963.526       26.591        4.933      657.414      124.088        0.036      346.516       24.816      864.433
05/15/2014  18:51:00     -529.173     -142.744      -23.640      259.317      196.396      108.356    67245.524    38571.475    11741.025       20.923        5.878      548.087      124.930        0.052      346.532       24.844      864.440
05/15/2014  18:52:00     -485.444      -23.972       -9.224      242.456      142.693       92.958    58784.845    20361.286     8641.270       16.203        4.389      486.035      109.964        0.051      346.531       24.842      864.474
05/15/2014  18:53:00     -495.848      -53.224      -27.407      211.372      143.620       78.229    44678.041    20626.653     6119.726       16.042        3.571      498.697       84.694        0.029      346.514       24.814      864.495
05/15/2014  18:54:00     -347.957     -102.780       12.316      203.570      193.035       80.996    41440.677    37262.520     6560.362       10.851        4.263      362.819       92.069        0.064      346.551       24.877      864.488
05/15/2014  18:55:00     -398.041      -38.844        5.236      242.339      188.404      104.088    58728.358    35496.160    10834.340       13.249        5.253      399.932      114.076        0.081      346.500       24.790      864.494
05/15/2014  18:56:00     -519.581      -69.362      -11.507      252.119      192.090      111.367    63564.144    36898.605    12402.529       19.386        5.643      524.191      128.516        0.060      346.448       24.700      864.488
05/15/2014  18:57:00     -651.126      -42.490      -40.032      235.732      189.347      111.924    55569.557    35852.340    12526.922       26.564        5.197      652.511       98.328        0.023      346.431       24.670      864.502
05/15/2014  18:58:00     -415.587      -54.400        4.035      229.337      187.362       93.623    52595.318    35104.643     8765.315       13.606        4.823      419.132      114.792        0.075      346.454       24.709      864.487
05/15/2014  18:59:00     -448.689      -62.292       -4.040      275.664      196.423      108.959    75990.843    38581.997    11872.025       16.581        6.322      452.992      135.054        0.089      346.402       24.620      864.489
05/15/2014  19:00:00     -530.331     -135.729      -29.551      328.854      200.552      112.816   108145.028    40221.259    12727.490       23.079        8.055      547.424      131.884        0.058      346.395       24.607      864.474
05/15/2014  19:01:00     -309.398      -81.760       15.995      266.968      209.517      115.771    71271.949    43897.555    13402.855       11.559        6.429      320.018      130.235        0.166      346.409       24.633      864.440
05/15/2014  19:02:00     -769.004     -163.935      -46.985      237.793      193.400       95.466    56545.483    37403.645     9113.845       36.174        5.153      786.284       88.797        0.013      346.342       24.517      864.432
05/15/2014  19:03:00     -621.250     -145.374      -20.365      257.981      224.220      109.899    66554.059    50274.430    12077.793       26.818        6.445      638.032      121.402        0.036      346.338       24.510      864.444
05/15/2014  19:04:00     -493.732     -164.447       -5.443      249.532      196.429      102.001    62266.384    38584.340    10404.198       19.103        5.563      520.398      101.267        0.038      346.322       24.482      864.460
05/15/2014  19:05:00     -695.163      -71.613      -42.018      275.279      195.296      112.127    75778.294    38140.450    12572.444       30.829        6.325      698.842      127.142        0.033      346.298       24.442      864.426
05/15/2014  19:06:00     -601.173      -33.084      -35.687      254.145      191.968      120.505    64589.826    36851.585    14521.479       23.985        5.798      602.083      106.197        0.031      346.301       24.447      864.445
05/15/2014  19:07:00     -756.389     -143.383      -44.641      237.311      222.661      101.238    56316.471    49577.933    10249.087       35.539        5.807      769.860       95.535        0.015      346.273       24.397      864.472
05/15/2014  19:08:00     -648.315     -144.110      -47.773      283.200      185.594      105.820    80202.038    34445.298    11197.930       28.458        6.292      664.139       96.634        0.021      346.270       24.393      864.467
05/15/2014  19:09:00     -767.352     -223.527      -47.868      244.042      218.080      114.143    59556.332    47558.983    13028.713       38.059        6.007      799.246      123.767        0.024      346.228       24.319      864.475
05/15/2014  19:10:00     -744.275     -187.929      -50.416      264.341      235.854      101.537    69876.169    55627.127    10309.816       36.378        6.791      767.634      112.004        0.021      346.211       24.290      864.499
05/15/2014  19:11:00     -691.438     -160.299      -31.821      287.773      215.214      100.230    82813.393    46317.064    10046.048       32.196        6.959      709.777      120.186        0.029      346.204       24.280      864.516
05/15/2014  19:12:00     -551.635     -139.481      -26.292      218.087      191.338      104.953    47561.925    36610.121    11015.044       20.980        4.759      568.996      103.234        0.033      346.212       24.292      864.572
05/15/2014  19:13:00     -486.038     -113.980      -15.312      206.756      143.896       88.226    42747.981    20706.090     7783.744       16.033        3.562      499.224      101.164        0.041      346.194       24.262      864.612
05/15/2014  19:14:00     -591.070     -181.776      -41.640      244.034      199.651      102.286    59552.349    39860.493    10462.427       24.699        5.494      618.390       90.489        0.021      346.168       24.218      864.612
05/15/2014  19:15:00     -400.816     -118.444       -9.504      209.779      150.750       79.723    44007.095    22725.424     6355.720       12.392        3.654      417.950       81.329        0.038      346.136       24.164      864.632
05/15/2014  19:16:00     -509.820     -150.572      -20.385      202.128      206.832       90.465    40855.673    42779.380     8183.945       18.739        4.591      531.591       83.144        0.024      346.124       24.141      864.635
05/15/2014  19:17:00     -561.508     -179.539      -11.735      248.994      223.748       99.736    61998.016    50063.339     9947.190       23.481        6.100      589.513      103.865        0.031      346.101       24.103      864.635
05/15/2014  19:18:00     -490.184     -124.300      -22.454      208.490      173.388       86.253    43467.920    30063.371     7439.549       16.859        4.049      505.699       90.084        0.032      346.102       24.104      864.681
05/15/2014  19:19:00     -556.964      -67.561      -23.859      264.289      189.261       95.701    69848.707    35819.701     9158.612       21.506        5.741      561.046      120.201        0.046      346.076       24.061      864.703
05/15/2014  19:20:00     -690.576      -45.902      -31.238      277.688      242.960      108.018    77110.889    59029.461    11667.956       31.386        7.390      692.100      121.463        0.031      346.068       24.046      864.672
05/15/2014  19:21:00     -739.918     -112.045      -21.487      264.390      196.098      108.160    69901.885    38454.597    11698.512       34.025        6.003      748.353      128.582        0.030      346.050       24.014      864.678
05/15/2014  19:22:00     -593.545     -182.172      -16.303      208.930      187.559       85.905    43651.709    35178.414     7379.586       23.596        4.310      620.872       88.372        0.020      346.044       24.004      864.721
05/15/2014  19:23:00     -604.700     -194.062      -23.733      189.907      168.945       90.683    36064.768    28542.288     8223.490       23.834        3.642      635.076       85.010        0.018      346.030       23.980      864.720
05/15/2014  19:24:00     -559.709      -82.472      -31.687      246.019      233.470      112.315    60525.376    54508.445    12614.687       22.434        6.382      565.753      119.267        0.044      346.027       23.976      864.726
05/15/2014  19:25:00     -586.154     -168.000      -29.274      304.268      240.621      114.477    92578.779    57898.697    13105.009       26.809        8.179      609.754      107.385        0.031      346.013       23.951      864.683
05/15/2014  19:26:00     -611.845     -188.244      -25.165      200.795      173.274       94.143    40318.543    30023.744     8862.817       24.480        3.960      640.148       91.192        0.020      346.005       23.938      864.728
05/15/2014  19:27:00     -673.901     -184.543      -49.599      267.163      217.432       95.165    71376.031    47276.621     9056.410       30.916        6.385      698.712      100.267        0.021      345.999       23.927      864.741
05/15/2014  19:28:00     -748.966       -3.795      -60.384      190.216      205.479       95.082    36182.244    42221.707     9040.560       32.601        4.372      748.976       86.669        0.013      345.986       23.908      864.761
05/15/2014  19:29:00     -576.069      -62.077      -34.579      212.244      165.511      108.288    45047.710    27393.766    11726.356       21.052        4.208      579.404      110.176        0.036      345.967       23.874      864.742
05/15/2014  19:30:00     -503.655     -122.919      -14.116      218.758      169.759       87.187    47854.869    28818.142     7601.511       17.661        4.214      518.437       96.992        0.035      345.963       23.867      864.738
05/15/2014  19:31:00     -514.792     -143.837      -14.855      231.088      176.194      105.490    53401.633    31044.414    11128.219       19.073        4.779      534.509      101.467        0.036      345.948       23.840      864.767
05/15/2014  19:32:00     -585.687     -101.154      -25.682      225.913      135.176       85.767    51036.705    18272.535     7356.048       21.528        3.833      594.358      108.059        0.033      345.939       23.824      864.788
05/15/2014  19:33:00     -587.147     -145.088      -16.086      220.026      164.458       89.059    48411.318    27046.477     7931.579       22.470        4.169      604.807      103.481        0.029      345.928       23.806      864.777
05/15/2014  19:34:00     -449.466      -68.020      -22.318      222.982      191.877      103.734    49720.851    36816.721    10760.828       15.220        4.865      454.583      115.789        0.065      345.922       23.795      864.748
05/15/2014  19:35:00     -566.370     -108.639      -30.516      226.506      239.816      115.969    51305.169    57511.940    13448.923       22.786        6.113      576.695      112.731        0.038      345.920       23.793      864.742
05/15/2014  19:36:00     -694.851       -6.991      -61.343      240.135      200.172       87.256    57664.801    40068.730     7613.654       29.597        5.267      694.887       95.182        0.019      345.885       23.733      864.742
05/15/2014  19:37:00     -560.135      -24.238      -63.343      219.097      168.175      112.573    48003.513    28282.960    12672.735       20.364        4.448      560.659       97.531        0.030      345.889       23.739      864.727
05/15/2014  19:38:00     -640.366       -3.318      -63.666      212.579      193.230      101.181    45189.719    37337.653    10237.623       25.343        4.638      640.374      106.680        0.028      345.860       23.690      864.741
05/15/2014  19:39:00     -598.119      -55.227      -52.060      250.447      205.399       90.263    62723.750    42188.831     8147.448       23.826        5.653      600.663      106.807        0.032      345.848       23.668      864.761
05/15/2014  19:40:00     -673.813     -215.379      -28.342      293.156      201.468      119.575    85940.186    40589.479    14298.117       32.099        7.041      707.398      131.844        0.035      345.836       23.648      864.761
05/15/2014  19:41:00     -582.087     -167.330      -19.322      196.192      133.474       79.525    38491.497    17815.312     6324.297       21.490        3.132      605.660       82.177        0.018      345.818       23.617      864.783
05/15/2014  19:42:00     -461.525      -32.538      -30.856      175.016      157.246       88.544    30630.655    24726.440     7840.015       13.909        3.160      462.671       82.130        0.032      345.796       23.579      864.803
05/15/2014  19:43:00     -573.558      -96.415      -42.369      223.965      205.714       99.420    50160.326    42318.434     9884.333       22.119        5.118      581.605      112.919        0.038      345.791       23.571      864.799
05/15/2014  19:44:00     -535.456      -89.183      -15.209      295.742      284.797      107.913    87463.625    81109.481    11645.278       23.752        9.011      542.832      116.259        0.046      345.800       23.585      864.749
05/15/2014  19:45:00     -346.055     -120.625       -4.760      260.055      214.828      111.023    67628.715    46150.918    12326.054       13.019        6.305      366.476      110.482        0.091      345.812       23.607      864.800
05/15/2014  19:46:00     -584.280     -132.337       -8.474      315.562      218.076      127.235    99579.083    47557.254    16188.738       26.111        8.166      599.080      143.012        0.057      345.795       23.578      864.819
05/15/2014  19:47:00     -264.640      -28.140       -0.507      258.934      150.777       95.975    67046.978    22733.740     9211.276        8.489        4.950      266.132      118.605        0.199      345.794       23.576      864.812
05/15/2014  19:48:00     -473.391     -124.552      -22.683      232.613      137.482       81.476    54108.669    18901.380     6638.401       15.987        3.982      489.502       91.860        0.035      345.751       23.504      864.832
05/15/2014  19:49:00     -385.811     -112.562      -10.529      179.007      166.141       72.321    32043.364    27602.910     5230.332       11.324        3.244      401.896       71.249        0.031      345.708       23.430      864.835
05/15/2014  19:50:00     -623.496     -119.736      -35.574      243.107      177.077       87.682    59100.913    31356.298     7688.048       25.123        4.907      634.889       87.856        0.019      345.698       23.412      864.811
05/15/2014  19:51:00     -265.027      -79.313       13.397      238.950      174.188      115.591    57097.043    30341.627    13361.336        8.873        5.040      276.640      118.348        0.183      345.694       23.404      864.801
05/15/2014  19:52:00     -456.117      -28.023      -22.424      205.137      149.375       88.623    42081.007    22312.781     7854.093       14.078        3.612      456.977       92.926        0.041      345.681       23.382      864.863
05/15/2014  19:53:00     -433.485      -98.832      -10.788      171.800      158.029       91.017    29515.278    24973.109     8284.070       13.027        3.139      444.608       87.265        0.039      345.670       23.363      864.878
05/15/2014  19:54:00     -502.289     -172.380        5.449      316.854      214.267      140.621   100396.611    45910.498    19774.271       22.403        8.304      531.046      171.703        0.105      345.670       23.363      864.853
05/15/2014  19:55:00     -419.058      -64.606        0.292      308.848      189.029      103.471    95386.835    35732.114    10706.241       16.078        7.091      424.009      134.518        0.101      345.653       23.333      864.873
05/15/2014  19:56:00     -418.680      -97.656       11.316      273.035      168.231      109.375    74548.254    28301.519    11962.951       14.986        5.741      429.919      132.657        0.095      345.646       23.322      864.888
05/15/2014  19:57:00     -511.849      -39.019      -15.476      232.806      162.514      100.599    54198.634    26410.827    10120.134       17.722        4.536      513.334      113.856        0.049      345.624       23.283      864.959
05/15/2014  19:58:00     -379.411     -122.622       -6.718      232.277      180.725       99.561    53952.572    32661.679     9912.417       12.776        4.826      398.734      117.531        0.087      345.614       23.266      864.959
05/15/2014  19:59:00     -365.526     -139.585       -0.582      182.281      180.598       89.649    33226.316    32615.493     8036.873       11.347        3.694      391.272      101.696        0.068      345.588       23.222      864.996
05/15/2014  20:00:00     -479.834     -119.523        1.735      291.723      196.133      101.277    85102.476    38467.971    10257.004       18.915        6.691      494.497      127.986        0.067      345.564       23.179      865.016
05/15/2014  20:01:00     -658.960     -140.752      -27.039      241.034      172.708       88.960    58097.250    29828.221     7913.901       27.529        4.792      673.825       88.544        0.017      345.571       23.192      865.022
05/15/2014  20:02:00     -417.437     -197.621       -7.674      266.640      282.291      117.635    71097.077    79688.321    13837.925       18.896        8.231      461.853      145.147        0.099      345.545       23.147      865.033
05/15/2014  20:03:00     -311.119      -45.459        3.781      181.953      187.836       81.898    33106.955    35282.270     6707.267        8.697        3.755      314.422       89.252        0.081      345.532       23.126      865.075
05/15/2014  20:04:00     -526.828     -140.223      -13.011      223.583      175.309       89.209    49989.231    30733.301     7958.329       19.301        4.434      545.170      105.929        0.038      345.518       23.104      865.075
05/15/2014  20:05:00     -503.052      -80.900      -27.202      258.116      175.605      108.737    66624.110    30837.040    11823.669       18.479        5.464      509.515      126.536        0.062      345.493       23.059      865.072
05/15/2014  20:06:00     -635.883     -127.391      -17.999      252.066      157.023      100.311    63537.261    24656.359    10062.257       25.956        4.913      648.518      119.635        0.034      345.492       23.058      865.075
05/15/2014  20:07:00     -408.839     -104.843      -30.710      177.629      139.933       85.012    31552.180    19581.270     7227.106       11.871        2.918      422.068       87.972        0.043      345.472       23.022      865.104
05/15/2014  20:08:00     -487.904     -183.339       -9.640      229.432      195.575       98.166    52638.842    38249.598     9636.630       18.612        5.026      521.214      105.080        0.041      345.466       23.012      865.085
05/15/2014  20:09:00     -407.935      -50.721       -3.980      231.489      147.709       84.623    53587.256    21817.892     7161.027       12.577        4.128      411.077      105.665        0.066      345.439       22.967      865.113
05/15/2014  20:10:00     -334.695     -152.879      -18.721      200.600      174.010       87.617    40240.219    30279.317     7676.712       10.695        3.910      367.958      101.240        0.076      345.444       22.975      865.118
05/15/2014  20:11:00     -360.240      -44.935       -0.734      241.639      157.414       86.003    58389.497    24779.288     7396.598       11.116        4.528      363.031       87.473        0.058      345.420       22.933      865.101
05/15/2014  20:12:00     -517.173       -5.675      -34.183      217.605      168.594       88.307    47351.746    28424.099     7798.093       17.610        4.179      517.204      108.726        0.044      345.404       22.908      865.104
05/15/2014  20:13:00     -474.347      -62.071       -7.577      296.512      160.642       94.855    87919.458    25805.719     8997.552       17.579        6.136      478.391      135.045        0.080      345.385       22.872      865.094
05/15/2014  20:14:00     -417.635     -115.400      -10.923      239.847      171.355      104.641    57526.774    29362.475    10949.698       14.283        4.892      433.286      108.549        0.063      345.372       22.852      865.080
05/15/2014  20:15:00     -560.810      -78.400      -30.996      190.199      185.736       90.762    36175.620    34497.680     8237.675       20.025        3.946      566.264       91.105        0.026      345.366       22.842      865.070
05/15/2014  20:16:00     -513.801      -83.925      -22.442      191.209      143.203       89.244    36560.957    20507.222     7964.446       16.827        3.252      520.610       96.923        0.035      345.335       22.787      865.089
05/15/2014  20:17:00     -478.265      -82.031        1.515      226.332      160.735       94.429    51226.338    25835.718     8916.875       16.071        4.299      485.249      107.684        0.049      345.318       22.758      865.075
05/15/2014  20:18:00     -660.037      -55.132      -43.182      251.459      179.123      109.381    63231.530    32085.004    11964.296       27.390        5.364      662.335      129.919        0.038      345.336       22.788      865.093
05/15/2014  20:19:00     -472.543     -163.365      -23.026      225.461      169.201       98.964    50832.765    28628.907     9793.803       16.987        4.463      499.985      116.405        0.054      345.326       22.771      865.085
05/15/2014  20:20:00     -395.208     -117.391        1.492      238.296      244.901      104.773    56784.811    59976.689    10977.307       14.883        6.387      412.274      118.112        0.082      345.307       22.739      865.118
05/15/2014  20:21:00     -280.904     -123.491       -2.676      160.914      163.759       75.576    25893.472    26816.966     5711.751        7.628        2.921      306.850       79.458        0.067      345.292       22.715      865.135
05/15/2014  20:22:00     -475.673      -91.739      -23.342      239.471      165.201       84.124    57346.546    27291.277     7076.877       16.345        4.586      484.439       97.733        0.041      345.274       22.683      865.142
05/15/2014  20:23:00     -537.280     -216.268      -14.931      232.697      192.673      102.944    54148.002    37122.694    10597.444       21.875        5.093      579.173      127.173        0.048      345.267       22.672      865.157
05/15/2014  20:24:00     -636.855     -107.492      -30.482      332.188      158.211      119.532   110348.861    25030.761    14287.878       28.384        7.483      645.863      159.884        0.061      345.282       22.697      865.166
05/15/2014  20:25:00     -346.561     -107.268        0.600      278.746      186.792      104.204    77699.481    34891.107    10858.369       12.751        6.172      362.782      119.878        0.109      345.270       22.677      865.165
05/15/2014  20:26:00     -509.086      -49.114      -11.458      252.555      188.206       95.004    63783.833    35421.652     9025.851       18.495        5.412      511.449      114.409        0.050      345.275       22.687      865.181
05/15/2014  20:27:00     -514.330      -87.482      -25.619      231.930      158.638       99.663    53791.484    25165.906     9932.805       18.085        4.445      521.717      106.335        0.042      345.253       22.647      865.172
05/15/2014  20:28:00     -487.205     -106.183      -30.001      194.366      151.796       89.026    37778.042    23042.162     7925.633       15.913        3.437      498.642       79.113        0.025      345.256       22.652      865.176
05/15/2014  20:29:00     -335.220      -98.259       -4.114      200.198      156.704       80.724    40079.217    24556.124     6516.368        9.658        3.558      349.324       89.408        0.066      345.228       22.605      865.182
05/15/2014  20:30:00     -501.127      -51.389      -18.641      163.003      153.812       87.321    26569.951    23658.212     7624.880       15.597        2.893      503.755       82.523        0.027      345.217       22.586      865.185
05/15/2014  20:31:00     -477.578      -71.598       -8.191      184.052      173.118       84.644    33875.162    29969.893     7164.656       15.213        3.550      482.915       86.023        0.032      345.206       22.568      865.193
05/15/2014  20:32:00     -473.220      -70.293      -10.636      294.606      169.290      105.039    86792.926    28659.193    11033.182       17.771        6.324      478.412      137.946        0.083      345.206       22.566      865.221
05/15/2014  20:33:00     -512.016      -86.668      -14.466      280.433      181.857      113.959    78642.397    33071.982    12986.624       19.727        6.235      519.299      133.271        0.066      345.210       22.575      865.215
05/15/2014  20:34:00     -538.556     -145.275      -17.256      237.626      171.035      109.510    56466.338    29252.951    11992.528       20.456        4.886      557.806      132.511        0.056      345.210       22.575      865.237
05/15/2014  20:35:00     -535.757      -52.156      -18.994      339.121      164.865      108.969   115003.007    27180.351    11874.230       22.206        7.703      538.289      147.255        0.075      345.188       22.535      865.268
05/15/2014  20:36:00     -452.539     -139.798       -6.640      257.637      211.489      103.191    66376.693    44727.584    10648.415       17.304        6.088      473.640      112.493        0.056      345.222       22.595      865.262
05/15/2014  20:37:00     -515.290     -107.540      -15.558      207.621      190.966      100.346    43106.636    36468.066    10069.306       18.347        4.482      526.392      106.316        0.041      345.190       22.541      865.281
05/15/2014  20:38:00     -480.568      -69.315      -15.660      274.781      143.706       90.944    75504.408    20651.507     8270.886       17.019        5.221      485.541      113.074        0.054      345.183       22.528      865.290
05/15/2014  20:39:00     -326.100      -65.022       14.186      208.860      156.234       94.049    43622.342    24409.212     8845.192        9.381        3.844      332.519      100.810        0.092      345.159       22.486      865.303
05/15/2014  20:40:00     -395.739      -50.889      -35.061      235.199      165.192       81.148    55318.487    27288.305     6585.071       12.479        4.460      398.998      100.647        0.064      345.163       22.495      865.315
05/15/2014  20:41:00     -509.373      -40.379       -4.219      214.595      182.708      102.136    46051.078    33382.122    10431.766       17.547        4.493      510.971      111.351        0.047      345.184       22.529      865.326
05/15/2014  20:42:00     -514.092      -67.694      -14.420      203.306      165.674       94.319    41333.215    27447.734     8896.146       17.336        3.884      518.529       90.905        0.031      345.174       22.512      865.344
05/15/2014  20:43:00     -534.697     -138.791      -41.297      253.478      179.925       92.960    64251.106    32372.866     8641.617       20.605        5.263      552.417       98.859        0.032      345.193       22.544      865.346
05/15/2014  20:44:00     -464.653      -73.629      -12.780      260.211      155.588       89.199    67709.755    24207.553     7956.454       16.066        4.994      470.451      119.081        0.064      345.147       22.466      865.384
05/15/2014  20:45:00     -513.722      -25.875      -29.394      209.689      134.839       88.655    43969.535    18181.457     7859.734       16.771        3.501      514.374       99.313        0.037      345.156       22.481      865.391
05/15/2014  20:46:00     -455.888     -109.002      -18.644      248.905      191.183      107.952    61953.800    36550.891    11653.691       16.509        5.508      468.738      132.197        0.080      345.159       22.486      865.395
05/15/2014  20:47:00     -532.331     -162.647      -29.915      215.981      211.693       83.505    46647.688    44813.957     6973.106       20.456        4.922      556.624       96.668        0.030      345.157       22.483      865.413
05/15/2014  20:48:00     -592.802      -55.756      -34.256      215.593      181.672      104.890    46480.284    33004.775    11001.872       22.307        4.524      595.418      115.331        0.038      345.143       22.459      865.413
05/15/2014  20:49:00     -530.374     -145.958      -13.480      199.761      189.466       90.537    39904.395    35897.272     8196.932       19.337        4.200      550.091       95.891        0.030      345.123       22.426      865.427
05/15/2014  20:50:00     -291.579      -44.572       13.032      182.101      125.865       76.733    33160.676    15841.978     5887.878        7.102        2.745      294.966       86.738        0.086      345.080       22.351      865.466
05/15/2014  20:51:00     -465.612       -3.415      -17.682      307.585      157.798       97.103    94608.331    24900.241     9428.922       17.300        6.447      465.625      130.991        0.079      345.096       22.380      865.474
05/15/2014  20:52:00     -481.112      -51.388      -11.715      232.052      173.366       90.004    53848.051    30055.619     8100.778       16.311        4.600      483.848      114.640        0.056      345.091       22.372      865.497
05/15/2014  20:53:00     -516.479     -103.333      -15.707      217.679      154.831       85.250    47384.176    23972.563     7267.560       17.813        3.931      526.715      104.135        0.039      345.118       22.416      865.503
05/15/2014  20:54:00     -364.820      -69.991      -15.384      177.948      136.200       83.410    31665.522    18550.377     6957.212        9.769        2.859      371.474       89.707        0.058      345.102       22.390      865.538
05/15/2014  20:55:00     -503.635     -117.074      -19.575      162.926      175.144       71.496    26544.923    30675.441     5111.627       16.502        3.117      517.063       71.035        0.019      345.076       22.346      865.541
05/15/2014  20:56:00     -539.118     -113.762      -35.739      199.095      154.694       86.179    39638.692    23930.367     7426.811       18.792        3.550      550.990       85.931        0.024      345.104       22.393      865.558
05/15/2014  20:57:00     -398.306     -142.378        1.851      186.480      154.963       87.060    34774.617    24013.483     7579.473       12.263        3.318      422.988       96.307        0.052      345.066       22.328      865.565
05/15/2014  20:58:00     -392.231     -115.388      -29.437      173.717      119.873       75.785    30177.454    14369.469     5743.399       10.915        2.515      408.851       87.456        0.046      345.074       22.340      865.573
05/15/2014  20:59:00     -410.060       -2.586      -31.109      162.039      125.874       76.682    26256.665    15844.353     5880.183       10.854        2.399      410.068       82.699        0.041      345.047       22.296      865.596
05/15/2014  21:00:00     -527.824       13.203      -36.977      191.289      103.056       76.043    36591.444    10620.447     5782.497       16.656        2.650      527.989       92.321        0.031      345.060       22.320      865.591
05/15/2014  21:01:00     -518.525      -69.412      -26.790      159.515      117.886       84.151    25444.979    13897.024     7081.466       16.040        2.321      523.150       83.286        0.025      345.072       22.339      865.595
05/15/2014  21:02:00     -391.851     -117.941       -6.198      177.134      161.247       75.316    31376.285    26000.528     5672.502       11.526        3.152      409.216       80.112        0.038      345.054       22.308      865.600
05/15/2014  21:03:00     -284.387      -87.880       -1.427      150.347      114.653       68.169    22604.276    13145.224     4647.005        6.449        2.020      297.655       75.342        0.064      345.041       22.285      865.602
05/15/2014  21:04:00     -377.725      -59.882      -15.726      143.401      123.202       73.901    20563.978    15178.693     5461.416        9.385        2.060      382.442       80.940        0.045      345.010       22.232      865.591
05/15/2014  21:05:00     -519.014      -47.810      -33.721      207.541      129.447       78.165    43073.276    16756.596     6109.697       16.936        3.297      521.211       93.761        0.032      345.087       22.364      865.585
05/15/2014  21:06:00     -373.849     -129.495      -13.784      169.680      150.073       74.055    28791.258    22521.848     5484.189       10.675        2.840      395.641       82.959        0.044      345.066       22.328      865.579
05/15/2014  21:07:00     -320.627     -115.588       -5.542      130.691      108.526       62.673    17080.083    11777.799     3927.928        7.448        1.639      340.826       64.903        0.036      345.023       22.255      865.603
05/15/2014  21:08:00     -388.392     -126.338      -16.959      198.187      166.408       89.211    39278.071    27691.767     7958.685       12.100        3.746      408.423       91.884        0.051      345.065       22.326      865.630
05/15/2014  21:09:00     -598.523     -134.618      -37.508      183.534      146.070       87.693    33684.746    21336.335     7689.985       22.022        3.136      613.475       77.536        0.016      345.126       22.431      865.632
05/15/2014  21:10:00     -402.429      -72.987      -17.932      169.771      146.993       76.115    28822.203    21606.949     5793.422       11.190        2.811      408.994       75.653        0.034      345.064       22.323      865.660
05/15/2014  21:11:00     -561.357     -118.342      -35.219      227.500      181.573       92.290    51756.053    32968.726     8517.527       21.179        4.662      573.696       99.935        0.030      345.085       22.360      865.633
05/15/2014  21:12:00     -357.025      -69.110       -6.651      237.586      171.867       81.978    56447.217    29538.202     6720.347       11.248        4.635      363.652      103.741        0.081      345.024       22.256      865.627
05/15/2014  21:13:00     -523.294     -143.231      -24.035      251.218      183.134      109.041    63110.460    33538.118    11889.988       20.171        5.427      542.542      103.367        0.036      345.064       22.325      865.638
05/15/2014  21:14:00     -451.242      -93.444       -4.930      190.526      148.252       85.647    36300.318    21978.635     7335.429       13.898        3.281      460.816       86.864        0.036      345.041       22.285      865.658
05/15/2014  21:15:00     -473.552      -88.059      -15.376      180.439      122.934       82.812    32558.213    15112.869     6857.833       14.337        2.726      481.670       81.790        0.029      345.046       22.294      865.639
05/15/2014  21:16:00     -390.201      -81.396       -7.726      158.153      129.267       76.118    25012.235    16710.076     5793.939       10.322        2.376      398.600       76.113        0.036      345.039       22.284      865.670
05/15/2014  21:17:00     -352.461      -40.425       -1.613      161.316      118.930       82.107    26022.865    14144.436     6741.526        8.638        2.345      354.771       90.328        0.065      345.002       22.218      865.686
05/15/2014  21:18:00     -441.287     -103.423      -16.029      179.053      130.788       83.136    32060.115    17105.614     6911.649       13.087        2.804      453.244       98.885        0.048      345.038       22.281      865.682
05/15/2014  21:19:00     -408.140      -42.904      -15.578      169.493      142.748       90.417    28727.751    20376.925     8175.288       11.296        2.864      410.389       83.977        0.042      345.004       22.224      865.711
05/15/2014  21:20:00     -635.368      -17.136      -50.906      219.073      164.668       83.844    47993.069    27115.685     7029.779       24.434        4.107      635.599      102.279        0.026      345.073       22.341      865.680
05/15/2014  21:21:00     -412.735      -80.857      -13.106      227.646      153.267       95.740    51822.700    23490.747     9166.230       13.075        4.224      420.580       91.718        0.048      344.989       22.196      865.665
05/15/2014  21:22:00     -448.411     -130.938       -6.662      270.741      182.705       91.705    73300.836    33381.253     8409.810       16.665        5.755      467.137      121.055        0.067      345.008       22.230      865.659
05/15/2014  21:23:00     -533.994      -97.304      -31.445      170.541      163.082       89.499    29084.260    26595.757     8010.120       17.964        3.185      542.787       85.011        0.025      344.984       22.186      865.689
05/15/2014  21:24:00     -437.572     -165.516       -1.553      158.131      140.026       79.612    25005.473    19607.277     6338.095       13.490        2.548      467.830       82.032        0.031      344.946       22.121      865.698
05/15/2014  21:25:00     -451.563     -147.234      -13.099      193.101      143.330       86.517    37287.950    20543.574     7485.162       14.552        3.266      474.960       92.032        0.038      344.950       22.128      865.707
05/15/2014  21:26:00     -452.686       17.330      -27.967      229.091      198.247       90.416    52482.849    39302.067     8175.021       15.296        4.998      453.018      101.080        0.050      344.923       22.083      865.710
05/15/2014  21:27:00     -325.330      -56.398       -0.380      162.976      123.524       73.666    26561.114    15258.294     5426.637        7.812        2.362      330.182       81.987        0.062      344.906       22.054      865.724
05/15/2014  21:28:00     -547.500     -196.025      -15.918      213.321      161.255       70.593    45505.699    26003.261     4983.360       20.745        3.825      581.534       77.746        0.018      344.963       22.151      865.687
05/15/2014  21:29:00     -387.222     -139.105      -11.882      157.740      132.457       79.155    24882.047    17544.727     6265.550       10.905        2.435      411.450       80.188        0.038      344.924       22.085      865.713
05/15/2014  21:30:00     -383.096      -61.562      -35.598      131.229      100.367       61.883    17221.025    10073.544     3829.527        9.147        1.556      388.011       48.427        0.016      344.921       22.079      865.702
05/15/2014  21:31:00     -574.883      -82.665      -63.035      204.248      147.273       86.841    41717.067    21689.292     7541.440       20.611        3.547      580.796       94.301        0.026      344.947       22.124      865.683
05/15/2014  21:32:00     -382.772     -141.203       -8.700      161.547      126.609       77.571    26097.301    16029.864     6017.230       10.733        2.407      407.986       73.629        0.033      344.930       22.096      865.678
05/15/2014  21:33:00     -350.255      -94.997      -17.376      161.654       98.641       55.897    26131.863     9729.966     3124.449        8.549        1.949      362.909       55.818        0.024      344.869       21.991      865.716
05/15/2014  21:34:00     -351.264       12.451      -26.999      163.337      101.129       67.011    26679.047    10226.981     4490.420        8.283        2.070      351.484       77.088        0.048      344.896       22.039      865.689
05/15/2014  21:35:00     -427.653     -145.136      -22.493      191.708      130.683       82.473    36752.131    17078.074     6801.858       13.253        3.032      451.610       95.383        0.045      344.930       22.094      865.659
05/15/2014  21:36:00     -398.586     -134.704      -31.717      163.688      140.233       75.623    26793.845    19665.388     5718.769       11.509        2.609      420.732       69.189        0.027      344.867       21.988      865.638
05/15/2014  21:37:00     -511.179     -140.259      -18.054      158.880      151.814       74.285    25242.933    23047.403     5518.266       16.754        2.690      530.072       73.447        0.019      344.842       21.943      865.674
05/15/2014  21:38:00     -654.750      -85.558      -44.299      205.609      151.571       94.722    42275.176    22973.660     8972.238       25.609        3.711      660.316       98.740        0.022      344.902       22.049      865.702
05/15/2014  21:39:00     -383.198      -90.004       -8.417      160.273      111.171       64.765    25687.276    12359.021     4194.472        9.862        2.112      393.626       74.927        0.036      344.889       22.024      865.737
05/15/2014  21:40:00     -454.820      -51.851      -25.177      123.876      136.770       66.588    15345.184    18705.909     4433.920       12.433        1.924      457.766       60.298        0.017      344.929       22.093      865.709
05/15/2014  21:41:00     -504.459      -16.925      -21.832      208.052      193.036       80.969    43285.590    37262.723     6555.901       17.116        4.355      504.743       98.241        0.038      344.930       22.094      865.687
05/15/2014  21:42:00     -499.676      -89.443      -21.486      200.022      145.103       83.537    40008.634    21054.761     6978.511       16.308        3.402      507.618      100.252        0.039      344.878       22.007      865.687
05/15/2014  21:43:00     -479.002     -120.890       -5.517      180.171      143.767       91.709    32461.410    20668.959     8410.621       15.280        3.077      494.021       94.428        0.037      344.909       22.058      865.705
05/15/2014  21:44:00     -451.541      -52.368      -27.899      185.464      119.393       72.314    34396.750    14254.663     5229.365       13.063        2.694      454.568       67.706        0.022      344.890       22.027      865.684
05/15/2014  21:45:00     -487.503      -52.817       -8.129      190.162      152.339       90.381    36161.422    23207.100     8168.636       15.401        3.377      490.355       96.507        0.039      344.884       22.015      865.720
05/15/2014  21:46:00     -395.619      -51.312      -27.223      190.496      134.255       81.112    36288.630    18024.352     6579.222       11.038        3.045      398.933       77.021        0.037      344.866       21.985      865.708
05/15/2014  21:47:00     -394.605      -96.218      -17.269      149.383      118.541       66.631    22315.180    14051.996     4439.719       10.303        2.040      406.166       66.344        0.027      344.887       22.022      865.726
05/15/2014  21:48:00     -390.784     -114.989      -17.344      122.653       94.429       64.330    15043.700     8916.814     4138.299        9.716        1.405      407.351       62.369        0.023      344.886       22.019      865.689
05/15/2014  21:49:00     -467.708      -66.366      -41.619      193.652      164.390       80.386    37500.921    27023.996     6461.839       14.792        3.549      472.393       85.644        0.033      344.889       22.025      865.683
05/15/2014  21:50:00     -452.573     -111.053      -10.515      212.800      162.290       97.887    45283.955    26338.186     9581.902       14.922        4.060      465.999      107.367        0.053      344.892       22.031      865.711
05/15/2014  21:51:00     -339.743       11.236      -24.937      157.993      102.762       68.034    24961.904    10560.059     4628.596        7.815        2.008      339.929       72.931        0.046      344.896       22.037      865.746
05/15/2014  21:52:00     -570.750     -124.593      -13.553      204.988      205.836       88.610    42020.270    42368.548     7851.818       21.683        4.612      584.191       89.858        0.024      344.884       22.017      865.708
05/15/2014  21:53:00     -450.341      -73.322        7.654      208.527      130.444       74.280    43483.583    17015.517     5517.530       13.712        3.301      456.271       94.950        0.043      344.864       21.982      865.752
05/15/2014  21:54:00     -295.212       41.659      -10.122      178.831      111.769       79.424    31980.477    12492.414     6308.122        6.987        2.539      298.137       85.922        0.083      344.764       21.809      865.761
05/15/2014  21:55:00     -349.433      -47.324       -2.866      166.061      132.863       66.821    27576.165    17652.462     4465.063        8.701        2.485      352.623       54.965        0.024      344.785       21.846      865.773
05/15/2014  21:56:00     -230.871      -46.842        6.004      178.119      117.894       83.429    31726.222    13899.023     6960.435        5.405        2.629      235.575      103.666        0.194      344.824       21.914      865.758
05/15/2014  21:57:00     -358.303      -33.727       -4.801      160.521      121.087       75.523    25766.845    14661.955     5703.758        8.783        2.307      359.886       79.540        0.049      344.834       21.932      865.765
05/15/2014  21:58:00     -511.604      -58.481      -18.374      174.156      145.150       70.857    30330.230    21068.465     5020.661       16.095        2.821      514.936       76.362        0.022      344.892       22.030      865.763
05/15/2014  21:59:00     -344.173      -66.029      -16.939      160.694      130.310       69.172    25822.599    16980.613     4784.725        8.534        2.379      350.449       78.638        0.050      344.807       21.885      865.788
05/15/2014  22:00:00     -389.258      -85.440       -7.153      149.529      143.433       72.468    22358.901    20573.140     5251.564       10.352        2.409      398.524       77.545        0.038      344.841       21.942      865.808
05/15/2014  22:01:00     -274.825       -4.044        7.276      157.396      124.314       57.740    24773.628    15453.890     3333.937        5.957        2.178      274.855       70.603        0.066      344.761       21.807      865.790
05/15/2014  22:02:00     -438.760      -85.355      -29.142      227.621      126.784       78.774    51811.123    16074.138     6205.350       13.735        3.705      446.985       88.601        0.039      344.824       21.913      865.773
05/15/2014  22:03:00     -521.017     -110.887      -17.519      176.383      150.917       85.689    31110.811    22775.811     7342.546       17.263        3.061      532.686       93.778        0.031      344.862       21.979      865.796
05/15/2014  22:04:00     -411.893      -37.243      -20.193      128.577      137.447       65.569    16532.127    18891.546     4299.290       10.558        1.986      413.573       69.691        0.028      344.894       22.032      865.823
05/15/2014  22:05:00     -439.915      -67.924      -16.561      178.471      106.470       79.846    31852.000    11335.874     6375.312       12.398        2.478      445.128       89.745        0.041      344.828       21.918      865.782
05/15/2014  22:06:00     -484.094     -145.572       -7.132      253.735      144.875       85.029    64381.410    20988.834     7229.896       17.408        4.630      505.508      102.543        0.041      344.856       21.967      865.806
05/15/2014  22:07:00     -446.400     -139.391      -25.243      150.118      120.646       73.195    22535.324    14555.550     5357.501       13.089        2.122      467.657       58.626        0.016      344.915       22.069      865.833
05/15/2014  22:08:00     -348.240     -129.489      -17.949      119.033      125.072       59.236    14168.910    15642.903     3508.930        8.583        1.666      371.535       57.041        0.024      344.892       22.030      865.811
05/15/2014  22:09:00     -485.857      -59.355      -25.181      143.028      185.919       86.003    20457.048    34565.900     7396.519       15.130        3.121      489.469       67.299        0.019      344.905       22.053      865.793
05/15/2014  22:10:00     -250.156      -60.317       -9.200      127.198      112.134       57.691    16179.427    12573.958     3328.234        4.918        1.604      257.325       55.972        0.047      344.802       21.874      865.796
05/15/2014  22:11:00     -296.729      -74.836        5.587      142.891      105.507       64.631    20417.820    11131.753     4177.165        6.470        1.786      306.021       62.907        0.042      344.804       21.877      865.770
05/15/2014  22:12:00     -151.497      -67.942       19.434      137.229      121.499       68.555    18831.929    14761.896     4699.736        3.311        1.915      166.035       79.801        0.231      344.773       21.828      865.768
05/15/2014  22:13:00     -200.652      -84.591        6.770      161.624      169.255       90.803    26122.300    28647.218     8245.157        5.523        3.151      217.755       79.932        0.135      344.787       21.850      865.743
05/15/2014  22:14:00     -248.597     -158.037       -4.217      181.041      123.356       81.511    32775.669    15216.724     6644.084        7.070        2.732      294.578       74.190        0.063      344.883       22.014      865.748
05/15/2014  22:15:00     -196.024     -116.874       -6.173      127.545       93.962       58.981    16267.619     8828.941     3478.757        4.034        1.429      228.221       65.772        0.083      344.864       21.982      865.767
05/15/2014  22:16:00     -352.228      -70.056      -17.751      126.089      128.476       67.096    15898.384    16505.989     4501.870        8.309        1.845      359.127       51.477        0.021      344.864       21.981      865.749
05/15/2014  22:17:00     -328.258      -61.656       -7.859      135.783      115.605       65.131    18437.037    13364.612     4242.099        7.382        1.802      333.999       63.049        0.036      344.821       21.908      865.707
05/15/2014  22:18:00     -372.264     -112.035      -16.660      258.772      121.977       74.698    66962.766    14878.491     5579.740       11.940        4.371      388.758       90.782        0.055      344.783       21.843      865.739
05/15/2014  22:19:00     -118.784      -75.031        7.276      119.930       86.451       62.010    14383.190     7473.747     3845.250        2.274        1.285      140.496       62.974        0.201      344.822       21.911      865.743
05/15/2014  22:20:00     -252.462     -109.549        6.291      163.698      145.325       84.395    26797.025    21119.443     7122.464        6.540        2.752      275.206       82.217        0.089      344.803       21.878      865.717
05/15/2014  22:21:00     -417.659     -138.417      -15.320      140.698      137.055       68.769    19795.833    18783.972     4729.231       11.856        2.165      439.998       66.322        0.023      344.788       21.851      865.734
05/15/2014  22:22:00     -220.187      -58.480      -14.537      122.956      145.922       74.263    15118.175    21293.279     5515.065        4.701        2.096      227.820       64.846        0.081      344.783       21.843      865.725
05/15/2014  22:23:00     -270.208     -106.575       -2.977      124.625      117.558       59.175    15531.435    13819.902     3501.690        5.861        1.643      290.466       62.811        0.047      344.767       21.816      865.721
05/15/2014  22:24:00     -251.610      -99.763        5.914      176.654      123.786       88.892    31206.711    15322.931     7901.847        6.385        2.722      270.667       93.190        0.119      344.738       21.765      865.710
05/15/2014  22:25:00     -261.137      -86.439      -18.677      106.615       95.099       57.246    11366.776     9043.858     3277.109        4.985        1.184      275.072       42.871        0.024      344.789       21.853      865.720
05/15/2014  22:26:00     -276.711       10.231       -6.632      137.915      111.320       71.271    19020.545    12392.164     5079.502        5.660        1.825      276.900       74.968        0.073      344.687       21.679      865.711
05/15/2014  22:27:00     -293.371      -79.510       -7.732      139.786      119.467       67.193    19540.237    14272.480     4514.952        6.538        1.916      303.955       77.643        0.065      344.729       21.751      865.704
05/15/2014  22:28:00     -219.911      -93.547       -7.370      139.900       91.769       61.805    19571.934     8421.505     3819.824        4.448        1.591      238.981       53.665        0.050      344.728       21.748      865.705
05/15/2014  22:29:00     -339.761      -82.887      -18.788      129.558      100.657       55.924    16785.155    10131.734     3127.466        7.635        1.502      349.725       36.662        0.011      344.781       21.839      865.723
05/15/2014  22:30:00     -238.106      -57.951       11.722      184.299      155.934       86.921    33966.218    24315.541     7555.216        6.300        3.292      245.056       92.512        0.143      344.772       21.825      865.714
05/15/2014  22:31:00     -275.730     -175.499      -11.916      144.158      122.613       74.379    20781.546    15033.893     5532.269        7.415        2.067      326.843       72.705        0.049      344.833       21.930      865.703
05/15/2014  22:32:00     -227.140      -64.715        2.065      103.383       98.683       50.248    10688.073     9738.255     2524.867        3.936        1.148      236.179       58.372        0.061      344.734       21.760      865.706
05/15/2014  22:33:00     -238.006     -102.897       -7.457      161.301      112.732       81.312    26017.935    12708.427     6611.567        5.631        2.267      259.297       92.416        0.127      344.692       21.688      865.703
05/15/2014  22:34:00     -230.003     -137.740        3.816      147.340      154.971       85.317    21709.178    24016.063     7278.929        6.244        2.650      268.093       87.690        0.107      344.755       21.796      865.662
05/15/2014  22:35:00     -223.705      -95.905        0.428      148.991      103.137       69.385    22198.386    10637.165     4814.262        4.844        1.882      243.396       64.302        0.070      344.711       21.719      865.653
05/15/2014  22:36:00     -236.848     -126.607       -1.690      197.809      148.142       86.418    39128.513    21945.988     7468.144        7.032        3.427      268.564       83.770        0.097      344.695       21.692      865.636
05/15/2014  22:37:00     -249.619      -28.521        2.354      197.286       92.771       61.499    38921.609     8606.383     3782.158        5.721        2.566      251.243       87.186        0.120      344.589       21.512      865.645
05/15/2014  22:38:00     -404.223     -112.866       -5.422      171.610      124.032       74.679    29449.942    15383.892     5576.925       11.328        2.521      419.684       75.665        0.033      344.753       21.790      865.628
05/15/2014  22:39:00     -316.167     -142.724        3.672      132.916      148.877       76.749    17666.666    22164.394     5890.348        8.302        2.286      346.889       72.234        0.043      344.736       21.763      865.636
05/15/2014  22:40:00     -228.415      -88.805        0.918      130.438      123.055       58.086    17014.025    15142.637     3373.954        4.779        1.777      245.071       46.859        0.037      344.700       21.703      865.630
05/15/2014  22:41:00     -327.054     -128.087       -5.868      149.086      119.892       71.927    22226.546    14374.083     5173.470        8.258        2.089      351.242       77.215        0.048      344.701       21.703      865.635
05/15/2014  22:42:00     -223.738     -116.835       -1.827      146.759      115.751       72.625    21538.108    13398.295     5274.378        5.195        2.011      252.407       86.598        0.118      344.663       21.639      865.630
05/15/2014  22:43:00     -281.961     -104.311       -1.095      201.472      130.361       70.959    40591.117    16993.905     5035.196        7.649        3.131      300.637      100.043        0.111      344.677       21.662      865.613
05/15/2014  22:44:00     -286.642     -147.173      -26.658      179.802      126.589       68.074    32328.918    16024.900     4634.115        7.875        2.649      322.217       57.963        0.032      344.678       21.664      865.605
05/15/2014  22:45:00     -272.954      -61.666       -1.002      170.228      115.839       78.488    28977.524    13418.721     6160.324        6.342        2.428      279.833       71.901        0.066      344.602       21.534      865.594
05/15/2014  22:46:00     -501.663      -83.849      -17.912      174.881      139.110       78.938    30583.252    19351.584     6231.253       15.758        2.808      508.622       86.268        0.029      344.695       21.692      865.569
05/15/2014  22:47:00     -426.520      -99.706      -18.080      162.665      135.609       76.739    26459.893    18389.694     5888.829       12.145        2.537      438.019       76.224        0.030      344.683       21.671      865.550
05/15/2014  22:48:00     -366.766      -61.331      -18.848      195.100      123.877       77.222    38064.040    15345.547     5963.193        9.899        2.969      371.859       84.564        0.052      344.643       21.605      865.543
05/15/2014  22:49:00     -399.976     -163.322      -29.251      150.488      135.640       86.900    22646.703    18398.080     7551.534       11.804        2.430      432.035       86.883        0.040      344.735       21.762      865.541
05/15/2014  22:50:00     -296.335      -21.876       16.807      198.968      126.832       86.285    39588.422    16086.283     7445.175        7.584        3.156      297.141      110.574        0.138      344.626       21.574      865.502
05/15/2014  22:51:00     -411.746     -126.573      -21.431      167.568      114.890       80.994    28078.959    13199.795     6560.009       11.692        2.392      430.761       81.833        0.036      344.704       21.708      865.511
05/15/2014  22:52:00     -215.838     -102.630       10.771      197.525      137.671       83.403    39016.029    18953.218     6955.996        6.107        3.246      238.996      108.788        0.207      344.603       21.535      865.468
05/15/2014  22:53:00     -366.824      -37.863      -21.581      191.620      122.746       81.967    36718.272    15066.663     6718.586        9.747        2.925      368.773       98.932        0.072      344.632       21.585      865.470
05/15/2014  22:54:00     -421.768      -54.645      -28.240      222.554      146.420       84.148    49530.329    21438.770     7080.826       12.984        3.902      425.293       92.904        0.048      344.716       21.728      865.465
05/15/2014  22:55:00     -386.289      -45.751       -9.724      134.062      119.073       70.343    17972.550    14178.353     4948.108        9.425        1.855      388.989       72.612        0.035      344.696       21.695      865.481
05/15/2014  22:56:00     -210.529      -51.073        3.575      142.172      125.833       69.845    20212.754    15833.949     4878.281        4.393        2.046      216.635       55.947        0.067      344.641       21.601      865.460
05/15/2014  22:57:00     -361.110      -93.849       -9.057      209.851      151.252       78.027    44037.236    22877.068     6088.171       10.613        3.650      373.106       90.166        0.058      344.604       21.538      865.458
05/15/2014  22:58:00     -233.746      -85.616       -0.634      124.222      123.366       65.886    15431.029    15219.208     4340.910        4.847        1.750      248.932       64.651        0.067      344.629       21.578      865.471
05/15/2014  22:59:00     -304.965     -141.983       -6.484      164.798      124.529       70.293    27158.226    15507.514     4941.057        8.040        2.380      336.397       74.867        0.050      344.618       21.562      865.444
05/15/2014  23:00:00     -403.810      -49.562      -11.580      151.289      129.136       73.570    22888.507    16676.119     5412.485       10.531        2.249      406.840       71.732        0.031      344.638       21.595      865.447
05/15/2014  23:01:00     -342.884      -73.745      -13.088      142.169      132.412       77.508    20212.086    17533.042     6007.526        8.346        2.188      350.724       75.677        0.047      344.598       21.527      865.438
05/15/2014  23:02:00     -302.660      -53.571      -10.261      147.147      127.731       67.902    21652.269    16315.334     4610.715        6.857        2.129      307.364       69.033        0.050      344.630       21.580      865.438
05/15/2014  23:03:00     -221.449      -19.004       -4.563       81.616      100.071       58.879     6661.231    10014.257     3466.703        3.478        1.007      222.262       45.212        0.041      344.566       21.473      865.432
05/15/2014  23:04:00     -253.591      -60.716        4.272      176.181      115.571       66.809    31039.735    13356.718     4463.447        5.843        2.443      260.758       74.164        0.081      344.540       21.427      865.449
05/15/2014  23:05:00     -211.337     -101.534       13.772      190.958      166.910       80.848    36464.883    27859.100     6536.399        6.300        3.543      234.463       94.849        0.164      344.644       21.605      865.440
05/15/2014  23:06:00     -238.020      -75.727      -20.330      232.123      155.898       63.482    53880.876    24304.240     4029.917        7.249        4.111      249.776       91.121        0.133      344.641       21.600      865.450
05/15/2014  23:07:00     -272.004      -62.307        7.079      177.607      164.622       75.743    31544.307    27100.357     5737.071        7.114        3.219      279.049       62.962        0.051      344.665       21.643      865.445
05/15/2014  23:08:00     -187.525      -55.448       16.196      142.494       89.933       65.508    20304.477     8087.972     4291.280        3.559        1.634      195.551       74.658        0.146      344.642       21.604      865.447
05/15/2014  23:09:00     -182.965      -51.425       -1.880      181.168      108.972       73.115    32821.928    11874.832     5345.781        4.307        2.502      190.054       91.821        0.233      344.584       21.504      865.437
05/15/2014  23:10:00     -303.226      -61.561       -1.944      177.403      116.570       71.249    31471.680    13588.660     5076.377        7.293        2.507      309.412       88.001        0.081      344.588       21.510      865.458
05/15/2014  23:11:00     -298.375       14.354      -35.291      115.068       88.257       50.553    13240.677     7789.356     2555.592        5.703        1.179      298.720       44.761        0.022      344.647       21.610      865.468
05/15/2014  23:12:00     -181.820      -61.795      -15.234      138.033       84.919       50.078    19053.220     7211.296     2507.811        3.294        1.439      192.034       61.359        0.102      344.576       21.489      865.485
05/15/2014  23:13:00     -165.882      -78.298       -2.230      134.701       92.103       48.105    18144.415     8482.988     2314.110        3.129        1.447      183.432       60.238        0.108      344.585       21.508      865.528
05/15/2014  23:14:00     -181.352     -174.121       -8.905      104.864       79.092       52.852    10996.416     6255.568     2793.372        4.166        1.002      251.409       52.003        0.043      344.675       21.658      865.591
05/15/2014  23:15:00      -42.777      -66.739       27.548       75.760       65.085       40.148     5739.583     4236.041     1611.830        0.931        0.579       79.272       34.425        0.189      344.554       21.453      865.633
05/15/2014  23:16:00       56.795        2.635       43.144       57.427       55.778       34.373     3297.832     3111.178     1181.519        0.634        0.380       56.856       27.785        0.239      343.993       20.498      865.647
05/15/2014  23:17:00       31.571       25.860       41.409       49.688       34.680       33.914     2468.893     1202.719     1150.145        0.410        0.241       40.810       24.896        0.372      343.551       19.742      865.666
05/15/2014  23:18:00        9.264       -3.108       31.721       43.497       61.859       39.346     1892.001     3826.563     1548.136        0.418        0.363        9.771       28.641        8.592      343.610       19.842      865.686
05/15/2014  23:19:00       33.101       -2.121       31.523       47.814       51.979       42.835     2286.136     2701.860     1834.829        0.446        0.341       33.169       40.128        1.464      343.336       19.377      865.694
05/15/2014  23:20:00       10.594       17.239       24.973       31.029       38.599       22.636      962.790     1489.910      512.399        0.200        0.148       20.234       16.107        0.634      343.454       19.577      865.706
05/15/2014  23:21:00       44.787       31.822       16.567       20.094       23.934       20.304      403.788      572.828      412.263        0.234        0.069       54.941        9.505        0.030      343.729       20.045      865.730
05/15/2014  23:22:00       63.664        2.264       16.490       29.238       31.898       26.934      854.838     1017.484      725.431        0.346        0.130       63.704       19.040        0.089      343.038       18.869      865.716
05/15/2014  23:23:00       80.503      -39.657        1.086       44.548       28.438       27.838     1984.556      808.718      774.959        0.581        0.178       89.740       27.476        0.094      342.876       18.592      865.698
05/15/2014  23:24:00       51.751      -24.002        7.371       37.080       38.215       20.981     1374.951     1460.412      440.185        0.329        0.164       57.046        7.438        0.017      342.980       18.769      865.679
05/15/2014  23:25:00       44.165       44.499       39.522       41.726       34.403       39.633     1741.065     1183.539     1570.802        0.499        0.225       62.695       29.914        0.228      343.688       19.976      865.649
05/15/2014  23:26:00        2.093       12.395       34.672       53.190       41.048       25.191     2829.146     1684.966      634.593        0.325        0.257       12.571       29.747        5.600      343.712       20.017      865.673
05/15/2014  23:27:00       58.469       -1.663       12.891       43.099       16.318       14.303     1857.510      266.275      204.566        0.296        0.116       58.493       17.302        0.087      343.926       20.382      865.691
05/15/2014  23:28:00       58.866       12.335        1.062       24.130       25.220       21.960      582.281      636.040      482.243        0.266        0.085       60.144       13.591        0.051      343.707       20.009      865.702
05/15/2014  23:29:00       68.532       23.880        5.732       30.402       23.174       24.132      924.274      537.012      582.362        0.367        0.102       72.573        5.927        0.007      343.267       19.259      865.700
05/15/2014  23:30:00       47.446       38.193        1.239       31.898       24.595       20.877     1017.490      604.903      435.853        0.288        0.103       60.908       13.718        0.051      343.503       19.662      865.690
05/15/2014  23:31:00       97.919       68.172       17.130       39.303       34.102       18.172     1544.688     1162.933      330.228        0.878        0.152      119.313       10.941        0.008      343.904       20.345      865.671
05/15/2014  23:32:00       83.944       53.014       12.521       38.556       22.851       29.614     1486.537      522.179      877.010        0.645        0.144       99.282        6.224        0.004      343.944       20.414      865.675
05/15/2014  23:33:00      109.183       56.088       21.373       30.770       35.669       29.839      946.769     1272.250      890.349        0.932        0.155      122.747       21.244        0.030      343.294       19.306      865.665
05/15/2014  23:34:00       47.621        7.572       13.264       37.221       37.512       25.857     1385.380     1407.131      668.582        0.298        0.173       48.219       23.983        0.247      343.139       19.040      865.659
05/15/2014  23:35:00       34.513      -37.021       -3.879        9.155        9.637       12.436       83.813       92.876      154.660        0.145        0.017       50.614        6.692        0.017      343.471       19.607      865.666
05/15/2014  23:36:00       49.637        6.924       24.153       38.227       35.424       27.822     1461.308     1254.826      774.071        0.329        0.175       50.117       23.038        0.211      343.116       19.001      865.647
05/15/2014  23:37:00       25.175       31.667       33.844       29.866       32.941       22.574      891.971     1085.096      509.573        0.263        0.124       40.455       16.207        0.160      342.897       18.629      865.611
05/15/2014  23:38:00       38.802       24.125       -4.294       23.546       26.133       25.216      554.395      682.915      635.822        0.199        0.094       45.690       12.016        0.069      342.877       18.593      865.607
05/15/2014  23:39:00       -3.165       17.987       -5.288       34.782       25.413       18.076     1209.804      645.798      326.729        0.127        0.109       18.263        8.095        0.196      343.147       19.054      865.630
05/15/2014  23:40:00       40.813       -0.996       -7.987       40.076       20.668       17.450     1606.049      427.179      304.502        0.203        0.117       40.825        5.138        0.016      343.141       19.044      865.652
05/15/2014  23:41:00      109.498      -19.354       12.815       44.159       29.280       31.324     1950.025      857.333      981.193        0.816        0.189      111.195       26.156        0.055      342.503       17.959      865.618
05/15/2014  23:42:00       27.634       -1.114       43.483       44.706       52.316       47.405     1998.601     2736.980     2247.193        0.482        0.349       27.657       32.097        1.347      342.582       18.092      865.586
05/15/2014  23:43:00       37.345      -34.768       18.263       44.501       44.436       37.671     1980.327     1974.543     1419.094        0.415        0.269       51.024       32.009        0.394      342.813       18.486      865.591
05/15/2014  23:44:00       52.574       -1.535       27.154       39.437       28.796       23.473     1555.285      829.199      550.977        0.322        0.147       52.596       17.728        0.114      342.730       18.344      865.611
05/15/2014  23:45:00        9.591       11.393       16.907       19.906       16.782       15.322      396.240      281.626      234.778        0.071        0.046       14.893        6.258        0.177      342.471       17.905      865.608
05/15/2014  23:46:00       53.653      -26.634       -5.844       27.976       51.688       23.360      782.676     2671.684      545.679        0.381        0.200       59.900       28.750        0.230      342.810       18.482      865.586
05/15/2014  23:47:00       31.377      -32.631       14.900       42.389       52.471       26.142     1796.868     2753.193      683.425        0.375        0.262       45.269       29.367        0.421      342.634       18.184      865.575
05/15/2014  23:48:00        2.768      -27.988       18.238       35.843       34.367       20.555     1284.716     1181.071      422.504        0.201        0.144       28.125       21.121        0.564      342.905       18.642      865.587
05/15/2014  23:49:00        7.581        8.393       31.936       26.275       25.130       14.840      690.368      631.494      220.214        0.134        0.077       11.311       13.148        1.351      342.476       17.913      865.579
05/15/2014  23:50:00       34.236      -14.167       23.214       48.510       43.857       29.433     2353.205     1923.472      866.323        0.353        0.257       37.051       27.603        0.555      342.702       18.296      865.546
05/15/2014  23:51:00       49.372      -36.367       19.893       55.796       69.937       36.078     3113.225     4891.220     1301.637        0.673        0.465       61.320       41.736        0.463      342.803       18.470      865.522
05/15/2014  23:52:00       45.044      -42.282       18.554       45.663       50.685       30.925     2085.141     2568.965      956.379        0.488        0.281       61.780       32.416        0.275      343.492       19.643      865.516
05/15/2014  23:53:00       31.462      -51.033       15.436       36.755       47.776       31.142     1350.931     2282.520      969.815        0.422        0.230       59.952       29.378        0.240      343.191       19.128      865.515
05/15/2014  23:54:00       36.506       -4.768        6.258       34.691       24.342       24.035     1203.500      592.526      577.700        0.188        0.119       36.816       15.946        0.188      342.691       18.279      865.521
05/15/2014  23:55:00      -11.984       12.485        3.688       31.414       18.212       16.746      986.818      331.669      280.440        0.096        0.080       17.306       13.897        0.645      343.020       18.837      865.542
05/15/2014  23:56:00       12.776       20.777        3.490       20.687       17.396        8.602      427.933      302.634       73.997        0.071        0.040       24.391        6.660        0.075      343.161       19.077      865.545
05/15/2014  23:57:00       80.399       -2.356        7.865       37.045       22.928       16.476     1372.298      525.689      271.463        0.435        0.108       80.434        7.990        0.010      342.755       18.388      865.525
05/15/2014  23:58:00       59.411      -45.444        7.700       53.346       40.708       42.150     2845.787     1657.131     1776.651        0.597        0.314       74.799       31.442        0.177      342.371       17.735      865.493
05/15/2014  23:59:00       50.869      -61.346        2.406       49.675       55.792       44.410     2467.561     3112.728     1972.279        0.695        0.378       79.693       42.617        0.286      343.309       19.330      865.517
